GFSWCAN_prec_cthk_000.txt.gz
RH
95 88 84 78 70 66 65 63 69 70 64 60 54 42 35 31 38 48 49 51 55 45 43 42 41 41 44 40 44 45 46 46 45 48 52 53 54 49 46 42 46 47 49 52 53 52 37 28 34 37 34 32 33 37
91 86 82 76 71 68 64 69 70 70 64 63 52 43 36 34 38 63 62 55 53 53 55 53 50 47 43 41 40 45 44 43 43 49 50 51 51 50 47 46 44 48 43 47 46 44 37 37 38 39 40 41 41 43
87 82 79 76 71 68 69 72 71 74 65 65 60 46 40 43 61 79 69 62 55 50 50 54 49 46 44 47 48 43 42 40 43 43 44 43 42 47 49 49 46 43 42 44 43 38 40 41 41 41 45 46 48 55
82 79 75 71 71 73 76 74 72 75 69 67 62 47 45 53 74 71 68 62 54 50 53 53 51 48 46 44 44 41 38 40 41 40 41 44 42 41 44 44 47 45 44 45 46 41 41 42 43 46 48 53 56 57
85 82 75 71 77 79 79 77 73 71 71 70 68 59 51 51 53 57 56 54 52 48 50 54 53 50 49 49 48 44 40 41 42 43 46 45 44 46 49 50 50 43 45 50 50 43 45 45 49 51 53 54 56 58
78 85 82 78 80 81 81 79 75 71 69 66 67 69 67 56 49 47 47 45 40 37 39 54 54 54 52 52 49 44 39 38 38 39 42 43 41 43 53 54 39 39 46 52 53 56 60 63 63 63 61 61 62 66
91 89 87 86 90 85 81 78 76 72 68 66 63 61 59 55 52 48 45 49 45 42 40 48 50 50 48 43 38 38 38 38 40 42 44 44 46 49 54 60 44 58 64 67 70 71 69 70 68 67 66 67 69 75
95 91 89 91 91 87 83 79 76 74 71 69 67 66 63 59 54 53 50 49 48 44 42 48 50 45 45 46 47 47 47 49 51 54 56 57 60 64 67 56 59 63 68 71 73 73 72 70 71 71 71 76 83 85
95 92 90 87 94 89 85 81 78 75 72 70 69 67 65 63 61 61 58 54 51 49 53 56 54 56 59 63 62 60 60 62 60 62 61 62 63 64 61 59 62 64 66 69 72 75 76 77 79 81 83 86 89 92
97 94 92 90 88 92 86 83 82 79 77 73 70 69 69 69 68 66 65 61 61 63 63 66 67 69 67 68 67 64 63 65 64 62 63 62 61 62 62 61 63 68 73 77 80 83 83 84 85 85 85 86 95 97
98 96 94 90 88 86 86 88 85 80 78 75 73 73 74 73 70 69 71 70 71 71 70 71 71 75 71 69 70 69 68 68 66 63 71 71 72 71 69 72 76 79 81 84 86 87 89 89 91 92 96 96 94 92
98 98 97 95 94 91 87 82 78 75 74 74 73 75 74 74 72 74 77 77 75 73 75 77 73 71 74 78 83 82 78 76 77 78 84 81 78 79 84 87 88 90 90 91 92 94 94 94 94 94 95 93 89 86
89 93 98 99 98 95 93 91 89 85 81 78 78 77 78 81 84 83 84 80 78 75 71 71 76 80 86 91 94 97 95 92 88 89 89 86 85 88 88 89 90 92 92 93 93 87 88 86 85 89 90 89 82 76
66 70 74 78 86 93 95 95 93 93 91 86 86 88 83 84 82 81 80 79 81 84 89 92 92 93 94 98 99 98 99 98 95 92 89 91 92 91 91 91 91 93 93 89 87 85 85 83 81 80 79 76 73 71
62 58 57 58 62 67 70 79 88 92 91 95 96 98 94 89 88 89 91 93 93 95 96 97 98 98 99 98 99 98 98 97 95 92 93 96 95 94 90 86 86 87 87 86 85 86 85 82 76 74 71 67 62 55
53 53 51 51 54 54 55 56 61 63 74 81 90 94 94 95 96 96 96 96 95 96 96 96 96 97 97 97 95 95 94 92 92 94 95 95 98 98 96 93 92 90 86 84 81 76 72 67 62 58 54 52 49 46
42 43 42 42 43 45 49 53 50 50 54 56 61 67 72 77 82 82 84 84 85 86 86 88 89 90 91 92 90 91 90 90 90 90 91 92 88 89 92 92 89 83 77 73 69 65 61 54 50 47 44 41 39 40
25 29 32 32 33 33 36 37 38 41 46 48 53 58 59 60 60 59 57 56 58 58 59 60 60 63 65 64 65 70 69 70 74 79 80 82 85 84 82 79 79 75 73 69 61 54 50 47 45 44 43 43 44 46
12 11 12 16 19 21 23 28 31 36 41 42 46 46 47 49 50 50 49 47 45 45 46 48 51 54 56 57 57 61 60 61 59 60 64 66 64 64 64 67 67 70 66 58 55 51 50 50 49 49 49 48 44 40
12 10 9 8 10 16 24 29 30 34 36 40 41 47 48 48 47 45 45 44 44 45 46 49 49 48 48 44 44 49 57 59 61 65 67 65 68 70 70 71 73 69 62 58 54 54 54 55 54 50 44 40 39 40
12 10 9 8 9 15 23 30 33 36 35 38 40 42 42 42 43 45 46 46 47 44 48 50 52 54 55 54 58 62 65 67 68 71 73 74 74 74 74 74 72 66 61 57 59 59 57 55 50 44 42 44 45 45
14 13 12 12 13 16 23 27 32 34 35 40 40 43 43 44 46 50 52 52 50 52 56 59 61 64 66 69 71 73 74 76 78 74 73 73 75 74 74 71 70 69 67 67 67 65 61 55 49 47 45 43 41 40
18 17 18 21 21 24 33 31 33 35 34 38 38 42 45 46 49 52 59 57 57 59 61 65 68 71 74 77 79 83 85 85 85 88 85 79 76 79 80 78 77 76 74 70 67 62 55 48 45 42 40 38 37 36
22 24 25 25 27 34 36 38 37 37 40 42 44 47 51 52 56 60 59 58 62 65 69 73 76 80 82 85 88 91 96 96 91 85 81 83 84 82 80 78 75 71 68 62 56 50 45 41 37 35 33 32 31 30
26 33 31 35 42 47 49 52 53 51 49 56 60 59 60 60 69 75 74 76 78 80 86 89 90 91 96 98 97 96 93 89 86 84 84 84 82 80 76 72 69 64 58 52 46 39 34 32 30 28 28 30 31 34
34 43 47 52 57 60 66 67 71 73 78 80 80 82 80 80 76 72 76 86 89 91 94 98 98 98 98 97 94 91 90 89 88 87 84 81 80 79 75 68 61 56 48 39 33 29 27 27 28 30 32 35 37 39
58 62 65 66 67 74 80 83 86 85 86 89 92 94 98 98 91 91 94 97 98 98 98 98 98 98 97 94 92 91 87 85 86 86 85 82 78 70 61 55 46 38 34 30 28 28 29 31 32 35 36 39 42 45
73 75 77 80 82 84 87 89 88 91 95 97 98 98 95 96 98 98 98 98 98 98 98 98 97 97 95 93 93 94 92 89 87 83 78 69 60 51 44 38 34 30 28 30 32 33 34 35 36 38 41 42 45 48
78 78 81 86 87 88 89 91 93 94 95 96 97 97 98 97 96 96 97 97 97 97 96 96 96 97 96 94 92 89 82 74 65 55 48 45 42 38 33 29 28 30 32 34 35 35 37 38 40 42 45 47 48 50
78 78 79 80 83 85 85 82 83 83 85 87 88 89 90 90 90 90 90 90 90 90 88 86 83 80 75 67 59 52 49 48 49 49 47 42 34 29 29 29 31 32 33 33 34 36 38 41 43 45 48 50 52 56
69 71 72 72 75 75 77 77 77 75 74 72 71 70 70 70 68 67 66 64 64 64 64 62 59 56 51 50 50 50 50 49 47 42 35 29 28 28 29 29 30 31 34 35 36 38 40 42 41 43 46 49 53 58
54 53 54 55 57 59 61 60 60 58 56 55 56 53 52 54 56 55 56 58 59 61 60 58 55 52 50 47 46 47 47 45 39 29 27 27 27 28 29 30 34 38 40 40 41 41 40 38 40 42 45 48 55 61
45 45 47 48 48 50 50 47 42 45 48 49 50 52 54 57 58 58 58 60 64 63 60 54 52 51 52 52 50 46 39 31 27 27 28 30 32 35 41 44 45 44 43 42 40 38 38 38 40 43 46 51 59 65

GFSWCAN_prec_cthk_003.txt.gz
RH
98 98 96 93 88 82 77 72 68 67 65 64 59 52 48 45 42 42 41 46 48 50 43 34 26 29 37 39 42 41 45 45 43 45 46 45 47 45 43 40 46 43 46 48 48 47 41 31 36 41 38 38 38 38
96 95 94 90 84 80 73 68 70 72 69 64 56 51 46 42 41 40 51 54 56 54 44 35 32 39 42 37 35 44 45 45 44 46 45 47 53 52 48 45 41 42 40 43 41 40 34 36 37 37 38 39 41 43
97 93 88 82 80 75 69 66 70 73 66 60 55 50 45 40 41 50 69 66 63 58 48 45 47 45 50 51 48 45 47 44 40 39 45 50 50 46 48 46 44 40 40 41 40 37 39 38 38 38 40 43 46 48
92 89 86 82 76 69 69 78 75 74 68 61 54 48 42 40 57 67 64 61 66 71 66 63 63 60 53 53 48 45 42 42 40 40 41 45 42 41 44 43 44 40 41 43 43 40 39 39 40 43 46 47 49 52
90 86 81 76 71 68 70 77 76 71 68 63 63 54 43 49 61 76 66 64 60 56 55 60 61 63 55 52 49 45 41 38 38 40 45 45 43 45 47 48 46 40 41 45 46 40 45 46 50 56 60 62 62 60
85 82 77 72 70 69 72 73 77 71 70 71 67 58 53 59 69 79 75 68 59 58 54 63 61 59 54 50 49 47 45 40 37 37 39 41 40 42 52 52 36 35 41 44 49 55 60 64 67 67 66 66 65 65
80 78 75 73 74 74 75 73 80 75 73 73 72 63 62 71 77 75 71 66 62 58 55 65 66 66 62 59 54 48 39 35 34 36 38 41 44 47 52 52 43 49 54 60 63 65 66 69 70 71 70 70 70 71
87 84 79 77 81 82 84 79 76 72 70 71 72 71 58 56 61 63 61 59 51 43 39 48 53 55 59 51 46 38 37 40 43 48 50 51 55 58 64 59 57 55 55 59 63 66 69 73 75 77 78 79 83 83
92 92 87 84 85 84 87 84 77 76 75 74 70 68 66 61 56 57 51 49 46 44 46 47 48 52 48 50 51 53 57 60 60 60 61 62 65 65 62 60 58 58 60 62 68 72 77 80 81 83 85 86 90 92
95 93 92 92 94 91 86 81 80 77 76 74 72 71 69 70 67 62 59 56 53 54 52 56 56 58 60 66 70 71 70 72 71 67 65 64 65 62 59 61 64 70 72 75 79 82 85 88 86 88 91 94 96 96
98 97 95 94 94 95 91 87 84 82 80 77 75 78 78 74 69 67 69 69 70 69 67 68 68 72 73 74 76 79 79 75 71 66 68 69 69 64 71 76 80 82 84 85 88 90 92 93 93 94 96 96 96 95
98 96 95 95 91 95 96 91 88 86 84 80 78 77 76 75 74 79 80 79 76 76 75 77 78 78 78 81 82 80 78 75 76 78 82 82 79 83 84 87 89 91 92 93 94 92 93 93 91 90 90 89 90 88
98 98 97 96 95 95 93 94 92 88 86 83 82 81 81 83 84 80 80 77 76 73 73 77 80 78 77 77 81 81 81 83 86 89 89 86 85 88 90 89 90 89 86 83 83 82 81 83 83 83 83 81 78 74
95 96 98 99 99 97 97 95 92 90 86 85 83 84 82 83 81 78 76 76 78 79 80 79 80 85 89 93 97 97 96 96 94 91 89 90 91 91 91 90 85 83 81 83 81 81 81 78 75 74 73 70 63 56
78 82 86 90 93 97 99 98 97 94 94 95 90 92 90 87 84 82 80 81 81 83 86 92 94 95 97 97 98 98 97 94 92 91 95 93 94 90 90 86 85 85 83 79 76 75 72 74 71 67 60 55 54 53
61 63 64 69 74 81 86 92 95 94 96 97 97 97 95 93 94 95 95 96 95 96 98 98 98 99 97 97 97 98 97 95 93 95 95 95 90 89 87 86 81 80 74 69 66 70 74 70 62 58 52 49 48 49
52 51 55 56 60 58 61 66 67 75 86 82 89 97 98 98 98 98 98 98 98 98 99 99 98 98 97 97 94 90 88 90 95 95 90 84 81 79 74 73 74 70 68 68 71 71 64 61 52 48 49 50 50 52
41 44 44 46 51 54 53 51 51 58 64 68 69 70 71 74 76 75 75 76 74 74 74 74 73 76 76 73 72 68 65 64 63 65 69 71 69 64 58 54 55 57 61 63 64 62 59 55 55 55 59 56 52 46
22 22 25 30 32 32 32 37 41 50 57 58 61 63 63 63 61 60 59 58 58 57 57 58 57 55 54 54 54 52 52 52 55 57 58 59 59 61 62 63 67 70 71 70 66 61 62 66 65 63 57 53 50 44
11 13 14 12 14 20 30 37 39 41 45 50 51 49 48 48 48 48 46 44 43 42 43 46 46 47 46 45 47 49 50 53 58 63 66 67 68 66 69 70 72 75 72 68 69 71 72 70 67 65 62 56 50 45
8 7 7 7 8 14 22 29 30 33 35 39 40 41 44 43 44 46 47 47 46 43 43 49 51 53 51 49 50 53 59 64 67 70 72 72 73 76 77 75 74 75 75 76 78 77 73 71 67 63 58 51 44 38
10 9 8 9 11 17 23 29 31 30 31 31 32 34 39 40 40 44 47 49 48 49 50 54 58 60 61 61 64 67 68 70 73 74 75 75 79 80 79 81 84 86 85 81 77 73 70 67 62 54 44 38 32 28
13 11 12 15 17 22 29 29 31 30 29 32 32 34 37 36 36 36 42 48 52 56 60 63 67 69 70 71 73 77 79 80 82 82 86 88 89 90 90 89 86 82 78 74 72 70 64 55 48 42 33 27 25 24
13 15 18 20 24 31 34 35 35 37 37 39 39 44 46 48 46 48 51 53 56 59 62 65 70 74 78 82 85 85 85 88 90 92 94 93 92 90 89 87 83 78 76 73 67 60 52 46 37 29 26 25 28 31
20 27 27 34 38 43 45 49 52 52 52 56 56 59 64 64 64 61 58 57 64 74 78 81 85 88 90 94 93 96 97 98 98 96 94 94 93 90 87 81 77 74 69 62 56 48 38 31 28 27 29 32 34 35
34 43 45 48 53 54 58 60 60 61 62 64 68 71 73 73 74 79 77 79 78 83 89 91 95 98 98 98 98 98 97 96 94 92 90 90 89 87 82 78 71 63 56 46 35 30 27 28 30 32 34 35 36 36
51 53 56 58 58 59 63 69 72 73 75 79 82 84 85 84 84 86 91 92 96 98 96 98 98 98 98 98 97 95 94 94 94 94 93 89 83 75 68 60 49 40 35 30 27 27 29 31 32 34 36 37 38 40
66 67 66 66 67 73 76 77 80 82 85 87 89 90 91 90 91 91 93 95 95 96 98 98 98 98 98 98 98 97 96 95 90 82 72 63 53 47 44 41 37 30 28 28 29 31 32 33 34 36 38 40 42 41
76 75 76 78 81 83 84 87 88 90 91 91 91 91 93 93 91 91 92 93 94 95 96 96 96 95 94 91 87 79 68 58 51 47 45 45 45 43 38 33 29 28 29 30 31 32 33 34 37 40 42 42 41 42
69 66 70 70 72 75 76 77 76 78 77 79 80 80 80 79 79 78 77 77 75 74 73 70 68 67 66 61 55 50 47 46 45 46 48 47 43 36 30 28 28 28 28 29 32 36 39 42 43 43 42 41 42 44
62 58 56 53 54 55 58 59 64 66 67 69 69 68 67 67 65 63 62 62 62 63 62 62 63 61 58 55 53 51 51 52 52 52 46 40 32 28 29 29 31 33 38 40 42 43 43 43 42 39 38 39 42 45
49 48 48 48 49 51 52 53 55 56 55 56 56 55 55 56 59 58 59 60 62 65 64 61 60 58 56 56 58 59 58 54 47 39 33 30 30 32 35 39 42 44 45 45 44 44 44 42 39 37 38 40 44 48
50 49 47 47 48 49 50 47 45 46 50 52 53 54 57 60 63 63 63 64 66 65 64 62 61 62 63 63 60 53 45 39 35 33 33 35 39 42 44 45 45 46 47 48 47 45 41 38 38 39 41 44 46 49

GFSWCAN_prec_cthk_006.txt.gz
RH
86 92 99 97 98 95 95 90 83 77 75 71 63 58 53 52 53 55 50 50 50 43 40 39 33 30 29 38 42 41 42 40 40 45 47 40 45 37 36 35 39 40 44 50 45 53 50 28 33 37 36 34 34 36
98 93 95 95 96 90 86 80 78 73 67 61 58 54 52 52 53 52 49 51 41 42 52 43 34 30 28 32 40 40 38 36 39 43 44 44 49 47 42 42 38 40 37 38 36 35 32 33 34 35 36 36 37 39
98 98 96 92 90 88 84 76 70 66 61 57 55 54 53 52 50 50 58 55 45 55 56 51 42 33 30 38 39 44 43 42 44 45 44 46 53 47 51 43 39 36 35 37 37 33 34 36 36 37 38 39 41 44
96 94 91 88 84 83 84 82 75 69 65 60 56 52 51 50 51 47 50 53 53 61 66 53 42 43 44 46 44 40 43 48 47 44 45 47 48 41 46 41 41 36 38 38 37 35 36 35 38 41 46 50 55 59
92 90 88 87 85 84 82 77 74 71 68 63 54 49 47 46 47 50 55 71 69 69 61 50 45 49 48 45 48 53 48 47 49 46 44 44 42 45 45 43 43 36 39 41 40 37 40 43 50 56 61 65 67 68
90 86 82 82 81 78 80 81 76 66 58 51 49 47 44 43 49 59 73 76 82 81 74 70 64 63 59 60 65 57 46 45 41 40 43 40 39 39 48 45 36 34 37 40 42 46 53 59 64 67 70 70 70 70
88 84 79 78 83 77 77 76 74 65 59 55 49 47 46 53 65 72 87 72 79 80 73 82 83 77 72 68 64 57 50 45 43 41 42 40 38 40 46 46 44 44 48 53 56 57 58 61 66 67 69 72 75 77
85 81 78 77 79 81 76 69 70 76 80 75 72 72 78 80 80 74 68 64 65 65 60 74 76 76 69 66 62 58 54 47 43 42 41 43 48 52 57 55 56 57 58 58 58 60 63 64 70 75 78 81 86 89
82 78 78 76 81 76 84 72 75 77 77 79 82 81 82 82 84 83 79 74 70 63 61 57 68 75 72 68 67 65 55 50 46 49 54 58 64 64 61 60 60 61 63 64 64 67 72 78 82 84 86 90 92 93
89 85 83 81 81 82 84 79 76 78 76 74 67 63 69 74 75 73 72 70 65 61 58 61 57 54 52 53 50 49 51 59 65 67 68 69 70 65 63 64 64 66 68 73 78 80 85 88 91 92 93 94 94 91
93 92 91 90 90 89 84 78 78 78 76 74 76 77 73 65 63 63 66 65 64 62 58 56 58 56 55 57 61 66 72 75 74 73 76 76 71 67 74 79 80 81 83 86 88 89 88 88 87 86 86 85 85 84
95 94 92 90 92 91 93 88 81 80 82 81 80 80 77 75 72 73 74 71 67 69 66 68 66 66 68 72 77 78 80 81 83 78 80 77 68 76 83 86 88 86 84 84 82 80 80 80 81 80 80 78 74 70
93 94 95 93 90 93 95 93 89 85 83 81 79 77 76 78 81 81 79 78 76 76 78 80 79 79 78 79 82 83 83 84 78 81 80 76 80 89 91 91 89 85 85 82 80 76 74 73 71 66 60 57 58 59
96 96 96 95 92 90 91 95 93 91 89 89 90 91 89 90 85 82 79 79 81 81 82 82 82 82 84 85 85 85 86 88 90 89 87 88 93 95 93 90 88 87 82 77 74 76 73 67 59 57 57 54 51 53
88 89 92 93 96 97 96 96 96 92 92 94 93 96 93 88 87 86 86 84 81 80 79 81 83 84 86 89 91 94 96 94 89 87 93 95 97 96 94 89 88 81 77 79 77 68 57 57 57 55 51 48 44 43
73 79 85 91 92 93 97 97 96 96 97 97 96 96 94 91 91 90 88 88 89 88 90 91 91 94 95 97 97 98 98 94 93 95 97 97 96 94 91 87 87 78 67 66 60 60 58 53 49 44 43 47 47 46
65 65 67 72 79 87 88 90 83 91 96 97 98 98 98 97 98 98 98 98 98 98 99 98 98 98 98 97 97 96 97 98 98 96 93 88 86 83 78 70 70 68 58 56 57 57 56 54 52 54 56 55 54 52
54 56 54 60 62 61 63 67 73 78 87 87 91 94 92 92 93 94 93 93 93 94 95 96 94 97 96 94 91 90 86 84 82 79 75 70 67 65 62 60 56 55 60 63 62 62 62 59 58 57 58 58 57 55
29 32 41 45 43 40 45 51 56 66 74 75 80 80 78 77 75 72 69 66 64 62 63 63 66 65 69 69 68 64 61 56 55 57 57 57 54 56 59 64 67 65 65 66 67 65 63 63 64 64 64 62 60 57
19 19 19 21 25 31 40 43 46 52 58 61 61 60 59 59 58 57 53 50 48 46 44 46 49 49 48 48 49 50 50 49 50 54 58 58 60 64 67 69 70 70 71 73 70 70 73 74 72 68 64 60 56 51
8 9 10 11 16 22 32 39 40 45 49 52 52 52 49 47 47 46 45 44 43 41 42 45 47 49 48 47 48 51 53 56 61 63 64 65 69 74 76 76 75 77 76 78 81 83 79 72 68 64 60 56 50 44
11 8 7 7 11 17 24 28 30 29 32 33 33 32 33 32 33 36 39 43 47 49 49 50 53 57 58 57 57 59 61 64 68 69 73 78 79 80 82 84 84 84 86 86 83 77 74 70 66 60 54 48 42 35
10 9 10 12 14 20 27 29 30 30 31 31 32 33 36 36 38 34 40 45 48 50 51 53 56 62 65 68 69 69 70 78 83 85 85 87 87 89 90 92 92 90 86 82 78 74 70 66 59 53 44 36 31 30
11 11 14 20 24 31 30 33 35 35 35 36 39 43 45 46 46 48 49 51 54 56 61 63 63 63 65 70 73 76 85 90 98 96 94 96 97 97 95 93 89 84 81 78 76 71 65 56 44 35 31 30 30 31
17 27 26 32 34 36 39 44 46 45 48 49 51 52 54 55 55 57 60 61 62 62 66 71 76 79 85 87 89 93 97 98 98 98 97 97 96 93 89 87 84 81 77 72 64 52 41 34 31 29 29 30 31 32
35 42 41 43 46 48 49 53 54 55 54 56 60 62 64 63 64 66 67 71 74 75 80 84 81 89 97 95 97 98 98 97 95 93 93 92 92 89 85 81 74 66 55 47 41 35 29 28 28 29 31 34 35 36
45 50 52 51 51 51 55 59 61 62 65 67 68 70 71 70 72 75 76 77 79 82 84 86 92 96 96 97 97 96 96 96 97 96 92 87 79 70 59 54 51 47 41 32 28 27 28 28 28 30 32 37 39 39
61 61 59 59 60 62 67 70 72 73 74 77 78 81 83 84 85 87 86 86 87 89 91 94 96 96 97 98 97 96 94 88 78 68 58 52 48 49 47 45 40 34 29 28 28 27 27 28 30 34 38 41 41 41
72 68 69 71 73 75 76 77 77 78 78 78 76 75 77 79 78 78 78 78 78 79 79 79 79 79 78 77 75 68 60 54 49 46 46 47 48 48 47 41 35 30 29 28 28 29 33 37 40 42 42 43 43 40
64 60 64 61 61 63 64 65 66 66 67 69 71 72 73 76 75 74 75 75 75 75 73 71 69 69 68 64 58 54 52 51 51 52 53 53 51 47 41 35 33 32 33 34 38 41 43 44 43 45 45 44 40 38
50 45 45 43 42 44 46 47 49 51 53 57 61 64 65 65 64 65 65 65 65 64 65 67 68 65 62 59 56 56 59 60 59 54 50 46 42 39 38 38 39 40 41 42 43 44 43 44 46 47 44 39 39 41
48 49 48 46 46 44 43 44 46 48 49 50 52 52 54 58 60 60 63 65 67 69 70 69 66 64 63 65 66 64 59 52 47 44 43 44 44 45 46 47 46 46 45 45 45 44 45 46 47 45 42 42 43 45
44 43 42 43 43 44 45 44 44 46 49 51 54 57 61 64 66 67 68 68 68 68 67 66 67 69 67 63 57 52 50 48 47 45 43 42 43 44 44 43 43 42 42 41 41 43 46 47 47 45 42 40 40 42

GFSWCAN_prec_cthk_009.txt.gz
RH
55 50 52 58 62 68 65 64 77 89 95 97 95 93 85 82 76 83 82 60 58 57 55 43 38 38 36 42 54 49 45 43 40 42 47 42 45 39 37 35 37 38 43 50 47 56 50 27 28 32 38 33 34 35
66 73 84 80 81 85 84 93 92 91 89 92 92 83 84 78 74 77 78 55 53 52 57 40 40 36 38 41 47 47 39 38 35 38 45 48 48 46 39 43 36 41 37 42 35 39 37 30 30 34 34 33 35 37
90 93 98 92 92 98 90 94 92 88 90 87 82 77 74 71 68 71 75 55 54 54 55 50 42 41 32 31 41 47 46 42 38 39 41 47 51 45 50 42 40 36 34 34 33 33 35 35 34 35 36 38 40 42
98 98 98 97 96 97 97 94 84 85 85 78 73 70 68 65 65 77 81 59 55 49 51 62 48 44 33 30 31 43 44 39 38 44 50 51 53 43 46 43 40 38 37 36 36 33 35 37 39 43 40 45 50 55
98 98 97 97 95 93 89 87 83 79 75 70 66 62 59 60 64 79 66 52 46 46 60 62 53 46 38 32 35 39 42 47 46 55 55 53 46 43 44 43 41 38 37 41 41 40 37 40 46 47 52 59 63 64
98 97 95 93 93 90 87 82 76 72 69 66 61 59 58 59 64 73 63 56 49 52 72 67 59 48 46 45 48 52 54 54 53 57 56 50 42 42 48 42 40 37 35 36 36 40 43 48 56 57 58 59 59 59
94 94 94 92 94 91 84 75 69 65 63 62 61 60 60 62 66 66 64 51 56 73 73 69 62 55 57 56 56 56 54 58 61 56 54 46 40 40 46 41 42 39 41 45 49 52 59 58 60 60 62 63 66 70
90 89 88 87 91 93 86 81 75 71 66 63 62 62 64 69 68 70 59 58 72 89 86 72 69 65 58 60 61 63 74 71 67 57 51 48 43 46 46 46 47 50 53 55 55 58 60 62 65 69 72 75 78 81
91 89 88 86 87 90 87 84 82 72 63 61 60 61 65 70 73 65 82 87 93 87 80 83 80 79 74 77 78 79 76 74 62 56 53 50 52 54 52 57 59 61 63 65 65 65 67 70 73 77 83 87 85 86
93 91 88 83 78 83 79 76 76 76 71 67 69 70 70 74 79 79 90 86 83 78 71 75 82 84 84 83 83 82 77 73 68 60 57 59 61 58 62 67 71 70 72 75 76 77 80 83 87 88 86 83 82 82
89 91 90 86 80 78 79 78 78 76 77 75 75 81 82 85 87 87 89 81 77 74 69 68 68 72 76 80 81 79 71 65 65 63 66 69 67 65 74 77 73 73 76 78 82 86 88 87 86 82 81 80 78 73
86 89 90 88 85 84 81 80 75 73 75 79 83 88 87 84 82 81 83 80 79 78 74 72 70 66 64 63 61 61 63 64 70 67 75 71 71 76 77 77 78 81 82 84 84 84 85 84 83 78 72 67 61 51
89 88 85 87 88 88 83 83 81 83 76 75 76 75 77 80 86 81 80 79 75 71 70 67 65 64 64 63 68 72 77 83 78 83 76 73 74 76 81 88 91 90 88 85 84 81 77 71 65 61 56 48 44 42
84 86 86 85 85 84 85 86 84 83 83 84 87 88 91 90 83 80 78 78 79 80 78 76 77 80 82 83 86 87 88 87 87 86 78 76 82 88 93 94 93 91 86 82 79 74 69 62 56 49 45 42 41 40
87 87 87 85 87 88 93 95 92 89 91 96 96 98 95 93 89 86 85 85 85 84 84 84 84 83 86 89 88 89 91 92 86 82 84 88 93 97 98 97 93 86 84 83 80 72 62 55 51 46 41 38 38 39
84 86 85 86 88 91 91 93 92 94 98 98 97 96 96 96 92 92 92 91 91 91 89 87 87 87 88 88 89 90 91 87 89 92 94 98 98 98 94 92 92 88 80 79 70 59 55 51 49 45 45 45 46 49
70 73 85 88 88 90 93 94 94 95 97 96 96 97 96 95 95 94 94 94 92 91 90 91 92 94 95 97 97 96 97 97 98 98 98 98 97 96 93 90 80 74 69 60 52 54 54 55 55 53 52 53 54 55
54 56 65 71 78 82 81 84 86 89 96 97 97 96 97 97 97 98 97 98 98 98 98 98 98 98 98 98 98 98 98 98 96 95 90 88 88 83 77 70 66 61 54 55 61 61 62 62 59 59 59 63 64 63
38 49 54 54 52 56 64 72 78 91 95 96 95 95 94 93 91 90 87 87 87 88 90 91 93 92 95 94 93 90 87 82 77 72 66 62 58 59 60 58 57 62 66 65 66 68 67 62 64 67 68 64 62 65
21 22 25 27 30 39 52 61 67 72 81 83 85 81 78 75 73 71 68 64 63 59 61 64 67 67 64 61 60 57 56 55 53 54 55 56 58 60 62 64 66 69 72 73 71 69 72 75 76 71 66 64 68 67
14 14 15 16 20 27 38 44 51 60 65 66 65 64 61 59 56 54 53 52 50 55 57 57 55 54 52 49 51 53 55 57 59 56 58 60 62 65 68 71 73 75 76 77 79 78 77 77 75 72 68 71 63 65
11 12 11 10 14 19 27 35 38 40 42 42 41 43 42 42 39 37 40 42 46 47 48 49 50 50 51 53 54 56 60 63 64 66 67 69 71 73 77 79 80 83 84 82 81 82 83 79 75 70 66 64 62 53
8 7 9 12 15 21 28 30 28 32 34 33 39 39 41 41 38 40 42 45 48 49 49 49 49 51 54 59 62 65 67 70 71 71 75 84 89 92 94 96 95 92 90 88 86 83 80 75 71 65 62 51 42 38
11 12 16 23 26 30 30 33 32 32 34 37 40 45 45 46 45 46 49 50 52 51 51 52 56 58 59 60 63 67 70 76 77 80 88 98 98 97 97 98 95 90 87 84 81 77 74 67 53 46 41 38 35 33
18 28 29 32 35 36 41 43 43 44 47 46 49 50 50 51 52 53 56 57 58 58 60 60 64 64 68 74 77 84 87 90 93 98 98 97 96 95 92 89 86 83 78 73 65 55 48 40 35 34 32 33 33 33
35 40 39 41 43 43 45 47 48 49 49 52 54 55 57 57 58 61 61 63 65 65 66 67 68 72 75 77 83 89 93 97 97 96 95 93 91 89 84 78 71 65 54 50 45 38 33 31 29 30 34 34 34 35
42 45 46 46 46 46 49 53 54 56 58 61 62 64 64 66 68 70 72 72 73 74 75 76 78 80 82 84 86 88 91 93 94 94 89 82 74 64 54 51 50 48 44 40 34 30 29 31 34 37 38 38 40 42
53 55 53 56 56 57 60 63 66 68 70 71 71 73 74 74 76 77 78 76 74 74 74 75 75 77 79 81 83 85 87 84 76 67 58 52 48 47 48 48 46 44 38 33 32 33 35 37 42 42 42 43 45 47
61 60 61 61 62 64 64 65 66 66 67 67 68 67 68 70 71 71 72 73 73 73 73 74 74 75 76 76 75 71 65 60 60 54 54 57 60 59 52 45 40 35 34 36 40 42 44 44 44 45 44 46 48 48
57 53 50 48 48 52 53 53 54 55 54 54 56 59 63 66 68 68 70 71 71 71 72 72 71 70 69 69 67 60 58 58 59 61 61 58 53 44 39 38 39 42 44 47 48 48 48 47 47 48 49 50 49 46
47 45 45 43 44 45 44 43 43 44 46 49 51 54 56 60 61 63 64 64 63 63 64 65 66 67 67 65 64 66 72 67 62 56 49 42 40 41 47 45 45 41 37 36 37 39 41 41 45 47 47 47 47 46
42 42 41 41 46 41 40 42 43 44 46 47 49 51 54 57 58 59 61 64 67 69 70 70 72 67 68 69 69 67 61 54 48 45 45 46 45 43 38 34 34 34 36 36 36 38 41 40 43 46 47 47 44 43
42 42 41 42 41 42 45 43 45 45 46 48 51 55 59 62 64 67 68 68 69 69 67 68 71 73 71 67 61 55 51 50 50 47 41 35 33 34 36 37 39 39 40 40 41 43 44 45 46 46 45 45 45 45

GFSWCAN_prec_cthk_012.txt.gz
RH
85 81 74 72 71 77 77 72 78 85 84 68 73 94 93 90 83 74 74 85 97 80 70 63 57 49 50 64 59 56 54 47 46 44 45 42 47 42 38 36 39 41 48 54 54 63 56 30 29 33 40 37 32 33
67 67 66 62 66 67 65 71 78 83 72 60 80 86 94 85 80 78 91 97 89 91 68 62 62 52 46 57 61 53 43 43 39 38 40 46 50 51 41 44 36 43 38 46 41 45 37 33 32 31 33 34 34 35
59 61 61 60 59 64 73 79 79 65 56 63 87 91 94 94 84 73 84 83 96 80 76 64 65 54 41 46 58 65 50 51 44 41 40 45 49 43 48 43 40 39 36 38 36 29 35 36 36 34 38 37 40 40
65 58 57 62 65 70 72 67 60 62 73 79 84 92 94 88 83 98 95 93 82 76 71 73 57 47 36 38 47 54 56 53 45 44 44 45 48 42 50 45 47 40 39 36 36 34 35 37 42 44 40 40 44 49
82 86 86 88 83 80 79 84 85 85 90 94 89 94 90 86 80 95 96 96 89 58 53 62 60 45 36 33 34 46 53 49 49 48 47 50 46 50 52 45 43 37 38 41 44 42 38 40 44 42 44 47 51 56
97 96 98 99 97 88 92 97 95 89 88 91 95 90 87 83 86 98 96 87 73 55 51 56 60 53 42 38 35 36 41 44 50 49 52 48 49 51 55 50 38 40 38 38 40 38 39 42 41 44 50 54 57 59
97 99 99 92 86 89 88 90 93 94 92 88 88 85 84 85 85 95 90 77 68 53 50 67 59 60 57 48 46 45 45 50 53 49 53 51 52 56 52 46 42 40 38 36 37 42 50 51 52 55 58 62 65 66
98 98 97 96 91 88 86 85 84 83 84 84 85 86 86 84 89 91 83 80 62 55 54 75 75 67 62 60 56 52 58 57 60 60 61 60 58 60 53 45 44 42 44 46 49 52 55 59 62 67 70 73 74 76
97 95 94 92 86 83 81 82 82 80 80 81 81 81 86 90 88 89 84 76 62 54 71 92 77 75 65 64 59 63 66 68 60 59 61 62 66 60 55 50 47 50 57 59 59 61 65 70 74 76 79 80 83 84
93 94 94 90 86 84 80 79 80 81 78 77 80 82 91 90 88 86 81 72 62 65 86 91 80 73 66 66 68 66 66 69 68 80 82 73 67 58 57 55 58 62 66 67 69 70 75 76 79 82 85 87 84 80
88 89 90 90 89 89 84 80 80 79 80 81 82 88 89 91 89 88 81 73 69 84 85 88 88 82 75 73 71 75 78 84 86 80 78 74 71 60 59 61 67 70 74 77 75 76 78 83 87 89 87 84 79 73
92 88 84 84 87 88 90 85 80 81 81 79 79 85 91 90 90 89 88 83 95 95 86 84 86 87 90 90 94 96 93 88 86 78 78 71 67 64 66 73 78 79 78 76 78 83 88 90 88 86 79 71 65 59
92 93 92 91 84 83 84 85 82 78 73 77 77 81 86 90 92 90 94 96 90 86 83 78 77 77 78 79 81 80 83 83 73 75 68 67 66 71 80 83 81 79 82 84 87 89 86 81 77 73 69 65 61 47
90 89 90 92 94 89 89 86 83 82 81 82 85 93 96 94 95 89 89 88 84 81 81 78 75 75 76 76 77 75 78 74 77 75 68 74 80 84 86 84 84 88 89 88 86 81 79 78 76 71 64 59 44 36
82 81 83 87 89 91 93 90 85 82 86 93 94 97 96 95 90 89 89 87 85 86 85 80 77 79 83 84 83 82 84 86 81 82 82 82 84 87 89 93 95 94 91 86 83 80 80 77 69 63 52 42 37 36
83 82 82 84 84 85 85 88 90 93 97 98 97 98 96 94 94 93 91 91 90 91 87 86 86 89 92 93 93 91 92 89 87 87 87 88 91 94 96 98 95 90 93 90 83 78 72 67 61 53 47 43 43 45
70 78 80 83 84 84 86 90 95 97 98 97 97 98 98 98 96 95 93 93 94 92 93 94 95 96 95 96 95 94 92 91 91 94 96 97 98 97 96 95 91 89 87 80 70 68 66 59 56 54 53 53 53 55
58 66 70 74 74 74 82 88 91 94 95 96 97 98 97 97 98 98 98 98 98 96 96 97 97 98 98 98 97 97 98 98 98 97 96 95 92 91 88 85 84 79 75 70 60 60 62 62 61 62 60 61 63 64
47 50 51 52 56 61 72 84 94 97 98 98 98 98 98 97 96 94 96 94 94 96 95 96 97 97 98 98 98 97 95 93 91 88 85 83 81 79 75 74 74 70 64 63 65 65 66 67 66 65 64 64 65 66
21 24 26 31 35 45 62 77 85 92 97 97 97 97 95 94 91 87 84 86 83 82 85 90 93 93 91 88 84 81 78 78 77 75 72 72 72 72 67 62 63 65 67 69 71 73 71 71 71 68 67 67 68 67
15 15 16 17 21 33 47 56 66 82 89 90 86 80 79 78 78 76 73 67 65 73 75 77 77 76 76 75 75 74 72 70 70 68 65 64 63 65 67 69 69 69 71 73 75 77 76 74 73 70 68 71 67 67
9 11 12 13 17 24 34 42 48 50 55 57 58 53 54 56 53 56 56 52 59 62 62 62 62 61 59 58 60 59 61 64 66 66 65 66 68 70 69 71 77 81 84 86 86 86 85 81 76 71 71 70 67 60
8 7 9 12 14 20 28 30 29 35 34 38 41 40 42 40 43 44 45 48 50 50 50 49 48 47 46 47 51 56 62 65 66 68 73 76 74 75 77 86 88 91 95 93 90 86 83 79 79 71 64 52 45 41
11 13 17 24 26 30 28 31 33 37 38 39 40 43 44 44 43 43 47 49 51 51 50 50 50 51 52 52 55 58 60 64 67 75 75 77 80 82 86 90 97 97 92 90 85 81 76 64 52 47 43 39 38 36
17 28 29 33 34 36 38 40 42 41 43 45 48 50 50 51 51 52 55 56 56 56 56 57 56 57 59 60 62 63 68 71 76 81 87 90 94 97 96 93 90 86 81 74 64 56 50 46 41 37 35 36 36 37
34 39 37 38 40 40 43 45 47 48 48 49 53 53 56 55 58 60 62 62 62 62 62 63 63 65 67 69 72 75 76 78 80 83 86 87 87 90 92 89 82 71 59 56 52 46 41 37 35 36 37 38 41 45
43 42 43 42 43 45 48 49 52 53 56 61 60 59 60 65 65 69 70 70 70 71 72 73 73 73 73 74 74 76 78 80 82 84 83 82 79 75 67 58 54 53 49 44 39 34 32 34 38 40 43 47 50 50
49 52 51 52 52 54 57 58 61 66 67 69 69 70 70 71 73 74 73 73 72 71 70 70 70 70 70 71 72 73 75 74 72 69 67 65 59 55 57 56 52 47 41 37 36 37 40 43 45 48 48 44 40 41
54 55 54 54 55 57 61 59 60 62 63 63 63 64 65 68 68 69 69 70 69 70 70 72 71 70 70 70 70 69 65 63 63 59 61 64 66 63 59 49 45 42 41 41 44 46 48 48 44 39 36 36 37 39
46 45 44 45 49 51 51 51 52 49 48 48 48 50 53 57 60 62 63 64 65 66 67 67 67 68 68 68 69 65 61 62 63 63 62 61 57 49 45 48 45 45 47 48 49 46 42 37 34 36 39 39 40 41
49 45 47 46 49 45 44 42 42 41 42 44 47 49 51 53 55 56 58 60 61 61 62 64 66 69 68 66 66 68 72 67 64 59 53 49 47 47 52 50 52 51 47 41 38 36 36 37 39 40 41 42 43 44
40 40 39 41 47 42 40 44 45 46 50 49 46 47 52 53 55 57 60 63 66 68 70 71 72 70 69 68 66 65 60 54 50 49 49 49 49 46 42 38 36 38 37 38 39 41 42 42 43 44 45 46 47 47
41 40 41 40 44 47 43 42 48 48 48 51 53 58 60 61 63 64 65 67 69 70 69 68 69 69 67 65 60 54 52 51 45 41 39 37 37 36 36 36 38 40 42 43 44 46 47 47 48 49 50 49 51 51

GFSWCAN_prec_cthk_015.txt.gz
RH
96 84 78 72 67 76 82 90 94 96 98 91 87 77 54 63 76 79 78 75 71 81 80 70 58 59 64 58 61 58 92 68 56 54 48 46 48 44 47 44 43 41 50 54 59 61 54 31 30 31 36 34 33 33
89 82 79 75 77 76 82 88 94 98 95 97 84 63 49 77 85 85 74 66 69 90 90 77 57 58 63 56 55 54 72 53 38 42 42 44 48 50 46 50 38 42 38 42 41 44 32 28 30 31 31 32 31 32
81 81 82 78 78 78 79 79 82 88 97 80 70 56 48 65 69 69 74 74 73 83 85 84 73 66 71 71 55 51 55 46 41 33 40 43 47 45 50 48 39 37 36 41 38 35 34 31 32 33 34 33 34 36
67 68 70 68 76 78 75 75 71 81 90 78 66 53 58 73 77 83 89 81 82 93 98 90 82 64 64 58 48 69 55 50 45 43 43 40 42 39 43 40 41 41 40 40 36 32 38 40 41 41 42 41 38 41
62 60 59 61 65 64 64 65 75 82 78 70 56 54 71 82 86 90 85 92 94 94 97 87 79 64 61 60 53 68 56 54 49 48 48 45 42 44 46 46 46 40 39 40 43 38 38 42 42 43 42 43 45 48
62 59 58 58 61 64 73 78 76 77 71 63 53 67 84 95 83 95 98 92 98 97 97 89 81 69 60 61 57 58 65 68 61 53 54 49 45 43 51 56 45 43 42 36 40 38 39 41 42 42 43 47 49 52
81 69 57 59 58 58 64 65 65 60 54 60 74 82 94 90 94 98 98 98 93 89 72 78 78 70 60 56 53 48 51 55 52 55 56 52 49 49 52 54 48 50 45 42 44 41 42 44 50 52 54 57 59 62
94 95 85 82 78 71 71 68 79 79 84 82 84 91 92 88 76 80 86 90 93 83 74 79 73 71 66 64 60 48 46 51 60 57 55 54 53 54 55 49 51 49 47 43 42 44 51 57 61 66 67 67 71 77
97 99 95 89 90 83 85 85 85 81 79 88 89 95 97 98 97 98 88 89 84 75 76 77 76 73 71 68 64 62 57 56 55 58 60 56 61 61 56 54 57 55 48 47 51 57 62 67 72 74 73 75 78 82
94 98 94 91 93 93 88 84 80 82 77 81 85 95 98 93 84 82 81 79 77 73 62 65 70 81 72 70 70 68 65 65 64 60 61 64 64 67 62 61 61 58 56 56 61 67 70 75 76 74 76 80 83 84
97 94 93 90 91 94 94 93 94 94 95 95 90 82 81 88 85 81 82 81 72 70 60 59 81 92 84 82 76 74 73 71 70 69 71 76 73 66 76 78 74 67 65 65 69 74 75 77 81 83 86 88 87 82
97 97 96 94 92 92 92 94 94 93 93 89 87 87 80 82 77 78 78 76 71 72 62 69 78 98 92 84 85 85 81 79 82 78 79 74 71 71 75 75 74 73 75 77 79 81 83 84 85 86 84 80 78 75
93 98 97 98 96 95 95 97 93 92 89 83 81 84 85 87 89 84 84 80 77 72 69 76 90 96 95 91 92 92 92 90 85 88 83 84 86 83 80 78 77 78 82 86 87 86 85 87 85 83 81 78 74 70
91 90 94 98 99 98 94 96 93 90 83 81 85 94 94 98 93 90 81 85 84 84 89 91 94 93 94 93 93 93 96 93 95 93 88 86 85 82 79 81 84 86 89 88 88 87 85 82 80 80 78 75 70 63
86 86 89 88 90 91 92 91 89 85 82 85 86 93 92 90 89 86 87 90 87 86 88 89 90 89 90 90 89 88 89 88 82 83 82 84 88 91 89 89 87 89 91 90 89 82 83 84 83 81 77 67 57 51
79 79 83 89 91 91 89 87 86 85 90 90 87 87 85 85 89 89 92 93 94 94 93 93 93 92 92 92 91 93 93 90 88 90 92 93 94 94 95 94 96 98 97 90 85 86 86 87 83 71 62 58 53 48
78 78 79 84 86 87 87 88 92 97 98 97 97 96 97 95 94 96 96 97 97 96 95 96 96 97 97 98 97 95 94 95 95 95 96 95 94 95 95 96 95 95 94 89 84 85 87 81 69 66 63 57 54 56
71 74 76 80 84 84 86 91 95 96 97 98 97 98 98 98 98 98 98 98 98 98 98 98 98 98 98 98 98 98 98 98 98 97 94 92 91 91 93 93 92 91 89 86 82 79 76 72 71 66 62 59 58 60
48 53 54 56 62 77 83 90 91 96 97 97 97 97 97 97 98 98 98 98 98 97 97 97 96 97 97 97 98 98 97 94 92 90 90 89 89 88 89 89 88 87 84 79 77 77 76 72 70 68 65 66 64 62
24 27 30 33 38 58 78 91 92 94 98 98 97 97 97 98 96 93 90 88 87 87 91 96 97 97 97 97 96 95 92 90 90 87 86 85 84 85 87 85 83 81 80 79 76 73 74 75 76 73 70 72 69 67
16 17 19 21 29 41 60 73 91 96 97 96 91 90 92 91 89 83 79 74 72 83 86 91 92 92 91 90 90 89 87 85 84 87 86 82 79 79 79 79 77 74 74 75 77 79 81 82 78 76 74 77 77 74
11 11 12 14 19 30 43 52 58 65 73 74 69 69 73 76 77 75 69 69 76 79 79 80 79 78 76 75 76 77 76 78 78 78 81 81 81 78 75 77 77 77 76 78 83 87 84 80 78 77 80 79 72 63
8 8 10 12 14 19 27 30 31 37 46 49 46 48 50 51 54 51 53 57 61 62 61 59 58 57 56 55 53 53 57 61 65 66 68 74 76 76 76 80 85 80 83 87 86 85 85 86 84 81 73 60 50 45
9 13 17 22 24 28 27 31 34 34 33 37 38 42 43 44 44 44 51 53 56 55 55 54 52 53 53 54 54 56 58 61 63 65 68 70 72 77 80 81 85 88 89 87 86 85 84 78 67 57 51 45 41 41
17 29 28 32 33 33 36 38 40 40 44 43 45 47 48 48 49 52 55 58 58 58 59 59 59 59 60 61 61 62 63 65 66 68 72 75 77 79 81 83 84 83 80 79 79 73 64 59 54 47 41 38 38 38
37 40 39 38 41 42 43 44 45 47 47 48 52 53 51 58 58 61 63 64 64 64 64 65 66 67 68 69 70 71 72 74 74 74 76 78 79 80 81 80 78 77 73 66 59 52 46 39 35 34 35 39 43 44
46 46 47 45 46 46 47 48 48 50 56 61 59 60 64 70 69 71 72 73 74 75 74 73 73 73 73 72 72 72 71 70 69 68 66 66 65 64 64 63 60 56 52 49 44 38 36 37 39 41 43 46 48 48
52 54 52 52 51 52 55 56 58 61 64 65 70 70 70 71 74 73 73 72 72 72 72 71 71 71 72 73 73 72 71 70 70 68 68 66 66 65 63 59 57 53 48 42 40 40 42 45 46 46 46 47 46 45
48 45 44 42 40 44 51 53 57 59 58 57 57 58 60 60 62 63 64 64 65 64 66 67 66 66 66 66 65 62 62 63 62 61 64 66 67 65 59 53 48 46 44 44 46 47 50 51 51 50 46 41 38 37
41 41 40 39 45 51 48 47 46 45 45 44 45 48 51 53 55 56 57 59 60 61 62 63 64 63 62 64 67 66 67 67 66 64 63 59 53 49 46 46 45 45 46 47 47 45 42 39 37 38 38 40 41 42
39 39 42 46 47 45 43 43 42 42 45 45 46 47 51 52 53 55 57 59 59 59 62 65 66 66 66 66 67 67 68 65 60 55 51 48 47 46 46 45 43 42 40 39 39 40 40 42 43 44 44 46 47 47
37 36 36 42 43 39 40 41 43 51 51 51 51 50 54 56 58 58 62 64 65 65 67 69 70 70 69 67 65 62 58 54 52 50 47 42 39 38 36 35 36 38 41 44 47 49 51 52 54 54 54 56 57 57
41 40 39 40 46 46 44 40 52 53 56 59 61 63 65 67 69 69 71 71 71 70 71 72 72 71 71 66 59 53 48 44 40 37 34 34 35 38 41 45 47 50 53 56 59 60 61 63 64 64 64 65 65 64

GFSWCAN_prec_cthk_018.txt.gz
RH
96 94 93 93 90 87 83 79 72 68 63 59 59 55 62 66 66 56 74 83 85 86 76 69 45 38 42 40 53 56 64 66 68 66 65 60 55 53 46 38 37 41 52 60 62 62 50 36 36 37 36 36 34 33
94 93 95 92 84 76 69 66 62 59 59 58 55 56 65 65 66 61 76 65 86 91 91 87 59 42 40 38 54 65 57 62 62 61 61 62 62 49 42 51 42 38 36 42 42 41 33 28 29 29 29 29 30 32
84 81 79 76 77 72 71 74 72 67 74 67 61 74 82 68 63 79 91 77 66 74 94 89 74 49 44 48 59 67 60 59 67 66 67 62 51 39 44 43 39 36 34 38 37 34 34 31 30 29 29 30 32 34
85 77 73 73 79 81 87 85 82 83 79 83 89 93 84 72 56 87 91 87 79 98 94 88 81 61 48 58 71 70 67 58 66 65 65 53 43 35 41 36 38 35 37 38 42 42 38 37 35 35 36 37 38 38
82 81 80 77 80 83 88 87 87 89 91 97 97 91 76 65 58 90 96 88 77 94 84 95 89 72 64 65 85 66 69 60 57 67 60 51 43 40 40 38 36 33 36 39 41 36 36 40 40 42 41 43 45 45
78 78 77 80 79 79 81 81 93 96 91 86 87 82 66 57 61 80 89 85 76 75 94 98 89 84 81 83 83 74 83 68 66 63 65 52 44 36 39 43 34 35 36 34 38 37 37 41 44 45 44 46 49 51
58 63 70 75 69 68 69 73 87 93 89 88 82 71 65 65 87 95 93 72 83 80 91 95 98 88 84 73 73 70 78 72 84 80 69 59 54 48 45 46 39 41 41 42 40 38 43 43 45 46 49 53 58 62
55 59 59 60 59 61 68 80 86 88 83 80 71 63 67 83 92 87 86 86 81 82 80 82 97 96 94 89 85 88 79 75 84 83 74 67 64 57 53 46 47 48 46 48 47 46 47 51 50 54 59 64 69 71
50 48 53 54 58 66 79 81 79 77 70 60 61 79 94 87 84 91 97 97 97 98 98 85 90 98 93 85 80 73 68 74 77 81 78 71 72 66 55 50 49 50 51 57 55 53 53 52 56 66 71 76 79 79
73 61 54 51 49 54 61 62 66 63 56 75 82 91 87 93 98 98 99 99 97 93 89 92 95 95 85 78 77 73 71 72 70 67 65 64 68 65 64 60 61 58 62 63 58 59 59 62 72 77 82 84 84 81
86 85 78 71 65 68 62 64 67 81 87 92 94 98 96 97 97 98 98 89 89 89 82 83 80 74 73 71 73 71 72 73 73 72 68 69 66 63 64 67 65 70 67 70 68 66 72 76 81 84 87 85 84 83
90 88 89 83 74 75 77 72 77 83 86 90 93 95 97 98 97 94 93 86 85 85 77 73 72 72 79 75 75 80 77 78 79 77 74 75 71 68 68 72 82 83 79 75 80 80 81 85 88 89 87 85 80 78
91 93 89 88 87 81 80 78 85 95 96 96 94 95 91 88 92 88 87 90 88 85 76 69 66 81 95 95 98 90 87 89 84 82 81 79 77 79 83 87 87 84 81 83 86 88 90 91 90 84 81 82 84 81
91 88 89 93 95 93 92 96 94 90 91 91 93 94 88 86 88 90 85 81 81 79 75 78 76 88 91 97 99 98 96 95 96 94 89 90 90 89 89 88 85 90 90 90 93 92 92 89 88 84 82 80 78 76
90 91 90 92 94 97 96 95 91 86 81 85 86 94 91 94 90 88 87 85 83 84 89 93 92 85 92 98 98 97 98 98 92 91 92 92 90 88 89 92 94 96 96 95 90 92 90 83 83 85 83 81 77 73
95 96 92 89 87 88 91 89 85 85 87 90 90 88 88 87 89 86 86 88 92 94 92 91 89 86 93 94 94 96 89 88 90 93 93 93 93 95 97 98 98 97 93 94 91 86 85 86 86 86 84 79 74 68
81 90 91 90 87 85 84 83 85 90 92 92 93 93 96 95 93 92 94 98 97 96 93 91 91 94 96 94 92 93 93 95 96 96 97 98 98 98 97 97 97 96 95 87 86 88 90 91 93 89 82 76 72 68
76 77 81 85 88 89 88 88 90 92 91 93 93 93 93 90 92 95 92 92 93 93 95 97 97 96 96 96 96 97 98 98 98 98 96 93 94 95 94 98 99 98 94 90 90 93 94 91 86 84 80 77 73 69
61 60 65 76 79 80 84 90 90 92 94 95 95 95 94 95 95 96 98 98 98 98 97 97 96 97 97 97 97 97 98 97 96 94 93 94 94 97 98 98 97 97 95 94 91 87 85 83 83 82 79 76 71 69
33 37 41 51 69 76 81 89 91 94 96 97 96 96 95 94 93 90 88 89 87 88 94 96 97 97 97 97 97 98 98 97 97 97 95 93 95 95 94 92 90 90 87 86 86 85 85 85 85 84 77 73 73 73
18 20 29 36 56 75 87 93 94 93 95 95 95 94 95 90 86 84 82 81 83 93 96 97 97 97 97 97 97 97 98 98 97 93 91 89 86 84 86 85 85 85 86 86 87 88 88 85 84 81 79 78 76 76
10 13 15 18 28 44 60 72 78 85 87 85 80 81 83 87 86 81 78 80 89 94 94 94 95 95 95 94 94 92 91 90 89 88 88 86 90 88 90 93 92 90 88 85 89 88 88 87 84 82 82 79 77 75
8 8 11 14 15 25 37 42 42 48 55 53 51 55 64 67 67 57 63 69 73 75 74 72 69 67 64 62 61 62 64 67 70 74 76 79 81 80 80 81 81 81 84 85 88 87 84 82 80 78 76 72 69 62
8 13 18 21 22 28 27 31 32 34 37 39 40 41 44 48 44 46 56 61 63 64 65 67 66 66 66 65 64 64 65 65 65 65 66 66 67 69 72 74 76 78 79 78 76 76 76 76 74 72 66 59 52 46
17 28 25 31 32 31 35 37 39 39 41 43 44 46 49 48 49 54 57 59 59 60 61 61 61 60 60 62 63 63 64 65 66 69 71 73 74 75 75 76 76 75 73 71 70 70 69 67 60 52 44 40 38 38
34 39 37 36 41 40 42 42 44 44 45 45 50 51 53 55 56 63 64 65 66 67 68 68 68 69 69 70 71 72 72 72 71 71 71 72 73 73 71 68 65 65 62 60 60 58 53 49 45 42 39 39 40 43
44 45 45 45 44 40 44 46 48 48 53 56 57 61 64 65 68 69 71 73 75 76 76 76 75 74 73 72 71 70 70 69 69 69 68 66 65 65 65 63 60 59 57 57 55 52 48 44 42 41 42 43 46 47
51 54 52 47 46 47 51 52 54 58 60 62 64 64 65 68 71 72 73 72 72 71 70 69 69 69 68 68 67 66 65 64 64 64 64 65 65 66 64 62 60 58 56 55 52 49 46 45 45 47 48 48 47 46
47 43 39 39 37 39 46 49 50 52 51 51 52 53 57 59 60 61 62 62 63 63 63 62 62 63 63 61 58 57 59 62 61 62 62 61 61 60 57 55 54 52 50 48 47 46 47 47 45 43 42 40 40 41
40 38 36 37 38 40 43 42 42 44 44 44 45 50 52 55 55 56 58 60 61 62 62 62 61 62 64 64 64 66 65 62 60 59 57 55 52 51 50 49 47 45 42 39 38 38 40 42 43 44 47 49 50 52
34 34 36 38 38 40 40 42 43 44 46 47 46 48 50 53 56 58 59 60 62 64 64 65 65 65 65 65 63 63 62 59 57 56 54 51 46 41 37 36 36 38 40 42 44 46 48 50 54 56 59 61 63 64
33 36 38 43 46 45 44 47 52 52 53 53 54 55 59 60 64 65 68 68 68 70 71 71 70 70 69 68 64 59 54 50 44 38 34 34 35 36 38 39 40 40 41 43 46 48 49 51 54 57 60 63 64 65
41 39 42 46 52 49 48 48 56 57 59 60 61 62 65 67 69 71 72 72 71 72 71 70 68 64 58 52 46 39 35 33 34 34 34 33 32 33 34 37 40 43 45 48 52 55 58 61 64 66 69 72 73 73

GFSWCAN_prec_cthk_021.txt.gz
RH
97 98 98 97 99 98 98 98 97 97 85 71 58 52 46 54 62 76 66 65 66 66 64 62 60 48 36 40 28 35 62 68 72 72 77 79 66 57 55 48 46 54 62 58 57 60 52 37 38 36 34 37 36 41
97 98 98 98 98 97 96 94 88 77 71 63 58 49 50 64 74 76 72 70 60 72 69 58 64 48 36 33 28 41 52 59 60 68 74 79 69 60 52 56 46 47 35 37 40 40 34 31 30 33 35 36 36 34
95 95 93 90 86 81 75 71 70 70 61 61 65 65 72 74 76 67 71 74 71 79 67 50 57 63 40 34 40 42 54 60 63 61 72 76 66 58 53 51 45 39 31 34 33 31 30 29 28 27 28 29 30 32
94 94 90 86 83 79 79 78 77 71 72 70 65 66 68 73 75 70 82 81 72 71 65 53 78 88 47 39 46 42 57 61 63 66 74 76 70 59 54 53 48 30 33 34 34 33 32 32 30 29 29 30 32 34
73 77 76 74 75 75 70 62 58 60 60 60 58 56 60 69 80 76 83 86 77 83 74 78 90 85 60 43 46 47 61 63 66 73 78 75 68 63 64 58 37 31 30 34 37 33 33 34 33 32 32 36 39 41
74 73 77 78 81 80 78 76 70 73 70 68 62 61 62 70 73 90 99 83 79 93 98 98 90 78 62 49 49 54 57 65 64 70 75 67 64 63 65 62 42 34 29 28 31 35 37 38 37 38 39 41 44 47
79 80 79 82 87 84 84 79 78 82 75 65 59 70 74 81 84 94 80 63 83 98 97 89 84 79 84 72 61 60 67 66 81 83 78 65 65 64 65 64 41 36 33 34 38 41 45 41 42 43 45 46 49 53
78 81 81 84 82 80 88 88 88 96 98 96 94 98 82 72 74 73 69 83 84 88 90 82 87 97 92 82 80 72 70 96 87 83 81 77 71 68 62 48 44 42 42 44 47 48 48 48 50 52 51 53 57 62
71 74 70 68 67 70 90 94 88 88 92 97 92 79 90 86 95 94 97 90 87 86 82 82 83 93 93 96 87 83 87 98 92 87 86 82 89 77 69 65 59 55 54 56 57 59 60 60 61 59 58 59 62 69
59 61 60 62 65 75 93 95 94 96 92 83 71 88 99 87 89 93 90 90 79 79 84 85 82 86 90 95 98 95 94 95 96 95 91 87 90 85 79 74 70 68 65 64 68 73 71 70 67 65 65 67 72 81
51 51 54 61 69 76 78 80 75 71 74 75 69 74 80 89 98 96 95 94 88 91 88 95 95 79 84 96 95 95 92 93 89 89 87 82 80 79 80 77 74 69 71 74 75 73 78 74 72 73 78 83 88 91
43 48 54 55 60 60 60 65 67 72 70 61 87 83 94 97 98 98 98 98 98 97 96 96 92 86 87 94 96 92 91 85 81 81 78 74 68 67 64 62 61 64 66 70 72 74 81 81 83 86 88 89 92 91
48 46 43 42 54 73 83 80 94 90 96 99 94 88 95 98 98 98 98 97 93 89 91 92 97 97 92 94 93 89 85 84 80 80 75 67 67 69 69 68 72 76 78 80 89 96 96 88 87 89 93 91 84 83
65 63 66 60 73 73 70 82 95 93 95 97 98 98 98 98 97 97 94 91 89 87 83 79 78 83 90 94 94 88 86 85 82 80 78 76 77 80 82 84 85 91 93 93 92 93 96 95 94 89 87 86 83 80
86 80 75 88 91 84 92 95 95 98 97 98 98 98 95 91 90 90 90 88 83 81 79 80 78 74 77 88 96 98 97 96 94 90 86 87 89 93 93 95 96 97 98 98 98 98 97 95 93 90 86 84 81 78
94 93 92 89 95 94 93 98 98 95 92 92 92 95 94 90 87 88 87 86 86 87 87 90 91 84 94 95 96 98 97 96 96 96 94 95 98 98 98 97 97 97 97 97 96 96 95 92 90 87 87 84 83 82
97 93 95 95 96 96 93 91 84 83 86 90 92 90 88 90 90 89 88 87 87 89 94 91 95 98 98 96 95 94 94 97 98 97 95 95 97 98 98 98 97 96 97 97 97 92 91 91 90 91 89 88 88 86
94 95 96 95 94 91 88 92 91 92 95 96 93 92 92 91 90 90 92 92 91 93 95 96 97 94 95 94 95 97 97 98 98 97 98 98 98 99 99 98 98 97 97 94 92 92 94 95 96 93 92 91 86 81
75 83 88 92 95 94 93 92 89 92 96 96 97 97 95 97 98 96 94 94 95 95 96 97 96 96 97 97 97 97 97 97 97 95 96 97 98 98 98 98 98 98 96 96 97 96 97 97 96 91 88 84 83 82
42 50 72 78 82 81 89 93 92 94 97 97 96 92 91 93 89 85 83 83 89 93 96 96 97 97 97 97 97 97 98 98 98 97 97 97 97 97 98 98 98 98 97 98 97 97 92 87 87 87 88 89 86 82
33 36 44 57 69 74 83 92 95 96 97 97 97 96 94 90 87 86 86 88 90 96 96 97 97 97 97 97 97 97 98 98 98 97 97 97 97 97 96 94 94 91 92 91 91 91 92 92 93 91 92 91 90 83
16 22 30 43 57 69 78 86 88 92 92 92 90 87 89 88 82 79 79 81 88 95 96 97 97 97 97 97 97 97 97 97 97 96 96 97 96 95 96 94 94 95 96 96 97 97 96 94 91 89 87 84 81 78
6 7 9 12 19 34 45 51 54 57 59 61 57 60 61 60 58 53 62 71 79 83 85 87 86 86 84 83 82 81 80 82 84 86 87 90 92 90 89 89 93 96 97 95 94 91 88 84 78 76 74 72 69 67
8 12 16 18 21 29 27 31 33 38 37 39 40 42 46 47 39 43 53 56 59 61 62 64 66 67 69 69 69 69 69 70 71 72 72 72 71 71 72 72 73 73 73 71 70 69 70 70 69 67 65 63 61 58
15 25 22 28 27 26 32 37 38 36 40 41 40 45 50 43 48 54 57 59 60 62 64 64 64 64 64 64 64 65 65 66 66 67 69 70 71 72 73 73 71 69 66 65 61 61 60 59 58 58 57 55 52 50
32 37 36 34 37 36 38 39 43 46 44 45 48 50 50 48 52 59 61 63 65 66 67 69 70 70 70 70 69 69 70 70 70 68 69 68 68 66 65 63 61 60 58 58 58 57 57 56 54 52 52 51 49 49
41 42 42 43 41 41 46 46 44 46 50 53 56 58 58 59 63 65 68 71 74 75 75 75 74 73 71 69 66 65 64 62 61 60 61 61 61 60 58 56 56 56 55 54 53 52 52 52 51 50 50 52 53 52
47 48 46 44 43 43 45 47 48 51 54 56 55 57 59 61 65 68 69 71 70 69 68 66 64 62 59 59 59 59 59 57 56 56 56 56 55 54 52 51 50 50 50 50 49 48 48 48 47 47 45 44 43 44
45 43 38 38 36 37 40 42 43 43 41 42 44 47 52 55 59 61 62 63 64 63 63 63 62 63 62 58 54 53 54 53 54 53 52 50 48 47 45 45 45 44 41 39 38 39 41 43 45 46 48 49 51 52
40 35 33 34 35 37 38 35 36 36 34 34 36 42 46 50 52 54 55 57 58 58 59 60 61 62 61 60 60 58 56 54 52 49 47 46 44 40 36 33 32 33 33 34 35 35 37 40 42 45 49 52 54 56
34 33 33 36 40 41 41 41 42 43 42 42 43 45 48 53 55 57 59 62 63 64 66 66 66 66 65 64 62 59 57 52 47 41 35 31 30 31 30 29 28 29 30 33 36 38 40 44 47 50 54 58 62 65
33 36 37 41 45 50 52 52 51 52 54 54 56 57 57 58 62 64 68 69 70 69 67 66 66 64 60 56 49 43 35 30 30 29 29 28 27 27 29 30 32 35 37 39 41 42 45 47 50 54 58 63 68 72
38 40 43 48 52 53 52 55 58 59 59 59 60 61 63 64 67 67 67 67 65 64 62 59 52 43 35 33 33 33 32 30 28 27 28 29 30 31 33 35 37 38 39 40 41 44 47 51 55 58 60 61 64 67

GFSWCAN_prec_cthk_024.txt.gz
RH
92 89 85 86 83 80 83 92 98 98 99 98 98 96 94 94 74 57 53 66 75 74 73 74 57 41 37 30 32 31 38 37 44 61 78 86 82 73 70 64 60 55 68 68 71 62 56 35 33 38 38 33 32 36
98 98 94 79 68 74 95 99 99 98 99 97 96 95 90 77 70 66 65 69 75 76 71 78 70 58 39 27 25 25 27 29 35 57 69 79 78 75 63 66 59 51 49 53 48 50 38 28 28 33 32 33 34 35
97 97 98 98 98 98 99 99 98 98 98 97 97 92 83 73 72 67 59 70 79 82 79 74 67 66 58 43 33 34 36 36 34 45 67 73 73 68 67 70 68 50 44 48 46 39 28 26 26 27 26 28 30 30
95 96 97 98 98 98 98 98 98 98 98 97 92 85 73 70 69 62 61 80 84 82 86 83 69 68 68 55 47 36 37 34 40 56 72 78 69 64 67 67 66 49 46 49 44 33 28 26 26 28 28 28 28 29
92 92 91 88 88 90 93 96 96 93 88 82 76 68 62 64 66 74 71 81 85 78 85 77 62 60 68 70 52 40 41 49 47 64 70 65 71 74 71 72 75 57 49 57 42 24 25 23 27 28 29 29 29 30
81 80 79 77 78 75 72 74 74 70 71 72 72 68 69 70 76 80 82 80 76 84 88 76 70 61 65 72 69 46 42 47 50 66 71 72 72 72 79 74 63 62 56 37 27 26 27 29 31 33 33 34 35 37
78 82 82 79 70 65 67 64 69 74 77 77 77 76 79 82 77 76 73 87 71 69 84 82 66 60 60 77 82 58 51 55 50 63 74 80 82 78 71 67 65 62 59 57 41 35 34 34 36 39 39 40 41 44
79 80 79 77 76 69 63 62 61 61 63 65 67 68 73 71 75 75 73 78 87 83 90 86 74 63 69 89 86 70 59 60 61 67 72 80 79 76 73 63 62 66 65 62 53 45 37 40 44 45 45 45 48 51
83 82 78 82 75 75 84 78 68 65 63 57 55 56 64 75 77 79 83 83 83 86 80 70 76 70 86 95 92 84 67 68 69 72 77 86 87 78 66 66 66 69 67 56 51 49 49 51 53 54 56 57 60 63
75 73 70 77 78 76 84 85 66 71 65 76 70 79 84 76 82 90 98 99 99 97 88 89 92 93 79 81 98 92 82 83 86 82 82 83 81 79 82 74 71 67 66 68 69 69 70 71 71 71 71 75 74 74
61 60 65 78 78 75 84 89 90 90 96 90 80 73 61 71 87 92 99 98 98 86 86 92 91 86 86 88 86 98 95 91 89 91 83 94 89 79 82 82 83 85 86 83 80 81 81 77 77 82 84 84 88 82
45 57 74 79 81 81 74 76 69 68 67 73 90 89 91 92 94 96 93 95 89 84 89 83 81 80 85 88 93 98 98 93 89 87 88 97 93 91 87 89 86 82 86 86 81 78 77 76 78 81 81 83 85 89
67 76 74 72 68 78 78 80 88 89 99 99 97 91 98 98 98 94 96 98 88 80 80 85 89 98 98 95 94 97 98 98 96 98 97 94 89 87 85 85 83 81 81 83 84 82 81 82 86 89 94 97 96 94
69 76 75 72 70 75 92 98 98 98 99 94 89 91 98 98 98 98 94 92 88 89 93 93 91 98 99 93 95 94 94 98 97 96 93 91 86 84 81 81 81 84 85 85 86 89 91 93 94 94 97 97 97 94
76 82 77 67 76 89 98 98 98 98 95 96 96 98 98 98 98 98 98 95 91 91 94 94 96 92 94 98 97 96 95 92 94 96 90 84 85 89 88 88 92 97 98 99 98 98 98 98 97 97 97 96 92 88
79 93 88 87 89 98 98 96 96 98 95 97 97 98 98 97 97 96 95 94 91 90 88 89 91 88 87 90 92 97 98 97 97 97 97 94 95 97 97 98 99 99 98 98 98 97 97 97 97 97 96 92 87 85
94 85 90 90 97 98 98 98 96 95 96 97 97 99 98 95 95 92 92 92 93 95 96 94 94 92 88 87 90 95 97 98 99 98 98 99 99 98 98 98 98 98 97 97 97 97 97 97 97 94 92 91 90 91
97 98 98 96 93 94 94 93 85 87 94 95 95 96 94 94 94 91 91 91 92 94 94 96 96 96 97 96 95 95 95 96 95 94 97 98 98 98 98 98 98 98 98 98 98 98 97 97 96 95 95 95 95 95
98 98 96 96 96 97 96 94 90 92 95 94 93 93 90 88 87 90 91 91 93 93 93 95 92 95 96 97 96 97 97 97 96 97 97 98 98 98 98 98 98 98 97 97 97 97 97 97 97 97 98 98 98 96
87 89 95 96 94 94 96 92 92 95 98 97 95 91 90 92 89 87 87 91 93 94 95 95 96 97 96 95 95 95 96 97 97 97 97 97 98 98 98 98 98 98 98 97 97 97 98 98 98 98 97 96 94 95
57 76 84 86 86 85 91 95 95 96 97 96 94 89 86 86 86 84 81 82 84 94 96 97 97 98 97 97 97 98 97 98 97 97 97 97 98 98 98 97 97 97 97 97 96 96 97 97 98 98 98 98 98 97
41 51 61 66 73 75 82 86 89 91 90 90 87 84 81 76 71 69 72 75 86 94 96 97 97 97 97 97 97 98 97 97 97 97 98 98 97 97 97 97 97 97 97 97 97 97 97 97 97 97 96 96 95 93
16 18 25 31 39 50 57 60 58 59 60 60 57 57 53 50 48 45 55 61 65 70 75 81 88 94 96 97 97 96 96 96 96 97 96 96 96 95 96 97 97 97 97 97 97 96 94 92 89 85 81 78 73 69
8 11 15 18 24 35 34 37 37 41 40 40 40 43 45 40 35 39 48 51 53 55 57 58 58 58 58 58 60 62 64 66 67 68 69 69 69 69 69 69 68 68 68 67 68 67 67 66 65 62 60 57 57 55
14 24 21 27 25 26 33 37 39 37 42 42 42 48 50 42 46 50 53 55 56 58 59 60 60 61 61 62 62 62 63 63 62 62 64 65 66 66 64 63 62 60 58 56 54 53 53 51 50 49 49 48 48 50
30 35 35 35 37 37 39 42 44 46 46 48 51 53 48 49 53 58 59 61 63 64 66 66 67 68 68 68 68 68 67 66 65 61 58 56 54 52 50 48 48 48 46 46 45 45 44 44 44 44 45 46 46 46
37 38 39 40 40 39 43 43 43 45 49 53 56 57 55 59 62 63 66 69 71 73 75 77 77 76 75 71 67 62 59 56 53 51 51 50 49 48 46 45 43 42 41 40 38 38 36 35 34 34 36 38 40 41
42 41 40 39 38 39 41 43 45 47 49 49 48 51 51 53 57 61 65 67 70 70 70 69 66 62 59 60 60 59 55 52 52 51 50 48 45 42 41 40 38 36 33 29 29 30 31 31 31 32 33 34 36 40
42 38 31 34 33 35 38 38 39 39 37 36 36 41 43 45 48 54 57 59 60 61 62 62 62 62 61 58 57 56 55 53 51 48 45 42 40 37 33 29 28 28 27 26 25 25 27 30 32 33 35 38 41 45
36 32 32 37 38 41 41 39 36 33 32 31 32 38 43 47 50 53 55 57 59 60 61 61 62 62 61 60 59 57 54 51 46 42 37 31 28 28 28 27 25 24 25 26 28 29 31 32 33 35 38 42 46 52
38 33 35 39 42 44 42 39 36 35 35 37 39 41 45 50 52 55 58 59 62 64 66 67 67 66 63 60 55 49 42 34 28 27 28 28 26 25 24 25 26 28 29 30 31 31 31 32 34 36 40 44 49 54
35 35 37 42 45 46 46 48 45 47 50 49 51 52 53 54 57 59 62 64 65 65 64 62 60 57 50 40 31 28 28 29 29 27 25 25 26 27 28 29 30 30 32 33 33 33 34 35 37 39 42 45 49 53
39 37 38 43 46 50 51 53 54 55 55 56 57 58 58 58 60 61 63 63 60 57 52 45 36 28 27 28 30 30 28 27 27 27 28 29 29 30 30 31 32 33 34 35 36 36 37 38 39 41 43 45 49 52

GFSWCAN_prec_cthk_027.txt.gz
RH
82 84 85 93 96 95 95 95 97 80 73 87 96 98 96 94 97 93 94 80 74 79 74 75 63 55 50 42 40 38 42 48 56 64 62 58 64 70 82 76 68 63 67 69 62 66 60 44 46 40 30 24 31 36
76 78 88 87 80 93 96 89 86 77 82 96 98 98 97 97 98 97 96 73 63 72 89 84 66 63 60 38 31 32 27 31 37 51 51 55 64 70 75 74 65 69 60 61 57 48 44 40 33 33 25 25 32 33
77 67 75 93 91 86 86 87 90 91 96 96 98 98 98 98 98 90 92 79 63 75 82 89 80 73 66 46 32 28 28 42 36 32 39 42 57 59 73 71 68 63 60 56 55 48 41 36 35 30 22 24 25 30
95 89 85 91 93 91 92 94 98 98 98 98 98 98 99 99 99 97 96 81 67 81 86 74 89 84 76 53 41 31 30 31 45 39 39 45 44 47 58 69 74 63 59 59 62 47 39 37 34 27 22 24 26 28
94 97 97 96 96 96 97 97 97 98 98 98 98 98 98 98 98 94 85 74 58 81 93 81 91 92 89 73 52 42 36 38 46 55 55 47 42 48 58 65 69 62 56 58 61 42 45 43 28 22 23 26 27 28
88 89 95 97 98 97 96 97 98 98 98 98 98 98 96 89 77 75 74 64 72 87 99 97 76 79 81 89 85 63 48 42 46 54 54 53 45 43 54 64 60 63 58 60 59 57 48 33 27 23 26 28 31 31
78 82 83 87 95 97 97 97 97 98 97 97 95 86 79 75 75 70 68 58 80 96 92 98 97 89 77 84 89 96 77 60 49 50 51 54 58 57 60 58 67 63 61 63 63 63 52 46 38 31 30 32 33 35
76 66 67 69 77 84 89 90 89 87 82 75 69 63 61 63 68 89 74 81 96 99 89 85 85 86 76 75 78 89 96 86 62 55 51 52 59 64 64 58 60 66 66 67 66 65 64 61 52 44 44 43 43 44
71 70 63 62 61 62 70 75 75 77 80 75 74 79 81 82 82 87 84 86 86 88 94 86 87 76 74 81 81 89 90 92 81 64 59 61 64 63 56 57 62 72 74 72 67 70 69 70 60 59 58 58 56 56
72 72 76 73 64 62 61 61 66 70 70 74 78 81 78 73 85 89 96 97 97 80 84 92 92 83 72 77 85 92 90 90 85 75 70 63 62 55 56 60 62 67 70 70 72 76 74 65 65 66 67 70 71 71
72 71 79 76 76 68 64 61 57 60 65 68 69 65 64 80 86 89 89 84 84 80 79 81 84 95 81 72 85 86 97 97 92 84 75 69 66 62 65 65 69 74 77 76 81 78 79 84 83 80 84 85 87 88
68 65 79 81 73 73 63 55 52 57 66 75 75 64 75 85 89 96 97 95 86 77 80 72 75 86 85 86 83 85 92 94 95 87 82 77 74 76 76 78 78 82 83 82 93 87 89 91 90 85 85 91 96 97
75 70 78 76 80 75 79 78 72 82 80 76 75 83 82 89 93 88 94 97 96 94 82 68 78 89 83 85 89 92 96 92 92 92 92 88 85 86 88 91 90 91 98 96 85 92 91 95 95 95 95 94 90 90
67 65 81 93 96 98 97 98 98 95 86 81 89 90 97 97 94 94 98 99 95 82 76 80 89 89 96 99 98 98 95 94 98 98 97 98 95 97 99 98 95 90 93 89 91 92 94 93 91 90 91 94 97 98
68 82 94 96 98 98 98 97 98 98 93 99 97 98 97 97 95 98 98 94 90 88 87 84 79 85 98 98 98 95 92 94 97 96 94 98 98 98 98 94 93 95 96 96 96 97 97 97 98 98 98 97 97 97
74 86 93 96 97 97 97 96 96 96 94 97 97 97 97 98 98 98 99 97 94 92 91 93 98 98 97 97 97 96 95 95 96 97 98 97 96 98 98 98 98 99 99 98 98 98 98 98 98 97 97 97 97 96
84 92 95 97 97 98 97 97 96 97 97 97 97 97 98 98 98 97 96 95 95 93 92 89 88 90 88 85 91 93 95 97 97 97 97 97 98 98 97 98 98 98 98 98 97 97 97 97 97 96 96 96 94 91
94 94 97 98 98 98 96 96 94 93 96 96 96 96 95 93 93 94 95 95 94 94 91 91 91 93 95 95 93 91 93 97 97 97 97 97 97 97 98 98 98 97 97 97 97 97 97 97 97 97 96 95 95 97
96 95 94 98 98 94 91 91 87 93 96 96 95 92 90 89 89 88 86 85 85 84 84 85 90 94 96 97 97 97 97 97 97 97 97 97 97 98 97 97 97 97 97 97 97 97 97 97 97 97 97 97 97 97
98 98 99 98 98 97 93 91 91 94 97 97 93 89 87 88 89 87 86 87 88 89 91 93 97 97 98 97 97 97 98 98 97 97 97 97 97 97 97 97 97 97 97 97 97 97 97 97 97 97 97 97 98 98
98 98 98 93 91 92 95 95 94 95 94 90 88 83 81 80 77 77 76 78 78 87 93 98 98 98 98 98 98 98 98 98 98 98 97 97 97 97 97 97 97 97 97 97 97 97 97 97 97 97 97 97 97 98
82 86 82 81 79 81 86 90 90 90 85 81 75 66 61 58 56 56 60 58 68 79 85 91 95 96 97 97 97 97 97 97 97 97 97 97 97 97 97 97 97 97 97 97 97 97 97 97 97 98 97 96 94 90
50 57 63 61 59 65 70 70 66 64 63 60 56 49 47 45 44 43 53 59 63 68 70 71 72 77 81 85 91 94 96 97 96 97 96 95 95 94 93 92 91 90 87 85 83 82 79 76 73 70 67 63 59 56
18 17 16 21 30 40 37 41 41 40 39 40 40 44 43 40 36 40 48 51 54 56 58 60 62 61 60 59 59 60 60 60 59 59 60 62 62 62 62 61 61 60 59 57 56 54 52 49 46 43 41 40 39 39
14 23 19 25 25 28 35 40 40 37 42 43 43 46 45 39 42 49 51 53 55 56 57 58 59 59 60 61 61 61 62 61 61 60 59 59 58 56 54 50 47 43 40 38 36 35 35 35 34 32 30 28 26 26
30 34 33 33 34 34 38 40 41 43 43 44 47 47 41 43 47 53 54 56 58 60 61 63 64 65 65 66 67 67 67 65 62 55 50 46 43 41 39 38 37 36 35 34 32 29 26 24 24 24 26 26 27 27
34 36 37 38 39 36 41 42 43 44 47 49 50 49 46 51 54 53 56 59 61 63 65 67 69 70 69 69 65 60 54 50 47 44 43 41 39 38 38 36 34 30 26 24 24 24 24 24 24 24 25 26 28 29
39 38 38 38 36 37 40 41 43 44 45 44 42 43 44 43 48 50 53 56 58 60 61 60 59 57 56 55 53 50 48 47 46 45 43 41 37 32 27 24 24 25 26 25 24 23 23 23 24 25 25 26 27 30
35 30 26 31 31 34 38 39 39 38 37 36 34 37 39 42 45 48 53 55 58 59 59 58 57 56 55 55 55 53 51 49 46 41 35 29 26 26 26 27 26 24 23 23 24 25 26 27 27 28 29 30 32 35
31 29 31 36 39 43 40 38 35 33 31 30 31 36 40 44 47 50 52 54 55 56 57 58 59 60 60 59 57 52 46 40 32 28 27 28 28 26 24 23 24 25 26 26 27 28 29 29 30 32 33 35 36 38
33 33 38 40 44 43 40 37 36 36 35 35 36 39 42 46 50 52 55 56 58 60 62 62 62 61 57 52 45 38 31 28 29 29 28 25 24 25 26 27 27 27 28 28 29 30 31 32 33 34 35 37 38 40
36 36 38 43 46 45 45 46 45 45 45 45 46 47 49 50 52 54 56 58 60 61 61 59 54 47 36 27 25 27 29 29 27 26 26 27 28 28 29 29 30 30 31 32 33 34 35 37 38 39 40 42 43 44
40 39 38 41 44 45 46 46 46 48 49 51 52 52 52 52 53 54 55 54 51 48 43 36 32 30 30 31 31 29 28 28 28 28 29 29 29 30 31 32 33 34 36 37 39 40 41 41 43 45 45 47 49 50

GFSWCAN_prec_cthk_030.txt.gz
RH
68 75 79 92 94 95 94 92 94 90 87 96 80 81 91 98 99 95 91 90 90 86 90 86 86 91 70 62 54 47 50 44 58 57 70 56 63 56 53 61 73 68 62 65 61 68 55 38 40 46 40 36 30 25
66 79 71 85 96 93 88 87 92 93 95 89 67 74 90 99 99 98 98 94 88 93 88 79 79 85 86 56 51 48 27 29 40 53 54 55 62 68 57 65 66 77 60 59 51 46 42 40 40 48 42 34 33 23
81 78 71 88 88 89 95 98 96 95 84 76 75 91 98 99 97 97 97 88 79 80 84 89 91 92 85 57 51 43 31 30 33 36 42 54 61 54 62 46 47 57 65 66 60 49 49 47 45 44 41 35 33 23
93 78 72 78 81 87 94 87 84 81 80 85 95 97 98 98 98 96 94 88 81 80 81 83 96 90 78 60 46 41 39 31 29 33 38 47 50 48 52 43 44 48 66 65 59 54 52 56 53 42 41 37 31 23
96 94 84 82 89 88 82 83 94 90 91 97 98 98 99 98 97 95 94 88 80 76 77 76 86 82 79 61 49 42 41 39 41 51 48 45 41 45 46 46 48 47 58 64 60 56 58 56 49 48 44 37 26 23
96 97 97 95 91 95 93 96 97 96 97 98 97 98 93 92 93 93 97 96 76 74 85 96 98 94 90 66 54 47 39 43 47 46 61 53 45 46 60 48 32 39 43 55 63 61 57 54 53 49 36 32 26 26
95 96 97 96 96 93 93 93 93 93 93 95 95 93 93 94 95 96 87 80 66 74 82 95 98 97 97 76 63 53 44 44 47 50 58 55 51 50 52 46 37 41 39 50 56 62 65 62 61 54 45 34 32 32
85 96 95 95 95 95 94 93 94 95 94 94 95 96 97 96 96 93 82 65 61 70 80 96 98 91 93 98 97 81 68 62 56 56 56 58 62 57 52 40 42 40 37 40 53 62 64 62 62 61 55 50 45 44
68 81 95 95 93 93 92 92 92 93 93 94 93 93 89 78 67 67 63 60 65 74 97 97 98 95 84 86 97 98 97 91 76 61 57 52 51 55 52 48 48 48 45 49 58 71 70 68 68 68 68 67 61 57
62 62 72 80 87 90 90 91 91 86 79 71 67 61 65 78 88 95 92 87 90 98 96 96 83 80 78 80 78 83 95 99 98 94 83 70 51 50 50 55 53 54 51 54 60 70 75 78 75 72 70 74 72 73
66 60 63 68 72 74 71 65 64 63 61 64 70 78 80 90 99 98 93 94 96 92 84 81 77 81 81 81 86 83 98 98 92 89 87 80 67 62 60 58 56 57 63 61 60 65 68 71 74 75 76 78 80 84
77 73 62 55 57 66 67 68 70 69 73 75 76 75 91 89 83 85 83 84 84 84 89 77 78 77 82 80 78 87 90 97 94 91 92 86 82 80 75 70 60 61 75 73 73 72 73 77 82 82 80 85 91 94
86 66 65 52 53 60 70 79 84 81 68 68 81 92 91 86 86 84 70 67 73 85 88 84 94 91 81 77 73 78 83 89 95 98 94 91 90 89 87 84 85 86 84 83 87 87 94 93 93 98 93 93 93 95
83 63 61 63 65 70 79 84 81 78 82 91 97 93 98 97 97 90 88 82 80 82 83 80 82 89 88 85 89 91 91 94 97 91 88 91 93 97 98 98 99 98 98 98 99 93 95 94 95 97 99 98 98 96
84 84 75 70 73 78 80 82 88 93 94 96 96 97 97 97 97 97 95 86 80 77 69 72 92 91 89 99 98 93 91 88 86 88 90 91 93 92 96 98 98 98 98 98 98 98 99 94 93 96 95 92 93 95
87 89 95 95 96 94 96 94 91 89 97 97 96 97 97 97 97 97 97 93 89 83 91 93 97 93 93 89 96 96 91 90 90 91 93 94 95 97 97 97 97 97 97 97 97 97 97 97 97 96 96 96 97 97
85 88 92 95 98 97 97 94 96 97 96 97 96 97 97 97 97 97 98 98 98 99 95 92 89 92 88 87 89 91 93 95 94 95 96 96 98 97 97 97 96 97 97 98 97 97 97 97 97 97 96 96 97 97
91 95 97 97 96 98 97 96 97 95 96 96 96 97 97 97 97 97 98 98 98 95 92 94 90 91 90 88 88 94 96 97 97 97 97 97 97 97 97 97 97 97 97 97 97 97 97 97 97 97 97 97 96 96
97 98 98 98 98 96 96 97 91 93 96 97 96 97 98 98 96 94 91 92 90 86 83 82 86 91 92 93 94 95 96 95 96 97 97 97 97 97 97 97 97 97 97 97 97 97 97 97 97 97 97 97 96 96
98 98 98 98 97 95 95 96 92 94 96 96 93 90 89 89 90 88 86 82 80 79 83 89 94 97 96 96 96 96 97 98 98 98 98 98 97 97 97 97 97 97 97 97 97 97 97 97 97 97 97 97 97 98
98 99 98 96 96 95 95 97 95 94 95 95 90 81 78 77 74 71 71 75 78 84 90 96 97 97 97 98 99 98 98 97 97 98 98 98 97 97 97 97 97 97 97 97 97 97 97 97 97 97 97 97 97 97
95 90 88 87 87 87 88 91 91 86 75 67 61 57 59 59 58 58 57 52 60 69 73 76 78 81 86 88 89 90 91 93 95 95 96 96 96 96 97 97 97 97 96 96 96 95 93 91 87 84 79 74 68 61
78 71 70 70 68 68 72 65 58 53 50 44 43 41 42 43 43 42 46 50 54 58 62 64 65 67 71 73 75 74 75 76 78 79 80 79 76 73 70 67 63 61 59 59 58 56 54 51 46 42 38 35 33 31
30 32 32 36 41 47 43 43 40 37 34 35 35 38 39 39 37 41 46 51 54 56 58 60 62 62 61 60 59 59 59 59 58 57 58 57 55 55 54 53 50 47 44 41 37 34 32 30 28 25 23 22 22 23
17 25 22 28 31 34 36 37 36 35 41 41 41 43 41 38 40 44 47 50 53 55 55 56 57 58 59 60 60 59 59 60 60 58 58 55 53 48 42 38 36 34 32 30 28 24 22 22 23 24 25 24 23 24
28 32 30 31 32 32 36 39 40 42 41 43 45 42 40 41 43 47 48 52 54 56 58 59 61 63 64 65 67 67 65 62 56 49 45 41 39 38 36 35 35 27 24 23 24 25 25 24 23 23 24 26 24 23
34 35 35 35 35 33 37 39 39 40 43 45 44 42 40 42 45 45 49 52 54 56 58 60 63 64 65 64 60 54 48 45 43 42 41 39 36 33 27 25 24 25 25 25 24 23 24 24 25 24 24 25 26 27
34 34 33 33 32 33 34 34 35 38 39 39 36 39 38 38 40 44 48 51 52 53 54 55 56 56 55 52 50 48 47 46 45 42 36 29 25 25 25 27 27 25 25 25 25 25 24 24 25 25 26 27 29 30
33 30 26 27 26 29 32 34 34 35 35 35 32 35 35 38 41 44 48 51 54 55 56 56 55 53 53 52 53 53 50 45 36 29 26 27 31 30 27 26 26 26 25 25 25 25 26 26 28 28 29 30 31 33
30 27 27 31 32 34 35 34 34 33 33 32 31 34 37 40 43 46 49 51 53 54 55 56 58 59 59 58 55 47 38 30 28 29 30 29 27 25 25 25 25 26 26 26 27 28 29 30 32 33 35 36 36 38
30 32 32 35 38 40 39 36 35 33 32 34 34 36 38 42 46 49 51 53 55 57 59 60 60 58 55 47 36 27 25 26 27 26 25 24 25 26 26 27 27 28 29 30 31 33 35 36 37 37 38 38 40 42
35 38 39 43 46 46 45 43 42 41 40 41 41 41 43 46 48 50 52 53 55 55 53 50 46 39 30 25 27 29 29 28 26 25 26 26 27 28 28 29 31 33 34 34 35 36 36 37 38 41 43 42 43 45
43 42 42 44 45 46 46 46 46 46 46 46 47 46 47 48 49 48 49 49 48 46 41 36 31 31 32 31 30 29 28 27 27 27 26 27 28 30 32 32 32 33 33 33 35 36 36 37 38 41 45 47 48 49

GFSWCAN_prec_cthk_033.txt.gz
RH
84 76 64 70 88 92 88 83 83 85 91 95 98 96 73 65 83 98 96 95 88 94 91 96 85 80 70 79 69 67 81 80 73 69 44 42 60 67 61 52 81 84 73 72 66 69 63 42 45 41 30 39 46 40
84 69 68 81 83 77 89 97 96 83 88 95 98 89 73 69 94 99 98 96 91 96 98 92 90 86 79 69 67 61 48 51 61 57 39 42 56 73 62 63 55 71 82 71 59 54 48 46 43 44 38 43 48 40
79 70 84 80 82 74 83 92 97 97 97 94 90 76 70 83 98 99 97 95 94 97 94 87 83 86 90 77 81 80 82 72 59 52 45 49 48 56 72 66 64 58 58 70 71 59 55 52 48 53 49 44 45 43
83 81 80 80 91 94 86 88 89 91 91 91 81 79 88 98 98 97 96 93 91 95 96 92 82 72 84 85 68 54 66 72 73 55 56 44 43 44 57 56 57 50 54 57 55 59 63 59 54 54 56 52 45 41
94 87 89 90 91 92 96 97 98 98 93 85 89 98 98 98 99 99 97 95 97 92 85 84 78 66 73 87 75 62 73 76 62 55 56 53 41 46 55 47 51 50 53 52 50 46 58 63 66 65 57 53 48 42
94 82 83 83 87 88 83 84 80 77 76 79 85 89 94 95 95 96 98 98 85 83 82 85 84 79 75 72 66 67 67 68 54 53 58 40 28 38 50 45 40 39 51 50 42 54 63 68 64 61 56 57 53 44
97 95 92 96 93 83 86 87 79 78 80 83 88 91 98 99 98 97 89 79 68 73 83 75 79 85 79 70 62 61 55 53 64 56 55 54 46 42 45 50 41 47 50 50 44 43 53 67 69 64 61 60 58 55
98 98 97 96 97 94 95 93 92 91 86 90 94 98 97 96 96 91 76 77 68 73 72 84 94 95 83 71 67 64 62 55 66 69 59 54 54 64 57 43 40 41 54 59 55 51 55 60 63 67 66 65 62 60
97 96 96 95 94 94 93 88 90 90 92 94 93 94 96 96 90 91 85 70 77 84 86 92 95 98 99 91 87 79 77 70 59 55 52 53 55 71 72 66 53 64 54 53 53 43 41 60 67 69 70 70 68 67
97 97 96 95 95 94 94 94 92 93 93 94 96 95 95 95 90 88 84 71 70 83 85 94 98 98 99 95 91 88 83 77 70 70 55 56 57 71 70 66 66 61 54 52 53 50 46 48 58 63 72 77 73 74
92 96 96 95 94 95 94 94 94 94 92 93 92 94 85 80 72 73 73 66 67 78 85 91 95 98 97 98 95 97 97 92 93 85 80 75 73 75 71 69 66 61 60 61 61 60 57 60 66 69 74 78 78 76
77 85 87 89 92 89 85 83 82 82 79 73 84 81 82 97 98 95 79 72 72 74 90 93 90 92 92 96 97 95 98 98 98 96 99 97 89 85 84 77 69 59 53 55 60 60 65 65 64 65 70 74 78 82
65 68 67 64 63 65 64 63 81 79 77 90 98 98 96 94 94 88 87 80 73 83 85 91 86 86 79 81 85 87 93 98 99 97 94 90 88 89 88 90 87 83 79 75 73 70 69 76 80 80 79 85 91 96
52 59 67 72 74 70 71 74 73 83 88 90 91 89 91 88 89 92 96 89 85 85 79 84 80 80 77 79 84 82 85 92 89 90 91 87 92 95 94 94 96 95 92 88 87 88 88 90 93 90 93 95 98 98
53 55 59 69 72 72 76 74 80 88 92 90 84 85 79 81 83 83 87 94 89 87 93 96 89 86 84 85 83 84 87 88 83 81 85 90 91 93 93 92 91 92 95 96 96 97 97 97 97 97 97 97 97 97
61 63 69 73 78 84 86 88 87 93 96 91 94 96 93 89 79 81 79 85 86 91 93 86 91 91 89 93 91 86 79 80 83 87 90 95 95 95 95 95 96 96 96 97 97 97 96 96 97 97 97 97 96 97
74 74 81 85 86 91 93 93 92 95 97 96 96 97 96 86 75 74 73 72 72 79 78 87 93 88 79 81 88 90 96 96 96 97 96 95 96 97 97 97 97 97 97 98 97 96 95 96 97 97 97 97 97 97
90 92 94 95 96 96 95 96 96 96 96 97 97 96 97 97 93 82 77 76 74 78 91 95 90 88 86 87 90 93 95 97 97 97 97 97 97 97 97 97 97 97 97 97 97 97 97 97 96 97 96 96 96 96
93 95 95 96 96 96 95 96 95 95 97 97 97 97 97 97 97 97 97 97 96 95 92 92 94 95 96 96 96 97 97 97 97 97 97 97 97 97 97 97 97 97 97 97 97 97 98 97 97 97 97 97 97 97
98 97 97 96 93 94 95 97 94 92 94 96 97 96 96 96 96 95 91 88 87 87 90 92 95 97 96 97 97 97 97 97 97 97 97 97 97 97 97 97 97 97 97 97 98 98 98 98 97 97 97 96 96 96
98 98 97 96 93 91 95 95 93 93 91 90 88 83 83 83 81 81 82 83 82 87 91 95 97 97 97 97 97 97 96 96 97 97 97 97 97 97 98 98 98 98 97 97 97 97 96 94 94 94 92 90 83 78
97 97 96 93 92 92 92 94 86 77 69 66 65 64 64 62 60 59 59 53 61 68 71 74 74 74 74 74 75 76 78 80 82 83 84 85 85 86 86 87 87 86 85 83 80 75 69 60 61 57 51 47 43 38
84 82 82 84 84 81 76 64 54 51 48 46 43 41 41 41 40 37 41 45 49 53 54 57 59 60 62 63 63 64 65 67 69 70 70 70 67 65 63 61 58 56 53 49 45 42 39 35 33 32 30 27 26 26
58 60 60 62 55 52 44 39 33 34 37 36 37 39 39 39 38 39 44 49 52 55 58 60 62 62 62 63 63 62 61 60 60 60 59 56 54 52 50 48 46 43 41 38 36 32 29 27 27 27 27 27 27 28
31 31 34 34 34 32 34 33 35 34 38 38 38 40 40 41 41 44 45 49 51 52 53 53 54 55 57 57 57 56 57 58 58 57 57 57 54 49 45 42 35 28 26 29 29 29 29 29 29 28 27 26 24 25
28 30 31 35 33 32 32 33 35 39 39 42 41 40 42 41 41 43 45 49 50 52 54 56 57 59 60 61 63 64 64 62 57 50 42 38 38 39 36 32 30 28 23 25 29 29 28 27 27 27 26 26 26 27
31 33 33 33 33 32 35 36 37 38 41 43 41 40 39 42 43 45 47 50 52 52 54 56 59 61 63 63 61 55 46 42 41 40 37 33 27 23 24 28 27 24 25 23 25 27 28 27 27 27 28 28 29 30
33 32 33 34 33 32 32 31 32 35 36 36 35 38 37 40 42 43 45 48 50 52 53 54 56 57 57 55 53 52 48 46 42 35 31 30 27 26 26 25 23 24 24 23 22 22 26 28 30 31 31 31 32 34
34 30 24 28 28 31 32 33 33 35 35 34 33 33 34 36 39 41 44 47 50 52 54 55 55 52 50 50 52 52 47 39 37 32 35 37 36 33 27 26 26 23 23 25 26 25 26 28 30 32 33 35 37 37
30 30 24 28 32 35 35 35 34 32 31 31 30 35 36 37 40 43 46 48 50 51 52 53 55 57 59 59 56 43 32 28 28 30 33 31 31 26 27 29 28 27 26 28 30 31 32 32 35 38 39 39 41 39
33 28 28 33 36 38 38 37 35 34 33 33 35 36 38 39 42 45 46 48 50 51 54 56 56 54 51 44 35 31 32 27 26 26 25 25 26 31 29 27 29 30 31 32 31 32 32 33 38 40 41 40 40 42
30 32 32 38 43 42 41 43 42 41 40 40 38 38 39 42 44 43 46 48 50 51 50 49 46 41 33 28 28 30 30 29 27 26 26 26 27 27 29 31 31 30 30 30 32 33 34 35 37 39 41 42 41 42
41 37 37 38 42 46 45 44 43 43 42 42 43 42 42 43 44 44 44 45 47 47 44 40 36 33 34 33 32 31 30 28 27 26 25 26 29 30 30 29 29 29 31 33 34 34 35 36 38 40 42 42 43 43

GFSWCAN_prec_cthk_036.txt.gz
RH
78 88 84 69 62 64 68 71 73 81 84 86 92 98 98 98 97 76 66 97 98 98 92 86 84 79 83 81 74 60 69 64 58 65 82 80 58 40 36 44 69 80 98 88 82 79 72 47 45 48 49 45 52 41
94 90 68 69 72 64 64 75 89 78 98 86 93 95 97 99 98 81 82 99 99 94 98 81 81 86 90 85 79 71 61 88 81 67 61 59 59 52 45 61 55 79 77 91 86 69 60 49 53 52 50 50 46 54
96 82 81 76 79 75 80 75 86 81 90 95 92 91 97 99 94 75 92 96 99 95 86 84 81 88 94 85 75 80 64 67 77 85 78 72 63 50 58 50 48 66 80 75 81 72 79 58 61 52 55 55 53 55
90 87 94 85 85 80 86 84 83 89 90 92 98 91 98 95 77 86 91 94 98 91 97 96 89 89 86 80 76 70 80 68 76 83 79 72 64 48 50 43 49 43 74 79 68 66 66 63 67 65 63 60 61 57
84 86 91 92 94 88 89 95 94 95 98 98 98 94 87 74 86 97 98 99 95 89 87 92 89 79 75 75 79 85 70 78 92 78 77 63 57 55 48 47 47 45 52 61 60 55 59 63 71 67 61 62 62 61
89 93 91 86 94 97 95 90 85 88 90 86 82 75 75 86 93 96 99 98 95 85 91 90 83 73 65 69 74 81 94 92 90 93 89 67 51 52 54 45 39 40 43 49 53 55 62 50 58 61 60 66 71 63
91 94 93 86 84 93 97 96 86 81 78 81 85 91 98 98 99 96 90 84 89 88 92 84 82 80 73 69 68 80 88 79 79 77 69 59 48 48 53 55 43 49 51 46 50 48 50 55 48 59 63 67 74 69
88 92 90 79 78 81 81 83 92 98 98 98 98 98 97 95 93 93 91 90 90 91 83 80 80 80 71 75 77 65 64 67 75 92 76 62 60 73 69 63 55 48 36 45 54 54 62 63 62 52 57 64 65 68
89 88 94 96 92 86 83 88 92 92 94 96 96 96 97 97 96 91 87 85 82 78 82 80 85 94 88 83 77 72 75 92 81 80 82 72 69 85 85 81 72 70 63 52 52 58 62 63 57 56 63 63 71 72
93 93 92 91 93 95 94 94 94 95 96 98 97 96 96 95 87 82 81 83 75 72 79 77 86 95 93 82 79 79 77 81 78 61 66 75 84 84 81 79 76 82 79 76 73 68 60 58 64 57 54 64 70 72
96 96 96 97 97 98 99 99 98 98 98 96 93 91 92 90 90 91 88 80 68 69 72 80 91 91 86 85 87 85 83 85 83 64 65 69 70 67 69 69 72 71 82 74 66 58 61 58 61 58 56 53 55 65
96 96 97 97 98 98 97 98 98 98 94 90 84 89 86 84 85 87 79 77 73 81 92 95 97 98 97 98 90 91 97 84 84 76 77 84 74 67 61 62 67 73 73 69 65 64 59 58 71 70 67 69 68 72
92 93 94 96 96 95 94 94 93 90 87 83 81 86 96 91 90 84 80 77 84 91 93 94 98 98 99 95 98 96 96 97 94 93 81 82 86 90 92 91 90 88 86 82 74 69 62 60 65 69 67 70 77 78
66 72 70 70 69 68 74 72 73 85 87 96 97 98 97 89 83 86 83 77 83 87 96 99 99 99 99 99 98 98 98 98 98 96 95 92 90 93 96 96 96 95 95 93 91 88 86 84 84 85 85 84 84 88
71 65 66 68 70 72 77 83 88 91 94 92 88 88 91 89 86 84 82 82 82 93 92 96 98 94 93 98 94 93 91 91 91 92 94 97 97 97 96 97 97 97 96 96 97 97 97 98 98 97 98 97 97 97
66 67 69 74 79 84 88 87 88 90 92 88 86 90 87 87 92 88 77 76 85 88 95 98 97 90 88 90 82 87 80 84 85 87 86 87 88 88 90 92 94 96 96 96 95 96 97 97 97 97 96 96 97 96
69 74 79 81 86 88 85 85 87 94 96 97 96 94 79 80 86 77 73 78 85 88 90 88 87 90 85 86 90 86 86 89 89 89 91 93 96 97 97 97 96 97 97 97 97 96 96 97 96 96 96 97 97 97
76 86 91 89 89 90 87 91 96 97 96 96 89 86 85 85 77 78 77 71 80 80 79 83 82 83 86 85 90 93 94 97 96 97 97 96 97 97 97 97 97 97 97 97 97 97 96 97 96 97 97 97 97 96
92 93 94 95 96 94 95 97 96 94 97 95 89 84 79 78 77 74 73 78 80 75 76 90 94 95 96 96 96 98 98 97 97 97 97 97 97 97 97 97 97 97 97 97 97 96 96 96 97 97 97 97 97 97
98 96 96 96 96 94 96 97 96 95 96 97 96 89 85 82 75 74 72 71 74 82 91 95 96 97 97 97 97 97 97 96 97 97 97 97 97 97 97 97 97 97 97 96 96 97 97 97 97 97 96 95 94 91
98 98 96 91 90 93 96 96 96 94 95 96 96 95 96 94 94 95 93 94 94 95 95 97 96 97 96 94 93 91 89 87 86 86 86 85 84 85 85 85 85 85 87 87 87 85 84 82 78 71 64 56 45 44
98 96 94 93 91 91 91 85 81 76 75 74 72 72 73 75 75 72 69 61 66 72 71 72 72 72 71 70 68 67 67 67 68 69 70 72 74 75 74 73 70 66 63 61 58 54 47 39 37 34 31 30 28 25
88 84 82 81 79 70 64 60 56 58 58 53 51 49 49 47 45 44 47 50 54 56 58 60 61 62 63 63 63 63 64 65 66 69 70 70 68 66 63 60 58 54 49 45 40 37 33 30 28 27 26 26 26 27
70 72 76 76 58 52 45 42 40 39 38 37 36 39 41 41 40 41 47 52 53 54 55 57 58 61 62 62 63 63 63 61 61 62 62 58 54 50 47 45 42 39 36 33 30 29 27 27 26 26 26 26 24 25
52 58 56 45 39 32 31 33 37 35 37 36 37 39 40 39 39 43 47 51 53 54 54 55 55 54 53 53 54 54 54 54 54 54 54 55 55 51 46 37 30 28 28 28 29 28 27 27 27 27 26 26 24 26
38 36 35 34 32 32 32 38 37 38 37 39 39 39 40 38 38 42 46 49 50 51 52 53 54 55 56 57 58 58 58 58 52 44 38 34 34 35 32 31 31 30 30 29 28 28 28 27 26 26 27 27 27 28
32 34 35 34 34 30 35 37 35 33 40 41 41 40 39 39 40 44 46 47 50 51 52 54 56 56 57 55 54 51 43 40 38 38 35 29 25 24 25 27 25 23 28 23 27 28 27 27 27 28 30 32 33 32
34 35 35 33 32 30 31 30 31 38 36 37 36 36 38 40 43 44 45 47 49 51 52 53 53 53 52 51 49 48 48 47 43 36 34 34 32 30 27 28 26 24 23 23 22 22 24 26 32 34 34 32 35 36
34 30 26 29 26 29 31 33 33 33 33 36 33 33 34 38 40 42 43 45 46 48 49 50 51 50 49 47 48 47 43 32 33 32 35 37 35 30 26 26 26 26 24 27 31 31 28 28 28 29 31 32 37 39
33 30 25 28 31 33 35 34 34 35 33 30 32 36 38 38 40 42 43 44 46 46 47 48 48 50 52 52 49 36 25 23 23 24 30 31 30 26 29 29 26 28 29 32 30 30 33 32 31 37 37 38 39 41
33 28 29 31 34 37 38 38 37 38 39 39 38 36 36 37 40 41 42 43 45 45 46 48 49 48 46 40 32 29 31 27 25 25 25 25 25 31 29 27 32 30 29 31 30 33 37 34 36 38 39 39 41 42
34 31 30 34 38 41 41 47 44 43 43 41 40 38 40 39 40 39 41 42 44 45 45 45 44 39 32 28 28 30 31 30 29 27 25 25 24 25 28 29 28 32 30 30 31 34 36 37 38 39 40 41 42 42
35 32 33 38 42 44 46 46 44 46 44 42 42 42 42 42 41 39 39 41 43 44 44 40 36 31 29 29 30 30 30 29 27 25 24 25 28 29 28 27 26 27 29 30 30 33 38 39 40 41 41 41 43 44

GFSWCAN_prec_cthk_039.txt.gz
RH
68 68 78 85 88 78 71 70 66 63 66 69 73 79 81 79 82 85 85 78 76 93 93 90 85 80 73 79 73 56 81 77 78 74 71 75 70 80 71 75 76 74 76 87 99 90 81 66 58 50 43 43 47 48
77 90 95 85 81 80 77 71 68 68 71 76 81 90 93 95 94 90 85 86 85 84 96 90 86 83 82 72 69 73 71 74 72 65 62 65 72 66 65 73 70 74 60 69 75 91 76 69 75 63 60 57 58 56
98 94 81 80 84 86 77 76 75 74 80 85 81 90 90 85 92 95 90 94 85 86 99 93 78 86 82 76 75 80 76 80 74 63 71 76 73 59 65 59 59 61 54 61 60 69 76 74 70 68 67 68 66 69
93 85 83 87 90 85 82 79 78 80 82 88 81 88 89 96 98 98 94 80 76 86 98 89 98 84 81 84 84 83 88 86 72 67 70 82 81 67 57 51 64 54 51 51 57 62 80 70 67 75 68 70 62 63
94 93 86 91 88 86 90 86 86 93 93 86 90 96 97 98 99 96 87 74 96 95 94 93 89 84 83 81 81 95 84 76 88 71 70 68 66 78 68 63 56 42 46 52 56 54 69 67 64 76 75 73 72 72
97 97 94 95 90 89 94 98 91 94 95 93 94 98 98 99 97 99 94 98 99 89 96 99 93 90 86 87 90 86 82 80 96 78 86 77 70 78 78 69 64 44 44 51 52 56 57 53 60 70 71 76 76 73
85 89 89 98 93 84 91 95 97 98 96 95 98 97 97 93 89 96 91 80 91 97 94 93 91 88 80 74 77 78 79 82 97 91 81 79 79 73 79 82 74 64 50 42 48 52 50 53 55 60 60 57 64 66
80 85 88 92 87 79 82 90 91 90 85 84 84 96 99 98 99 97 96 97 95 89 83 82 81 77 75 71 70 75 84 89 95 91 92 87 85 86 91 80 65 60 60 55 52 56 53 49 55 58 56 62 57 58
90 85 84 89 91 95 95 95 95 92 97 96 96 96 97 96 96 97 96 92 85 80 76 71 80 85 79 78 73 78 78 87 84 96 96 91 94 98 98 89 80 73 66 58 51 51 55 57 54 56 63 70 65 61
93 91 84 94 96 98 98 98 98 98 98 98 98 96 98 97 93 91 92 92 87 82 77 79 74 87 82 79 79 79 86 89 91 89 88 91 98 94 87 86 88 90 89 82 77 72 66 63 62 62 68 64 61 63
95 96 96 95 94 95 97 98 98 98 98 96 90 89 89 88 86 85 83 82 81 79 69 68 72 87 89 94 93 83 85 85 84 84 86 95 91 93 89 89 86 85 87 90 93 89 86 87 81 76 72 68 70 73
97 96 97 98 96 95 94 96 98 96 92 90 89 90 87 82 79 79 83 80 72 69 72 84 89 91 97 97 91 90 81 75 80 89 86 84 83 85 82 78 75 75 76 74 75 80 81 77 80 80 79 76 81 81
99 98 98 97 96 96 96 94 94 94 89 87 84 86 95 92 88 86 84 80 78 86 96 96 98 99 91 95 85 80 82 81 79 84 85 82 76 73 72 76 74 68 66 66 71 76 82 85 81 77 75 72 66 67
98 98 98 97 97 95 94 92 91 89 87 84 88 91 93 90 88 84 84 81 86 91 92 96 98 99 90 84 84 85 96 98 92 93 93 93 82 76 89 97 97 98 97 96 95 95 95 95 93 87 80 77 75 77
73 72 72 78 81 80 76 80 81 82 82 83 78 85 87 86 80 78 84 88 92 94 92 95 98 98 98 98 90 88 94 96 95 96 97 92 96 95 96 96 97 97 97 97 97 96 97 97 96 96 97 96 97 97
70 75 83 86 82 83 86 87 85 80 76 74 77 82 86 81 77 76 83 88 94 98 98 98 98 98 97 96 95 96 92 96 97 97 96 96 97 97 97 97 97 97 97 97 97 97 97 97 97 97 97 96 96 96
81 91 94 94 89 88 88 91 95 93 90 80 80 81 79 78 74 79 85 90 93 94 98 96 92 92 96 90 92 96 97 98 94 96 96 94 93 95 95 94 93 94 96 97 97 97 96 96 95 94 94 95 96 96
85 89 94 94 95 93 93 96 95 92 95 90 89 85 81 73 71 76 79 85 87 90 93 95 91 92 93 95 96 96 96 97 97 97 97 96 97 97 97 97 97 96 96 96 95 94 93 93 93 92 93 94 95 95
96 97 98 98 97 96 96 96 88 92 92 91 89 81 73 73 74 73 76 86 90 81 87 87 92 96 97 97 97 98 98 97 97 97 97 97 97 97 96 96 95 95 95 96 96 96 95 95 95 94 94 94 94 94
98 98 98 98 97 92 93 94 92 85 92 92 88 83 80 81 81 82 82 89 88 81 73 83 94 96 96 97 97 96 96 94 93 92 92 90 89 87 86 85 84 83 82 81 80 79 78 76 73 69 65 60 55 52
98 94 91 90 90 90 94 96 91 90 88 83 81 80 81 81 81 78 78 80 76 76 86 94 90 85 82 80 80 80 81 80 79 77 76 75 75 74 75 75 75 73 70 66 63 62 57 56 52 46 38 32 29 27
95 93 88 83 84 88 91 92 90 91 89 86 82 80 77 75 70 69 71 68 72 76 72 73 72 70 67 66 66 66 68 69 71 73 74 75 75 75 73 70 66 64 61 57 51 45 40 35 30 27 28 27 26 24
85 81 75 67 57 56 60 59 59 64 66 63 60 63 64 63 59 53 52 56 56 58 60 62 63 64 64 66 66 68 70 72 74 73 71 68 64 59 54 51 47 44 41 37 33 30 28 27 25 22 22 24 25 25
72 71 57 47 44 47 42 44 40 40 38 38 38 41 45 43 39 42 51 55 58 61 63 63 63 64 64 64 63 60 58 54 53 52 52 50 47 45 40 34 30 29 29 28 26 25 25 24 26 25 23 21 23 25
65 65 50 43 36 35 39 38 36 35 39 37 40 43 44 41 46 50 51 54 55 55 56 56 55 53 52 52 52 52 52 49 49 49 46 42 37 34 32 28 25 22 25 26 28 27 26 25 25 26 24 23 23 25
48 45 41 33 32 33 36 38 36 39 40 41 42 40 39 40 42 47 49 51 51 52 51 51 50 50 50 50 49 49 48 46 38 33 31 29 28 28 29 30 28 24 25 26 28 29 29 27 27 27 28 29 30 30
40 40 35 33 34 31 35 34 32 34 39 42 39 41 37 41 45 45 46 47 48 50 51 51 51 50 51 49 45 42 39 36 34 33 32 30 26 25 25 25 24 25 25 25 24 23 23 25 28 31 31 31 31 33
41 36 36 33 31 30 31 31 33 34 35 35 32 36 39 42 42 41 43 45 47 50 51 51 51 49 47 46 45 44 43 43 39 34 32 32 32 30 25 23 23 24 23 23 23 24 26 27 27 28 29 30 31 35
33 27 24 27 25 29 32 33 34 33 33 34 32 35 37 38 40 43 44 45 47 48 47 47 46 45 44 43 43 40 33 27 28 26 29 29 29 29 25 25 24 23 23 26 30 30 30 28 30 31 34 35 36 37
32 26 24 28 31 34 35 35 35 28 29 29 30 37 39 41 43 43 45 46 46 45 45 44 44 44 44 43 39 28 21 21 22 23 26 28 28 27 25 24 23 25 28 27 26 27 29 29 29 30 33 36 38 39
30 24 26 31 37 37 36 34 32 32 32 34 35 36 38 42 45 45 45 45 44 42 42 42 41 40 37 32 28 26 26 28 28 28 29 29 27 24 24 25 27 28 26 25 26 27 28 28 29 32 34 36 38 40
29 26 29 35 39 39 40 40 40 41 42 41 43 42 43 44 44 43 44 43 42 41 40 39 36 33 30 28 25 26 27 29 30 30 29 26 24 25 26 28 27 24 24 26 27 27 28 30 33 36 38 39 40 40
33 31 33 37 42 43 43 46 45 49 48 48 48 48 47 46 43 42 42 41 40 38 37 36 33 31 26 25 26 27 27 27 26 25 24 25 27 28 28 25 23 24 27 27 27 29 31 33 35 37 38 39 38 39

GFSWCAN_prec_cthk_042.txt.gz
RH
86 78 74 77 77 81 82 81 78 75 75 76 80 82 82 86 92 95 89 88 95 97 90 93 80 76 76 75 67 58 78 75 81 87 91 79 72 64 55 54 61 74 86 82 88 90 86 80 79 74 74 67 70 64
78 80 84 87 86 82 79 77 76 76 75 75 73 71 69 73 85 94 94 82 93 97 96 93 89 84 87 71 77 80 71 70 75 88 90 79 75 74 60 60 47 68 67 78 76 66 55 63 82 78 77 73 72 68
87 95 90 82 78 76 74 73 75 77 78 75 70 70 75 80 87 90 88 81 86 93 96 93 86 84 82 83 82 81 73 73 78 73 86 82 74 66 65 54 41 51 68 69 72 59 58 57 65 80 75 73 68 62
96 94 91 85 83 85 82 80 77 72 70 74 78 81 85 85 90 98 92 78 82 85 84 65 64 75 79 87 89 81 78 76 75 79 84 88 81 60 56 50 60 65 71 69 71 56 52 52 56 77 71 67 70 68
98 98 96 92 89 85 86 86 77 76 79 83 92 96 98 98 99 99 86 85 84 84 78 69 64 63 77 86 87 88 83 75 79 87 84 77 78 75 64 68 66 72 72 84 75 52 49 47 51 62 67 64 71 69
87 91 94 96 84 93 97 87 89 86 87 85 94 97 93 92 99 99 99 98 86 88 97 93 94 94 86 85 91 86 75 76 75 90 87 76 67 64 68 72 80 86 82 73 70 56 55 56 59 61 63 65 64 70
88 97 92 87 92 96 95 92 90 94 96 92 89 89 88 88 85 94 85 74 81 92 97 96 92 94 96 92 87 80 82 87 92 95 98 84 73 68 67 73 81 90 88 83 77 57 60 58 61 65 59 62 62 65
83 88 93 88 91 95 92 91 97 95 96 96 96 97 99 98 97 91 76 84 92 98 98 94 97 97 90 89 95 97 96 95 93 86 93 94 83 88 91 88 85 93 88 82 75 69 65 56 58 63 56 57 60 60
88 94 94 93 91 90 86 90 90 95 96 98 98 98 98 98 99 92 92 97 97 95 83 89 93 96 92 91 85 84 85 86 83 88 93 96 96 91 97 97 91 88 83 78 74 69 69 63 60 57 57 63 63 70
91 91 94 95 93 90 83 86 97 98 97 97 98 97 99 99 99 98 99 97 93 87 80 85 86 88 86 90 86 84 83 89 92 90 92 97 97 89 84 86 91 92 88 79 72 71 74 68 64 63 65 72 71 68
92 94 93 93 95 93 92 93 96 98 97 90 88 90 98 97 93 91 90 87 85 87 82 80 77 79 83 88 88 87 89 87 87 89 91 97 96 97 92 96 97 98 96 98 97 91 86 86 86 87 90 87 80 78
93 92 93 94 96 95 93 91 89 85 86 88 85 85 83 82 79 80 86 82 79 82 75 74 72 77 89 85 86 94 88 86 87 91 90 86 93 95 93 92 95 96 96 96 95 91 90 95 96 95 91 91 92 90
97 96 95 95 97 98 98 96 94 90 85 81 80 86 86 81 79 82 80 84 83 79 79 83 82 89 90 98 90 93 88 88 86 89 88 87 90 89 89 88 87 87 86 83 80 74 71 71 71 70 77 84 88 87
98 98 98 98 97 97 95 93 92 88 82 82 80 81 78 81 80 84 81 80 82 90 96 98 97 96 91 98 92 87 89 89 84 84 83 87 87 85 83 80 76 82 84 94 92 90 91 95 96 97 97 97 97 97
96 96 95 93 93 93 94 93 89 85 76 75 73 80 80 79 79 79 80 85 89 93 96 97 98 98 92 98 94 88 96 94 84 82 81 83 80 84 85 83 88 94 96 96 97 97 96 96 97 97 97 97 97 97
74 84 84 83 87 84 83 84 82 80 77 73 74 75 74 73 77 81 96 97 97 97 98 98 96 92 90 90 81 84 83 91 91 92 92 91 92 96 96 96 97 97 96 96 96 97 97 97 97 97 97 97 97 97
95 92 87 83 76 76 82 83 77 76 82 79 78 76 73 82 92 97 96 97 97 97 98 97 96 92 89 90 87 85 89 96 97 97 96 96 97 96 97 97 97 96 96 97 97 97 97 97 96 95 95 95 95 96
98 98 96 92 88 85 86 93 89 87 87 80 76 76 78 86 91 91 94 97 97 97 97 96 95 95 96 95 94 96 97 96 97 97 97 96 97 97 97 96 96 96 96 97 97 97 96 95 94 94 93 93 91 90
98 98 97 96 95 95 94 90 86 88 86 76 74 74 77 83 86 86 87 89 86 83 84 84 91 96 97 96 96 97 96 96 96 97 97 97 97 97 97 96 95 92 90 89 88 87 85 83 81 78 75 70 64 58
98 98 98 97 93 85 83 86 84 81 80 77 75 74 79 84 79 79 85 86 81 74 75 82 91 94 93 94 94 95 94 92 90 88 87 85 83 81 80 78 77 76 76 75 72 68 63 59 55 52 48 44 38 34
96 96 95 92 89 85 87 89 79 79 77 77 78 78 80 78 77 82 85 81 72 75 77 82 79 77 76 74 72 69 70 70 72 72 74 74 74 75 74 72 70 66 62 59 55 50 44 39 35 30 26 25 24 24
93 88 86 84 85 87 90 86 82 83 84 85 83 84 83 79 77 72 67 62 68 76 77 75 68 65 65 66 67 68 69 71 71 72 73 73 72 70 64 59 52 47 42 37 33 30 29 29 28 27 24 23 23 22
76 70 73 73 75 80 89 86 84 82 81 78 73 71 65 58 58 55 61 67 70 72 67 64 64 64 64 65 65 65 65 64 63 60 55 51 48 46 43 40 37 34 31 30 27 24 23 22 22 22 26 26 24 23
54 46 43 41 44 55 54 59 59 57 54 58 59 65 65 59 55 59 62 60 59 60 61 59 58 57 56 54 53 52 49 47 46 47 45 44 41 38 32 27 25 23 25 25 24 23 23 22 23 22 22 23 24 25
44 43 38 39 36 34 36 37 37 37 41 41 44 47 46 40 46 51 52 53 54 55 52 50 49 48 47 47 47 46 47 48 45 43 41 37 33 30 27 25 23 23 26 26 24 24 24 24 23 22 22 22 22 24
49 46 37 36 34 33 34 34 34 35 34 37 38 36 34 36 42 48 48 49 51 51 51 50 50 50 49 49 48 46 44 40 37 34 35 34 31 29 27 27 25 23 24 24 26 24 22 21 21 21 23 24 26 27
39 37 34 33 33 29 32 31 31 34 40 41 41 41 36 39 43 43 46 48 49 51 51 51 50 48 46 45 45 43 38 36 35 33 30 28 27 24 24 23 22 23 23 23 22 22 22 23 25 26 28 28 29 31
37 34 35 32 28 28 31 31 33 35 36 35 31 36 37 40 40 43 43 46 47 49 50 51 50 48 46 44 42 41 40 37 32 28 27 27 25 24 21 22 24 25 24 24 24 26 28 27 27 29 30 31 33 32
37 29 22 25 25 29 33 33 34 34 33 33 32 35 37 40 42 43 45 47 48 49 50 49 48 46 43 42 40 36 30 27 25 25 29 29 30 29 28 28 27 26 25 27 29 29 30 29 29 28 30 31 33 37
27 23 23 29 32 35 35 32 31 32 30 27 30 36 39 41 44 46 47 49 49 49 47 46 45 45 43 41 34 24 21 23 25 27 30 31 31 31 30 27 25 26 27 27 27 27 28 29 29 31 33 35 36 38
25 23 27 32 38 40 36 32 30 28 29 32 33 35 38 43 46 48 50 50 48 46 45 44 42 40 36 31 27 24 23 25 25 27 29 30 30 28 26 26 27 28 26 25 27 28 28 28 30 32 34 35 37 39
26 26 31 36 40 40 38 37 35 37 38 38 40 40 43 45 48 49 49 48 47 45 43 41 37 34 31 29 25 24 25 24 25 25 25 25 25 26 27 29 28 25 25 27 28 27 28 30 33 34 36 37 37 37
32 31 34 37 41 43 43 44 43 45 45 45 48 49 49 49 48 47 46 46 45 44 42 38 35 32 28 26 25 25 25 24 24 24 25 26 28 29 29 27 24 25 27 28 27 28 31 34 35 36 35 35 36 38

GFSWCAN_prec_cthk_045.txt.gz
RH
80 91 98 95 88 82 80 81 80 80 80 81 80 81 82 82 85 96 97 98 94 88 90 90 91 88 83 83 85 81 90 88 87 88 89 86 79 70 66 65 65 65 70 69 69 75 65 46 54 63 73 84 76 78
97 96 92 91 93 95 93 89 85 83 82 82 84 85 85 83 79 83 85 94 99 99 89 85 82 82 86 86 85 87 80 80 76 85 76 77 77 80 70 70 65 67 58 65 58 55 60 65 59 65 68 75 81 79
93 96 95 95 94 88 82 78 78 77 77 76 77 76 88 94 93 93 89 88 94 93 89 91 80 77 85 92 89 83 79 79 77 74 78 76 76 70 72 68 65 59 55 55 51 39 55 58 67 62 62 69 82 78
97 98 98 95 92 86 83 80 79 75 71 71 74 77 82 86 87 96 97 90 96 93 89 74 76 85 87 87 87 81 79 81 77 78 82 79 74 63 68 68 68 66 70 59 50 39 61 62 68 59 61 70 82 76
89 90 92 94 96 91 87 82 79 75 73 72 77 83 89 89 90 89 83 78 84 90 82 72 72 74 81 79 86 87 89 81 81 86 87 77 71 74 82 82 72 72 70 68 63 64 79 72 70 67 62 69 75 79
92 91 95 98 92 94 93 84 78 77 81 77 75 82 91 92 97 99 96 89 81 82 81 80 72 72 70 73 75 87 90 96 88 86 84 76 72 86 93 98 92 81 74 72 66 62 75 78 78 70 70 75 79 78
90 91 92 96 94 93 86 85 89 87 94 97 94 91 91 90 87 85 77 66 71 82 82 81 81 75 69 68 73 82 89 96 92 93 84 81 83 90 91 97 94 94 89 79 75 70 77 83 80 71 66 71 70 65
93 95 88 88 90 93 94 98 93 94 97 97 98 98 95 96 96 93 82 72 72 84 97 98 91 89 83 81 79 81 97 97 98 91 86 81 94 98 96 88 79 75 73 77 79 80 87 90 84 73 69 61 60 57
90 87 84 86 94 98 97 97 94 93 89 91 90 94 97 95 93 96 91 88 95 94 96 98 95 95 99 92 88 95 96 94 86 95 95 98 97 97 90 88 81 78 74 75 83 86 95 91 80 76 69 64 62 61
88 85 80 79 90 97 98 99 96 98 99 99 98 96 95 95 93 97 99 98 97 98 99 98 93 93 88 91 94 93 94 98 98 97 95 96 94 97 97 93 91 94 94 93 88 96 92 88 84 79 74 70 68 65
94 89 80 84 91 93 93 92 91 91 95 98 98 97 97 97 93 97 98 98 98 98 94 91 88 90 89 90 93 89 91 92 93 94 91 88 86 89 89 88 88 90 93 94 94 97 94 91 85 83 85 87 84 87
94 94 93 89 90 92 90 88 88 86 94 95 93 93 97 94 88 87 92 90 87 89 86 84 83 85 85 90 90 91 91 89 90 91 89 84 86 90 95 96 94 94 96 97 98 98 97 95 95 96 97 95 94 93
96 97 95 92 91 91 89 86 83 82 81 83 83 81 77 74 76 79 79 83 82 81 83 80 77 80 92 90 88 92 89 92 87 90 87 89 90 91 92 94 97 97 96 96 97 94 91 93 92 92 95 92 90 83
97 98 97 97 92 88 86 84 82 78 72 71 70 74 74 78 80 82 83 83 81 81 84 85 83 95 95 98 99 98 96 90 91 86 87 89 89 88 91 93 94 96 97 96 94 94 92 91 85 80 77 77 82 91
97 97 96 93 90 90 86 82 77 76 72 74 74 81 82 82 82 83 84 84 82 89 93 96 95 97 98 97 93 90 90 88 83 82 84 86 86 88 92 92 94 95 95 91 87 90 95 94 96 96 97 96 97 97
95 92 92 91 91 90 87 80 77 71 73 75 77 81 80 81 81 80 81 87 95 97 98 97 97 93 93 96 90 88 80 84 85 81 84 86 88 89 89 94 96 96 92 91 96 96 96 96 96 97 97 97 97 97
91 92 91 87 84 85 86 80 71 69 74 75 78 77 81 82 89 96 97 97 97 97 97 97 93 91 84 87 93 90 88 90 95 93 91 92 93 94 95 97 97 97 97 97 97 97 97 98 98 97 96 96 94 93
98 97 94 89 79 79 79 75 73 74 77 78 78 84 91 96 97 97 97 97 97 97 97 97 91 83 82 81 86 91 91 94 97 97 97 96 97 97 97 98 97 97 97 97 96 95 93 91 88 87 84 80 77 74
98 98 94 93 94 84 80 77 72 75 78 77 78 88 95 97 96 95 92 91 93 94 92 91 92 90 92 96 96 97 97 97 97 97 97 97 97 97 98 97 93 90 86 83 79 76 73 69 66 62 57 52 45 41
98 98 96 97 94 90 80 78 73 71 74 75 86 92 92 94 91 92 90 86 81 82 89 93 97 97 96 97 96 96 96 95 94 92 90 88 87 84 79 76 74 73 71 69 65 60 56 51 46 41 36 32 27 26
97 94 91 83 82 80 75 70 67 67 75 82 84 81 85 87 90 87 77 76 78 86 85 88 89 88 84 82 80 76 74 72 70 70 71 69 68 67 66 65 62 57 51 47 41 37 32 29 27 26 24 23 23 22
90 78 70 69 68 62 65 68 66 72 77 82 84 78 80 80 79 76 72 69 69 75 72 70 66 65 65 64 64 63 63 62 61 61 61 61 60 57 53 49 44 38 34 31 28 26 25 25 25 23 22 22 21 21
82 74 64 61 61 66 76 77 76 79 82 84 83 80 74 68 63 61 61 57 57 61 62 61 60 60 59 58 56 56 55 54 54 53 50 46 44 42 39 37 34 31 27 25 24 23 21 21 22 23 24 24 24 24
68 71 72 73 74 78 76 78 77 72 68 67 69 74 67 57 50 45 51 53 54 55 55 54 54 54 52 51 50 48 45 43 41 41 41 40 38 37 32 27 25 24 24 24 23 23 24 24 24 25 26 26 24 25
38 43 46 53 52 55 56 57 52 49 53 54 51 50 46 39 42 47 50 51 52 52 53 52 50 49 48 48 48 48 48 48 46 43 42 38 33 28 27 25 24 24 26 28 26 27 25 25 24 24 24 24 24 25
40 38 35 36 35 36 39 40 40 40 38 41 42 40 36 38 44 48 47 47 50 51 51 51 50 49 48 47 46 46 45 43 42 38 36 34 32 30 29 28 26 24 25 25 26 26 25 24 23 23 24 24 25 27
36 38 36 35 34 30 34 34 34 36 40 41 41 37 34 38 42 45 47 49 51 52 52 51 50 50 50 50 47 42 39 37 36 32 28 27 26 23 22 22 22 23 23 24 24 23 22 23 24 25 25 27 27 28
35 33 34 30 28 28 30 30 32 33 34 34 32 36 36 38 40 44 47 50 51 52 52 52 51 48 45 43 42 42 40 35 28 25 24 24 23 21 21 23 25 26 26 26 26 26 26 25 26 27 28 29 29 30
32 28 23 26 25 27 31 32 33 34 34 32 33 37 39 40 44 46 48 49 50 52 53 52 50 48 44 41 39 35 28 23 24 24 26 27 27 27 28 29 29 28 27 26 27 27 27 28 28 28 28 29 32 34
31 26 24 28 31 33 33 34 34 35 35 32 34 38 41 45 47 50 50 51 52 52 50 48 46 45 43 40 32 24 22 22 23 23 25 28 29 29 30 29 27 27 28 28 27 28 28 28 28 29 31 33 34 36
25 23 27 31 35 35 35 36 36 34 32 34 36 37 40 45 48 50 51 52 50 48 47 45 44 43 40 34 28 24 23 24 22 22 23 23 24 24 25 26 28 29 27 25 27 27 27 26 28 30 33 35 35 35
26 27 30 34 37 38 39 38 37 38 39 40 41 41 43 45 49 50 50 49 49 47 45 44 42 38 33 30 26 25 24 24 23 22 23 24 25 27 29 30 29 25 25 27 28 26 26 29 31 33 35 34 35 35
32 29 30 32 37 40 41 42 41 43 43 44 45 46 48 48 49 48 48 49 48 47 46 43 38 34 29 27 27 26 26 25 24 24 25 27 28 29 30 30 28 27 28 28 26 28 31 33 34 34 34 33 34 34

GFSWCAN_prec_cthk_048.txt.gz
RH
54 53 58 68 75 82 86 86 81 78 80 86 91 94 95 98 98 98 98 99 98 98 97 98 95 96 98 97 94 89 95 95 97 92 86 85 84 74 70 71 72 70 77 74 73 77 59 37 48 56 61 54 52 55
93 95 97 98 98 98 98 97 96 94 93 95 97 97 97 97 97 98 97 99 99 98 98 95 92 95 93 87 88 89 81 83 84 88 87 83 80 78 72 73 67 72 64 67 63 52 43 42 42 46 64 63 59 63
97 97 97 96 97 98 98 98 98 98 98 99 98 98 92 91 94 96 98 98 99 98 98 97 93 95 95 93 93 92 88 84 83 81 84 80 73 70 72 70 66 66 66 65 64 48 49 39 33 48 49 61 64 69
98 98 98 98 98 97 97 94 90 85 84 85 87 89 92 94 92 92 86 88 96 98 98 95 90 85 84 85 86 88 88 89 89 90 88 81 75 68 70 65 64 63 64 63 56 50 48 42 47 41 47 66 74 73
92 91 91 90 90 91 93 92 88 83 80 79 78 79 80 80 93 95 92 82 78 84 88 85 83 82 83 84 84 87 93 92 95 95 97 84 78 77 75 72 67 66 66 69 62 67 65 62 62 60 64 69 81 82
90 92 92 93 93 95 95 94 91 87 81 77 79 79 80 79 87 99 99 96 89 90 92 89 82 76 75 80 91 97 99 97 96 98 95 84 78 79 80 75 70 67 67 72 68 66 65 62 60 63 71 75 84 92
94 93 90 92 94 92 87 86 86 83 79 76 76 81 89 94 96 95 87 77 85 99 94 89 81 75 70 69 88 90 89 95 98 97 89 85 83 83 87 78 72 75 81 81 90 82 80 80 75 71 75 82 89 88
84 89 97 95 98 98 98 98 97 89 88 86 86 90 99 99 99 99 86 76 83 86 84 80 76 77 74 69 76 85 88 90 92 97 97 90 94 96 88 71 73 80 90 93 99 98 92 84 78 74 83 85 90 87
84 92 99 99 99 99 97 96 91 90 96 96 98 100 99 99 99 96 92 93 87 83 76 72 85 92 85 80 86 90 94 93 84 86 93 91 87 86 77 76 74 77 91 93 93 89 83 80 80 83 91 90 91 88
80 88 96 99 98 98 96 94 93 97 96 99 96 99 99 98 97 95 96 91 92 89 89 91 91 99 84 92 85 81 79 84 94 97 97 95 86 81 79 83 87 93 91 90 89 85 81 83 87 89 91 94 92 89
81 90 93 98 98 99 98 97 87 82 92 97 91 90 95 96 98 99 97 93 90 92 94 95 98 98 90 99 91 81 79 86 91 98 94 91 96 92 92 91 94 91 92 91 91 97 98 91 89 92 91 92 88 86
86 86 89 91 90 97 96 98 99 95 84 79 79 91 97 96 96 98 96 98 96 95 98 99 99 99 95 98 95 88 86 87 92 94 96 89 87 86 88 91 94 96 95 93 94 94 95 95 94 95 95 92 87 89
94 92 89 89 91 91 96 98 95 91 88 89 88 91 91 91 94 96 91 95 95 95 92 92 95 97 94 94 91 92 92 90 88 91 91 87 83 85 86 90 94 95 97 97 97 97 96 97 95 94 95 94 93 94
96 93 92 91 90 89 88 86 86 85 83 82 82 86 84 85 85 87 88 85 86 89 89 90 88 94 96 94 97 95 91 85 86 85 85 84 86 87 91 91 94 96 97 97 96 96 96 96 96 96 96 96 95 96
97 94 89 88 87 87 86 82 76 73 72 74 74 83 82 82 82 82 84 85 85 85 85 85 84 92 97 97 93 90 89 89 85 84 86 88 86 91 93 95 94 95 95 96 97 96 96 96 96 95 96 95 94 93
91 91 89 89 87 85 84 80 74 72 74 76 80 84 85 86 86 87 88 88 88 90 95 93 92 93 94 95 90 92 88 88 87 87 90 88 87 87 89 91 93 94 96 96 97 97 97 97 97 97 97 97 97 96
86 85 85 86 86 84 81 76 71 70 75 78 83 85 85 86 87 86 87 90 89 95 97 96 95 94 89 91 94 94 93 89 93 92 92 92 92 92 93 94 97 97 97 97 96 97 96 97 97 97 96 97 96 95
87 85 82 80 79 78 76 71 68 71 78 79 82 83 86 91 97 97 97 97 97 97 97 97 91 90 90 88 89 96 97 97 97 97 97 97 97 97 97 97 97 97 97 97 97 97 97 95 90 84 78 71 62 53
94 93 86 76 70 68 70 71 67 73 82 88 95 96 97 97 97 97 97 97 96 95 94 91 90 93 95 94 94 97 97 96 96 97 97 97 97 97 97 97 97 96 95 92 88 83 74 63 55 49 44 39 34 31
93 92 88 83 77 65 67 69 64 68 78 88 96 97 96 97 96 95 93 93 93 92 90 91 95 96 97 97 97 96 97 97 96 96 96 96 94 90 84 78 75 72 70 66 60 54 48 43 38 34 31 29 26 25
94 89 80 73 72 69 63 64 68 69 81 91 93 89 89 88 89 92 90 88 86 93 94 95 97 97 96 93 90 87 83 77 71 67 66 64 64 64 65 65 62 59 53 47 40 35 31 29 27 26 22 19 19 18
84 78 72 69 65 63 64 67 70 79 84 84 83 82 83 81 77 75 74 77 75 77 74 75 72 68 65 63 63 63 63 63 63 63 64 64 64 61 56 51 44 38 34 31 27 23 20 20 21 21 20 19 19 18
65 62 61 61 60 64 72 77 81 81 78 86 87 80 77 69 65 60 56 55 57 59 60 60 60 60 59 59 58 58 58 57 58 57 53 48 45 42 39 35 31 27 22 20 20 19 18 19 21 23 24 24 24 23
55 53 53 53 56 68 69 72 72 78 83 85 80 74 65 55 47 46 51 53 54 55 55 54 54 55 55 55 55 53 50 46 44 42 42 40 37 34 30 26 24 23 22 23 23 22 23 23 23 24 25 25 24 23
59 65 60 63 65 70 75 80 80 77 71 66 61 54 48 40 44 49 50 50 51 52 52 52 52 51 49 47 47 47 46 45 44 42 40 37 32 28 27 25 24 24 24 26 26 26 26 25 25 24 24 24 23 23
60 65 65 68 64 57 54 53 51 49 46 46 45 41 37 38 41 46 45 46 48 49 50 49 47 46 46 46 47 47 46 45 41 37 34 32 30 28 27 25 24 22 23 23 24 25 26 26 26 26 25 24 25 28
35 39 38 38 37 36 38 38 36 35 37 39 39 34 30 37 40 43 45 47 49 50 51 51 51 50 49 48 44 41 38 36 32 28 26 23 20 18 18 19 21 23 24 25 26 27 27 26 26 24 25 27 29 28
32 31 31 30 28 27 30 31 31 33 33 34 30 33 35 38 42 45 47 49 51 53 53 51 49 48 46 43 42 40 35 30 25 23 21 22 22 21 22 23 26 27 28 29 29 30 30 27 27 29 30 28 28 29
31 27 23 26 25 27 30 32 33 34 34 32 34 40 42 43 45 49 51 53 54 54 53 51 50 48 44 41 38 33 25 23 25 24 23 23 25 25 26 27 27 27 27 28 28 27 27 28 30 28 28 28 30 32
30 28 28 30 32 34 34 34 34 35 35 35 36 41 44 48 51 53 55 55 55 54 53 51 47 45 44 39 32 25 25 25 23 22 22 23 24 24 24 24 25 26 27 29 27 28 29 28 27 27 28 31 33 35
32 29 29 33 36 36 35 35 36 37 38 40 42 42 45 48 51 54 56 56 54 53 50 48 46 44 40 35 30 27 26 25 24 24 24 22 22 23 25 26 28 29 28 25 26 28 27 27 27 29 31 32 33 34
29 28 29 35 39 39 39 37 37 40 42 44 46 45 46 47 51 53 54 52 51 49 48 47 45 40 35 31 27 26 26 26 26 25 24 24 25 26 27 29 30 29 27 27 28 27 27 28 30 31 31 32 32 31
32 28 30 34 38 37 37 37 37 43 45 47 46 46 48 50 51 51 50 50 50 49 48 46 41 35 28 28 28 29 29 29 28 27 27 27 28 28 28 30 30 29 28 28 28 29 30 31 31 30 31 30 30 33

GFSWCAN_prec_cthk_051.txt.gz
RH
85 79 72 62 54 51 50 56 68 74 75 74 70 62 57 42 46 61 71 84 92 93 93 93 88 94 96 98 98 94 98 98 96 93 91 86 81 72 67 73 76 68 70 70 70 70 61 40 53 55 45 41 41 45
99 99 97 92 85 81 82 83 86 88 88 80 73 64 55 51 62 76 84 90 98 99 93 94 93 94 93 89 93 95 88 89 91 91 88 84 81 76 70 70 70 75 65 66 61 51 42 49 55 51 47 41 41 42
98 98 98 97 97 98 98 98 98 98 96 90 83 78 79 80 81 86 90 96 99 97 97 98 95 88 91 92 94 96 90 90 87 84 85 82 77 73 73 67 64 66 63 60 56 47 46 47 53 56 52 45 41 41
98 98 97 97 98 98 98 98 98 98 98 98 98 97 98 98 99 98 98 98 98 98 98 96 89 88 88 95 97 94 93 92 92 95 93 88 82 71 71 64 62 59 60 60 54 52 52 56 60 58 61 57 53 52
88 89 91 88 89 91 93 95 96 97 98 98 96 98 98 98 98 98 98 98 97 95 97 93 85 84 91 95 96 90 94 94 93 97 95 94 85 84 78 71 65 62 60 61 57 63 62 60 63 65 62 56 51 57
96 94 93 92 90 91 91 91 91 94 93 92 92 94 98 99 99 99 99 98 98 98 98 96 85 83 82 82 82 82 86 93 95 96 97 94 90 91 86 76 71 70 67 66 66 67 68 67 68 64 66 61 63 60
92 93 90 88 87 90 91 90 91 93 91 91 91 91 91 94 99 97 95 87 93 98 97 95 83 79 78 79 81 85 90 96 98 98 94 97 95 93 96 82 73 73 76 73 66 67 72 68 71 74 72 76 70 68
95 98 98 98 97 98 97 93 86 85 89 90 91 94 94 92 93 94 94 88 97 98 98 93 86 84 79 77 77 81 96 99 98 98 97 96 92 95 88 74 73 72 72 70 67 73 78 78 84 89 92 88 80 77
96 97 95 91 88 83 86 91 92 94 92 91 95 99 99 97 92 91 99 97 97 97 93 86 85 86 87 76 72 82 90 97 94 98 95 94 98 95 77 74 73 76 72 70 73 79 86 88 92 91 89 88 78 78
95 97 98 95 88 97 97 98 98 98 99 96 98 99 99 96 94 94 99 99 94 89 85 77 72 80 94 85 80 82 90 94 96 96 96 86 86 86 82 77 75 72 70 73 84 82 85 85 88 86 86 83 83 91
95 98 99 97 94 93 99 96 94 97 98 99 98 92 93 98 99 98 94 89 88 82 74 70 75 87 88 98 89 84 92 98 98 97 91 83 79 83 85 87 82 84 86 86 86 86 85 86 86 90 94 92 93 95
92 97 98 98 95 95 97 92 97 91 90 85 84 93 95 94 93 89 87 88 83 80 85 86 85 86 87 98 98 94 94 93 93 84 82 79 80 84 82 84 82 84 88 90 91 91 90 88 90 95 96 96 94 95
89 94 98 98 94 99 89 89 91 90 85 77 80 87 84 82 85 85 82 83 87 86 91 95 98 98 99 97 99 96 95 85 79 80 78 75 74 81 82 83 84 88 90 96 96 97 96 95 96 96 95 96 97 94
92 90 91 94 93 86 88 88 87 84 78 76 75 78 79 79 78 82 86 88 91 91 97 98 98 97 94 95 90 85 86 85 82 77 77 76 78 78 81 83 86 92 97 97 96 97 97 97 97 97 97 97 97 97
94 93 91 89 89 86 82 77 78 76 76 80 80 85 83 83 84 89 89 90 90 93 93 96 94 95 95 95 92 91 90 90 83 81 80 81 83 85 89 92 96 97 96 96 96 97 97 97 97 97 97 97 97 97
93 92 90 89 90 89 85 78 74 71 74 75 79 83 84 84 83 84 84 86 88 90 90 89 88 91 97 96 91 93 88 88 87 86 87 87 88 90 92 96 96 96 97 97 97 97 97 97 97 97 97 97 97 98
81 84 86 88 85 82 80 76 73 76 80 84 89 89 89 89 89 88 89 89 88 89 92 90 88 93 88 86 90 94 93 92 94 92 92 95 93 90 90 91 93 96 97 97 97 97 97 97 98 98 97 96 93 88
79 77 79 79 81 78 74 70 71 74 79 81 85 89 89 92 91 92 94 91 89 94 95 95 90 90 92 91 94 94 96 97 97 97 97 97 97 97 96 95 96 97 97 97 98 98 97 95 88 80 70 62 55 49
82 77 74 72 72 72 70 67 69 81 91 92 94 95 96 97 97 97 97 97 97 96 96 96 95 95 96 97 97 97 97 97 97 97 97 97 97 97 97 97 97 97 98 97 93 84 74 64 55 46 39 34 29 27
83 77 70 65 62 61 67 68 71 76 89 95 97 97 96 97 96 97 97 97 95 92 92 94 97 98 98 97 97 97 97 97 96 97 97 97 97 94 89 85 81 76 70 62 56 49 44 38 33 30 28 26 23 21
78 74 71 65 57 58 66 70 71 77 92 96 94 95 96 94 94 96 96 93 89 94 96 98 98 97 97 96 96 96 93 86 75 69 66 66 66 66 66 65 61 57 51 45 39 33 29 27 25 22 21 19 18 18
68 66 64 61 58 57 64 70 75 83 90 88 88 81 79 79 78 78 77 81 89 94 92 91 89 82 73 67 65 65 64 64 64 64 64 64 64 60 55 49 42 36 34 31 28 24 23 24 25 24 22 21 21 20
66 63 60 59 61 64 76 82 82 83 82 88 79 68 65 61 60 61 60 59 61 63 64 64 63 63 62 62 61 61 62 61 59 57 53 48 44 41 38 35 31 26 24 23 22 22 22 24 25 26 25 25 25 25
56 56 56 56 60 72 74 73 70 75 83 82 71 64 57 50 47 48 53 55 56 57 57 57 57 58 59 59 57 55 50 47 44 43 42 39 34 30 28 26 24 23 22 22 22 23 23 24 25 26 26 26 26 26
47 54 53 56 62 67 70 71 79 81 76 67 60 55 48 42 45 50 52 53 54 55 56 58 59 56 52 49 48 48 47 45 43 39 36 33 29 26 25 24 23 22 22 22 22 23 24 24 25 26 26 27 27 25
49 55 60 64 66 68 76 77 70 60 52 48 46 42 38 38 41 49 50 52 54 56 56 55 52 52 51 50 48 47 45 42 38 34 31 29 27 24 22 20 19 19 21 22 24 24 25 26 28 28 28 27 26 27
67 71 70 65 60 54 52 48 44 39 38 40 38 33 31 40 44 48 51 54 55 56 56 55 54 50 49 47 44 40 36 33 30 27 24 23 22 19 18 20 21 24 25 27 28 29 29 30 30 28 27 28 29 31
42 40 38 36 35 35 36 35 33 33 35 37 31 35 39 44 47 50 52 55 57 56 54 53 52 49 46 44 40 36 33 28 24 26 27 25 22 21 22 24 25 26 27 28 29 29 29 28 27 29 31 31 30 29
30 28 25 29 29 30 31 33 34 34 36 33 35 40 43 47 50 53 55 57 57 56 55 53 51 49 44 41 38 32 26 27 29 27 24 23 24 25 24 25 25 25 26 27 28 27 27 29 30 29 28 29 29 31
31 30 29 32 34 35 35 35 36 36 34 33 37 43 46 50 54 56 57 58 59 58 56 52 48 46 43 38 30 27 28 27 25 23 24 24 25 24 24 24 25 26 28 30 28 28 28 28 28 27 29 29 31 32
30 29 32 36 37 37 36 36 36 35 34 36 40 41 46 50 54 56 58 59 58 56 53 49 48 46 41 33 29 27 26 25 25 25 26 26 26 26 26 27 28 30 31 30 29 29 29 29 29 30 30 31 30 30
30 30 31 35 38 37 38 37 36 38 39 39 42 45 48 49 53 56 58 57 55 52 50 49 47 40 33 28 26 26 27 28 29 29 28 28 27 28 29 29 29 30 31 31 30 30 30 31 31 30 29 29 29 29
36 33 32 33 36 36 37 37 37 40 41 45 48 49 48 50 53 55 55 54 53 52 50 48 42 29 26 26 28 31 32 33 32 30 29 29 29 30 30 30 30 30 30 31 32 32 31 30 29 30 30 29 30 34

GFSWCAN_prec_cthk_054.txt.gz
RH
89 94 94 93 90 86 74 65 52 50 59 67 70 72 71 70 68 69 64 69 68 62 62 75 77 89 91 94 96 96 99 98 98 96 90 86 85 79 75 78 72 68 65 63 56 69 70 45 41 45 60 48 42 38
98 98 98 99 98 97 85 62 52 49 53 61 66 73 77 77 72 68 62 62 68 72 74 75 85 89 90 90 92 96 94 95 93 88 83 84 85 82 73 74 74 76 57 57 52 55 57 61 63 57 55 48 46 44
98 98 98 98 98 98 94 87 80 75 77 81 81 80 81 82 75 72 56 53 67 77 83 94 92 86 93 95 96 97 95 96 94 88 94 88 89 79 80 70 67 61 64 65 64 61 61 57 56 55 55 54 51 52
97 95 93 93 94 95 96 94 93 92 94 91 89 88 82 76 71 67 54 56 80 89 94 88 92 88 83 93 95 96 96 96 96 96 94 91 86 77 77 72 68 64 63 63 62 63 62 59 59 58 59 58 57 58
96 94 90 90 90 85 93 97 97 97 95 97 98 93 85 80 72 69 70 78 87 96 96 94 89 89 88 90 93 98 99 99 97 98 97 95 86 84 78 72 66 64 63 65 64 67 63 58 59 56 55 56 57 58
91 91 89 88 88 90 88 88 93 97 98 98 99 98 98 98 97 91 93 97 98 99 98 94 87 85 87 90 95 98 98 99 98 99 97 92 89 92 84 72 69 71 68 67 66 66 64 62 62 62 62 60 60 61
93 95 97 94 90 85 93 93 93 95 98 98 98 98 98 98 97 97 94 85 96 98 97 92 88 85 85 89 92 97 96 93 97 97 94 95 93 88 88 79 77 75 72 69 67 67 69 66 67 66 68 68 67 69
94 93 91 90 91 96 89 92 95 95 97 98 98 97 98 98 99 97 95 92 95 99 98 93 86 83 81 81 85 90 97 95 93 94 94 91 91 93 88 80 77 77 79 76 72 73 71 69 69 71 75 80 79 81
93 97 93 98 81 90 97 94 91 97 97 98 98 99 99 99 98 98 96 96 97 94 92 86 83 82 82 80 80 84 87 94 96 96 98 97 94 90 80 77 77 76 74 73 71 72 72 71 72 74 80 88 93 90
98 97 95 94 94 97 94 98 98 97 98 99 99 98 99 98 98 98 99 99 99 98 90 79 80 86 84 85 80 81 83 89 95 96 99 98 91 88 82 79 77 72 71 68 69 68 71 71 78 81 87 88 90 92
95 97 96 90 95 98 97 97 98 95 96 99 98 98 91 96 97 98 98 97 95 91 80 77 77 80 84 98 87 81 87 90 90 94 96 95 91 82 78 76 74 73 76 76 76 77 82 84 85 86 84 85 88 92
98 98 94 94 95 94 99 96 99 91 90 86 86 88 91 98 98 94 88 88 80 75 74 73 69 75 84 89 93 88 89 93 91 90 90 81 79 77 77 80 80 78 82 84 85 91 94 94 93 91 90 88 90 91
97 94 91 89 89 93 94 89 95 91 89 91 89 96 91 86 91 87 87 82 81 75 74 73 81 85 86 89 97 94 93 89 85 93 90 77 76 75 76 81 82 80 83 85 88 93 97 97 96 95 94 94 96 97
97 93 84 85 86 87 87 91 91 86 83 82 79 81 75 70 71 69 70 73 77 82 83 91 91 96 96 98 98 96 91 88 91 86 81 76 74 77 78 82 82 83 84 86 90 94 97 96 97 97 97 97 97 97
92 90 89 84 83 84 86 89 86 78 71 71 67 72 74 74 77 79 81 84 90 92 94 97 98 98 97 95 95 94 92 90 85 78 74 75 80 83 84 84 87 87 90 94 96 97 97 96 97 97 97 97 97 97
90 89 88 87 85 83 79 79 80 77 81 80 79 80 82 84 85 88 89 91 96 97 98 96 94 94 94 92 90 89 85 82 85 85 86 86 87 87 87 88 91 93 96 97 97 97 97 97 97 97 97 97 97 97
90 90 88 85 83 83 82 78 74 76 77 78 82 81 82 82 83 83 85 86 92 93 93 89 84 87 87 85 90 88 88 88 91 94 95 94 94 94 95 95 96 96 96 97 97 97 97 97 97 97 97 93 86 78
78 83 86 85 83 79 75 72 73 73 79 83 84 86 87 87 86 87 89 90 89 88 87 88 82 82 94 91 90 95 94 97 98 98 98 97 97 97 97 97 97 98 97 97 97 97 96 94 89 82 75 64 55 50
74 73 74 77 78 76 72 72 75 83 82 83 85 86 89 90 90 89 90 89 87 92 93 93 93 94 95 94 96 97 98 97 97 97 98 97 97 97 97 97 97 97 97 96 91 83 76 69 62 56 49 43 37 32
75 72 70 69 69 70 70 75 80 85 95 96 96 95 94 94 95 95 96 95 93 93 94 94 96 97 97 97 97 97 98 98 98 97 98 98 97 95 90 86 84 81 76 68 60 54 50 45 38 35 32 30 28 26
70 67 63 61 62 66 75 76 80 93 97 96 97 96 97 97 97 96 95 95 94 97 96 97 97 97 97 97 97 98 97 97 93 80 73 70 69 68 67 64 60 56 53 49 43 36 34 33 27 23 21 19 21 24
68 66 60 55 58 67 72 75 86 94 87 86 83 86 89 93 95 96 94 94 96 97 97 97 97 96 90 79 69 67 67 68 67 67 67 67 67 62 54 47 41 35 34 35 32 30 29 26 25 24 22 23 23 25
62 62 62 61 64 70 82 88 89 88 73 68 62 62 67 71 72 72 77 75 72 72 70 67 66 65 65 66 66 66 67 67 64 60 52 45 40 37 35 32 30 29 30 26 25 28 24 23 24 25 25 27 30 29
57 58 61 63 68 77 78 77 79 78 66 60 57 57 58 57 57 58 58 59 60 61 63 64 66 67 67 67 65 59 52 45 42 40 40 39 35 32 30 28 26 25 23 21 20 20 20 21 23 24 24 25 26 28
53 60 61 61 66 67 68 73 79 71 62 56 50 49 48 47 50 51 53 55 58 60 62 64 64 63 60 54 50 46 45 46 43 37 34 32 29 27 26 24 22 20 19 24 21 21 21 22 23 24 25 26 28 28
52 60 61 63 67 64 68 74 69 56 48 47 45 42 41 41 44 51 54 58 60 62 62 61 57 55 54 53 51 49 43 39 35 33 29 27 25 26 26 25 25 21 20 22 24 26 26 27 28 29 30 30 29 30
55 60 64 69 67 69 68 60 48 42 42 41 39 34 34 41 47 51 56 59 60 58 56 54 55 54 50 47 44 39 36 32 29 26 26 26 25 23 21 22 23 24 26 27 27 28 29 30 31 30 30 30 31 32
63 63 64 64 57 49 43 39 37 36 36 36 30 36 39 44 50 55 57 59 59 58 57 56 54 50 46 43 39 36 32 28 29 29 27 25 23 22 22 23 24 25 26 26 28 29 29 29 29 31 33 33 31 31
42 41 36 36 35 34 35 33 32 34 37 32 33 37 43 49 53 56 58 59 58 57 57 55 52 50 45 42 38 31 30 30 30 26 24 24 24 25 25 25 25 26 26 28 29 29 29 30 31 30 30 30 31 32
32 31 30 33 33 34 35 35 36 34 33 33 37 41 46 50 55 57 59 60 60 60 59 56 51 47 43 37 30 30 28 26 24 24 24 25 26 26 26 26 27 27 28 30 31 32 32 31 30 31 32 32 32 31
31 32 32 35 37 39 38 37 37 38 38 41 42 42 44 50 55 59 60 61 62 61 59 55 52 48 40 31 28 25 25 26 27 28 29 29 29 28 28 28 29 29 30 31 32 32 32 32 33 33 33 31 29 29
33 33 32 38 41 41 40 39 40 42 44 44 44 43 47 53 55 57 60 62 63 59 55 52 48 40 29 25 25 26 28 30 31 32 31 31 31 30 30 30 31 31 32 32 32 33 34 34 33 31 30 30 31 30
37 35 35 36 39 39 39 38 37 40 41 42 44 46 48 51 54 58 60 60 58 54 52 48 39 26 24 26 28 30 32 32 32 32 31 31 31 31 31 31 31 31 32 34 35 35 34 32 31 32 32 31 31 35

GFSWCAN_prec_cthk_057.txt.gz
RH
88 89 91 94 97 98 98 98 92 87 80 63 58 66 75 76 81 84 84 89 87 77 64 70 73 78 80 80 93 93 96 98 96 92 85 83 82 77 71 82 77 71 70 65 61 73 63 60 56 47 64 73 68 56
88 91 94 96 97 98 98 99 98 85 76 64 54 64 69 75 78 76 78 80 82 82 65 62 56 63 79 85 93 97 91 98 85 86 80 89 85 80 75 76 85 79 63 67 56 58 62 61 63 69 68 69 62 51
95 96 97 97 98 99 99 98 99 84 60 56 51 60 66 72 75 72 75 79 81 81 72 64 50 64 76 85 91 98 93 93 95 87 91 89 88 82 84 73 80 75 84 71 77 61 80 62 66 67 59 55 52 48
98 98 98 94 91 93 96 99 96 86 58 48 47 55 61 69 70 72 74 77 81 78 71 52 64 78 83 92 91 95 94 95 98 98 96 92 91 82 83 79 75 73 77 70 76 75 72 67 70 64 60 54 51 47
98 95 91 92 90 89 89 93 96 89 83 73 69 70 75 76 82 84 80 72 78 69 74 78 83 83 87 90 96 97 98 97 97 97 96 94 89 86 82 84 80 73 72 74 76 78 74 78 74 67 57 50 49 48
93 93 95 93 89 87 88 87 97 93 87 87 86 85 87 89 86 85 83 70 74 70 94 97 94 91 85 91 94 97 98 98 98 99 92 86 83 84 93 84 78 78 76 78 81 86 81 72 64 57 57 56 56 55
95 94 92 89 93 87 84 87 93 97 95 92 95 96 89 80 78 78 77 53 72 96 97 97 95 87 88 93 97 97 98 99 96 97 92 96 89 90 88 87 93 88 82 77 73 69 68 67 67 68 66 62 60 63
94 94 95 97 87 95 87 89 90 94 97 98 98 98 98 99 99 89 80 75 83 98 98 98 95 90 88 93 97 98 98 98 97 94 91 88 89 90 94 87 82 79 80 79 78 77 75 73 71 70 69 66 66 67
98 97 95 91 76 90 91 91 94 97 98 98 99 99 99 99 98 99 94 93 94 98 96 90 88 89 86 85 86 91 94 96 93 88 85 85 84 92 90 82 83 83 82 79 78 76 74 72 70 68 66 68 72 72
99 97 92 94 91 96 95 92 96 98 99 99 98 98 98 98 98 98 99 98 99 98 96 88 83 95 82 84 83 88 88 87 90 91 91 89 94 92 88 85 83 81 77 76 74 70 71 70 67 67 68 70 73 75
94 96 97 95 97 99 98 92 97 98 98 99 98 97 95 98 98 99 98 98 96 94 87 85 86 88 81 89 88 82 85 82 79 82 92 97 89 86 86 85 83 79 77 75 76 78 77 77 75 76 80 82 83 83
91 93 96 95 98 98 96 98 99 98 97 97 93 95 99 98 98 97 96 93 86 82 77 81 81 86 83 90 96 85 87 84 83 86 89 88 82 84 82 84 82 80 78 79 78 79 82 83 84 88 93 94 92 90
90 89 95 95 94 97 97 99 99 98 95 94 94 94 92 95 93 89 83 80 77 74 71 68 73 77 78 82 88 96 92 86 80 91 89 77 76 81 78 82 80 80 81 82 80 81 83 84 85 91 96 97 96 96
89 89 88 87 98 94 94 96 98 97 94 87 87 85 88 81 75 71 72 74 74 72 72 70 70 71 81 84 87 98 91 91 88 87 81 81 87 87 86 83 81 82 81 84 84 84 85 88 91 94 96 96 97 97
87 89 89 90 98 96 92 89 88 82 77 75 79 81 76 71 75 72 73 74 76 80 78 85 90 92 93 98 95 97 96 92 89 86 84 86 85 87 86 85 88 87 87 87 88 89 91 94 96 96 96 96 96 97
91 86 89 90 92 91 91 83 77 72 73 75 76 76 75 76 79 80 78 79 85 89 91 96 96 98 97 95 95 93 92 88 88 86 87 87 86 85 84 86 89 90 90 91 93 96 96 97 96 96 96 96 97 97
92 89 84 85 88 87 86 83 83 83 86 85 85 86 88 87 89 91 93 96 98 98 97 97 95 96 91 91 90 88 90 91 90 91 94 94 93 94 93 93 94 96 97 97 97 97 97 97 97 97 94 88 82 75
93 90 88 86 84 83 83 81 80 81 82 84 81 84 85 86 87 88 90 91 97 95 94 93 87 88 90 91 89 93 94 96 96 96 95 97 97 97 97 98 98 98 98 97 97 98 97 94 88 82 75 69 62 55
80 85 89 89 86 80 79 80 81 79 84 85 87 85 83 83 83 85 88 88 90 90 89 87 88 86 90 95 95 95 96 97 98 98 98 98 98 97 97 97 97 98 97 96 93 86 79 72 64 56 48 43 41 39
74 75 79 83 82 80 79 85 88 87 85 85 87 88 89 89 90 89 89 87 85 86 91 92 93 95 95 97 97 97 98 98 97 97 97 98 98 98 95 91 89 86 80 71 63 53 46 39 35 34 33 33 36 32
75 71 71 74 78 80 83 87 92 96 96 93 92 88 89 89 89 90 92 92 92 93 95 97 97 98 97 97 97 97 97 98 98 97 95 85 77 75 73 71 67 61 55 48 42 38 36 33 31 30 29 28 27 27
71 67 67 67 72 81 85 91 95 95 94 90 87 88 91 93 94 95 94 93 96 98 98 98 98 98 97 96 91 81 75 71 71 71 71 70 69 65 57 48 43 41 39 36 34 33 32 31 30 29 28 27 27 28
66 65 64 68 73 80 92 84 76 76 81 86 87 90 93 94 92 88 88 87 87 87 86 85 82 75 69 68 68 68 69 69 67 64 58 50 46 43 40 37 35 34 33 32 32 33 31 27 24 27 27 28 30 30
64 66 67 70 73 84 81 72 61 60 61 62 66 73 77 74 68 66 67 68 68 67 67 67 68 69 69 70 68 64 57 50 47 45 42 39 36 35 34 34 35 34 33 31 30 28 26 26 25 27 28 30 31 33
64 68 70 68 72 72 77 69 60 56 56 54 53 54 54 56 56 56 56 61 63 66 68 68 67 66 65 57 50 49 46 45 43 41 39 37 36 34 33 33 33 32 30 30 28 28 28 29 30 31 33 33 34 35
64 66 69 67 68 68 73 65 55 50 44 43 46 46 49 50 53 57 59 62 64 65 65 64 61 57 54 54 51 47 45 42 40 39 36 34 34 36 35 32 33 29 26 29 30 32 33 33 34 34 35 35 33 30
60 63 64 66 67 67 72 60 46 40 39 39 39 41 39 45 50 57 61 63 62 61 59 57 57 56 53 52 49 43 37 33 31 29 29 28 26 23 29 29 29 29 27 26 30 33 34 34 35 35 34 35 36 37
58 61 66 67 66 69 57 44 39 37 37 35 33 35 38 46 51 57 59 59 58 55 56 57 57 56 54 48 42 37 32 29 30 29 27 24 21 21 21 22 22 23 25 26 27 28 31 32 35 36 37 37 37 36
65 66 62 65 57 49 40 37 35 35 37 35 32 35 40 45 52 55 57 58 57 58 59 57 54 52 48 44 39 33 35 34 34 28 29 31 32 32 25 25 26 26 27 28 30 30 31 31 33 34 36 37 37 35
56 50 43 42 39 38 37 35 36 37 34 35 36 40 45 49 53 56 59 58 59 60 61 60 58 55 49 42 32 29 25 23 23 28 34 35 35 29 28 27 27 28 28 29 32 36 34 33 35 36 39 38 40 39
39 38 37 37 38 39 37 37 36 36 37 39 43 44 45 49 53 57 59 59 59 60 60 56 53 50 42 36 34 31 30 25 26 27 28 28 29 29 29 29 30 29 30 31 32 32 32 34 37 36 36 34 31 30
39 38 35 36 40 41 41 43 41 42 43 43 44 44 47 50 55 59 59 61 64 62 58 55 50 41 27 23 23 24 26 27 28 28 29 30 30 30 30 29 30 30 30 31 32 34 35 35 34 32 32 32 32 31
39 37 36 37 40 42 42 44 42 44 42 42 45 47 50 54 57 58 60 62 60 57 52 47 38 25 22 24 26 27 28 29 29 30 30 31 31 31 32 32 32 33 34 34 34 34 35 36 36 35 33 33 35 39

GFSWCAN_prec_cthk_060.txt.gz
RH
29 56 81 83 84 86 87 90 96 98 99 99 95 86 62 67 84 91 87 91 98 90 83 82 88 88 83 86 96 89 95 89 87 86 80 75 76 77 80 84 86 75 81 71 68 74 74 55 59 66 69 65 68 73
62 80 83 85 88 90 91 93 93 94 99 98 98 89 75 57 82 87 86 91 94 92 78 75 75 75 81 87 97 98 88 98 91 90 78 80 88 85 78 80 88 96 70 70 55 45 52 57 59 66 69 66 76 76
79 86 92 96 98 98 98 98 98 98 98 98 95 86 73 58 70 72 83 93 96 92 84 72 54 63 72 77 88 88 85 93 94 98 96 93 93 82 80 71 83 90 82 68 74 54 54 80 84 68 81 76 81 83
84 90 93 95 94 95 93 92 97 99 98 96 80 72 64 60 65 70 74 83 91 89 79 59 58 49 50 64 72 76 83 91 98 99 98 93 88 87 88 79 80 93 95 75 75 86 81 87 94 74 68 70 68 64
87 93 96 91 89 90 92 87 91 96 96 80 59 59 50 57 62 67 76 78 85 78 80 69 53 45 52 61 71 81 92 94 95 98 97 94 87 87 87 79 78 84 95 93 93 94 97 97 94 83 69 66 65 58
90 91 90 92 92 91 86 84 87 97 88 64 50 48 48 55 67 83 91 84 84 85 87 79 82 87 88 89 89 89 89 98 96 94 98 91 85 88 87 87 95 95 85 82 88 89 88 86 82 79 74 70 64 55
88 90 91 92 95 93 91 84 86 98 86 78 57 49 54 63 76 79 77 74 71 95 98 94 82 88 94 92 94 96 98 98 97 99 96 89 88 88 88 87 96 93 89 85 77 74 77 74 74 71 66 63 59 58
91 94 97 96 93 91 92 83 88 98 86 81 74 74 79 89 90 84 86 81 73 90 98 94 91 97 91 96 99 98 98 98 98 98 95 96 85 91 95 93 87 87 86 83 79 74 71 71 68 65 64 63 62 62
94 98 94 86 87 83 93 85 88 98 90 91 93 92 93 90 87 79 95 94 89 87 93 90 96 95 89 91 94 98 98 98 98 97 94 90 92 96 94 89 88 88 87 84 82 78 77 75 73 69 67 64 63 61
98 97 92 86 90 82 91 88 91 98 99 99 98 99 99 98 96 96 95 90 94 92 89 92 85 94 87 88 85 89 92 91 91 85 90 93 93 89 86 87 86 87 86 83 78 76 74 73 70 68 66 65 65 64
94 94 88 91 89 98 90 93 99 99 99 98 98 98 96 98 99 99 98 98 97 96 86 87 85 90 92 92 88 87 94 90 89 90 91 95 91 89 85 87 89 90 86 82 80 80 75 74 73 74 74 74 74 78
97 93 98 98 98 94 93 97 98 98 98 94 91 94 98 98 94 98 96 95 91 85 88 88 89 96 89 91 96 93 91 89 87 92 93 93 95 92 89 87 86 85 84 81 78 78 80 79 79 78 81 81 82 83
98 97 98 98 97 96 98 99 99 95 97 96 96 97 98 94 99 97 93 87 91 90 85 87 92 94 90 83 89 96 92 86 82 85 86 83 84 85 87 84 83 84 84 84 82 80 80 81 81 80 81 82 84 86
97 97 97 99 99 99 98 98 99 98 95 94 91 87 93 85 85 87 83 82 82 76 78 77 75 76 77 80 84 88 90 89 85 82 77 76 80 80 83 83 84 84 83 84 82 84 84 83 82 81 82 86 88 91
94 97 95 96 97 98 98 98 98 89 87 86 82 83 80 76 75 75 79 77 76 74 71 71 70 73 77 81 82 79 87 89 82 81 84 85 86 87 86 87 89 91 89 88 87 85 84 84 85 88 91 93 95 96
97 95 92 89 91 94 93 92 87 76 81 81 81 78 76 73 72 70 72 73 74 78 78 80 81 82 87 85 91 90 91 89 86 89 89 89 92 93 94 91 90 88 87 87 87 89 92 93 94 96 97 97 97 96
93 96 93 89 82 77 77 73 75 73 73 74 75 75 73 72 72 73 73 73 77 79 80 85 89 90 95 90 91 92 92 91 92 94 92 91 94 96 94 92 90 89 91 93 96 97 98 98 98 96 91 85 79 73
87 82 84 90 95 96 87 78 80 79 82 83 82 81 80 84 84 86 87 89 90 91 90 96 95 94 96 95 93 94 95 96 97 97 97 96 96 96 96 97 98 98 98 98 98 98 97 94 88 82 74 62 53 47
95 95 93 89 88 84 82 83 83 82 85 87 87 87 88 88 89 90 91 94 95 95 94 93 92 91 92 91 94 96 97 97 97 97 97 97 97 97 97 98 98 98 97 97 96 90 81 69 55 48 43 41 41 41
85 89 91 90 91 86 83 87 85 82 81 84 86 85 84 85 85 85 86 87 90 91 92 91 92 93 93 96 97 97 97 97 97 97 97 97 97 97 97 97 96 90 82 70 58 49 43 39 36 33 34 36 40 37
79 81 84 85 89 87 88 90 92 87 85 83 87 86 88 86 87 88 89 89 88 88 91 95 97 97 97 97 97 97 97 97 97 97 98 98 91 79 75 71 68 61 53 49 46 42 39 39 37 35 34 32 31 31
80 82 81 80 85 90 95 95 93 92 89 88 87 86 87 88 88 88 92 91 94 96 97 98 97 97 97 97 97 95 88 81 76 72 71 71 69 65 59 53 49 45 42 42 43 41 38 35 33 33 32 31 28 27
75 77 79 81 86 88 94 97 96 91 84 84 89 87 89 90 92 92 95 97 97 97 97 97 95 91 86 77 70 69 69 69 67 65 61 54 49 45 42 40 39 39 39 35 34 38 34 30 29 28 26 29 33 31
71 73 78 83 75 73 73 78 83 88 91 89 88 92 94 94 91 87 86 84 81 79 77 74 71 69 69 68 67 66 61 55 51 47 47 44 40 37 36 36 35 35 35 35 35 33 29 27 25 31 30 32 35 33
73 76 78 81 74 67 61 64 63 66 77 78 79 77 72 71 64 61 61 63 66 68 69 68 68 67 67 64 55 50 49 49 46 42 40 40 42 41 40 38 37 35 34 37 36 32 30 30 31 33 33 35 35 35
71 72 76 77 76 69 57 55 50 51 51 52 53 53 57 54 56 61 63 66 66 67 67 65 64 61 55 53 53 50 48 46 47 41 37 36 37 40 42 41 41 34 28 28 30 35 39 34 34 34 35 37 35 33
66 69 70 70 74 72 58 54 46 42 45 47 48 50 45 47 54 61 64 64 64 63 63 61 58 56 55 54 52 47 41 40 38 33 31 29 26 24 26 29 30 28 29 28 32 33 34 35 36 36 35 36 38 37
63 66 68 70 71 73 56 42 38 41 39 39 40 39 45 47 53 59 61 61 60 59 57 54 55 56 56 54 50 45 36 32 32 31 29 28 24 22 22 23 24 24 25 27 27 29 34 37 37 38 39 39 38 38
62 64 65 68 68 64 48 39 37 35 38 41 36 38 40 46 51 56 58 59 58 56 55 56 56 54 55 53 48 40 36 34 34 27 29 37 36 34 29 26 29 27 27 31 34 33 32 32 33 33 34 35 39 40
65 66 67 68 60 49 44 41 37 38 39 36 36 38 42 47 51 55 57 58 60 58 58 58 60 58 54 48 38 30 25 21 21 26 33 34 33 29 28 29 28 28 29 31 32 35 36 36 35 38 40 41 41 41
68 63 55 48 46 44 41 38 37 36 36 37 40 42 43 46 49 53 57 60 61 60 62 61 57 53 46 39 35 32 30 23 24 24 25 26 26 27 28 28 28 28 29 30 30 32 33 34 36 40 41 39 35 34
45 42 40 40 42 43 46 46 43 44 45 44 45 46 47 48 52 55 58 62 65 64 62 56 51 41 28 23 21 22 23 24 25 26 26 26 26 27 28 29 30 31 32 32 33 35 36 36 37 36 36 34 34 34
43 41 38 38 40 42 43 44 42 46 45 44 45 46 48 49 52 57 61 64 64 60 54 48 42 28 22 21 23 24 25 27 28 27 27 27 28 28 28 29 30 31 34 35 36 36 34 33 33 33 35 37 40 42

GFSWCAN_prec_cthk_063.txt.gz
RH
33 34 25 25 60 76 77 80 82 84 88 91 97 97 97 89 61 70 85 96 98 83 84 87 85 97 95 94 97 98 96 95 86 83 83 72 73 67 68 70 85 93 88 86 76 73 73 60 70 75 81 79 80 76
36 22 24 56 74 79 83 85 87 89 89 91 96 98 99 97 88 70 86 95 98 88 83 76 73 75 84 83 87 94 98 99 94 90 75 76 76 77 86 91 94 96 90 86 75 65 55 57 63 72 73 69 72 74
19 22 53 74 82 86 89 94 96 98 98 98 98 97 99 98 94 72 82 95 95 87 82 74 63 70 74 75 80 88 94 96 97 94 93 93 93 92 91 85 85 90 90 90 79 81 70 80 92 84 74 72 74 69
25 53 73 80 82 87 91 92 95 96 96 99 98 98 98 98 91 69 79 82 86 92 82 65 65 62 65 64 68 77 84 91 94 96 95 95 99 89 93 88 86 89 92 91 85 97 92 90 92 96 90 86 73 74
51 71 80 83 90 88 87 90 91 91 94 96 98 94 90 88 81 64 75 76 85 89 87 80 64 52 51 56 63 69 73 81 90 98 98 97 98 96 90 85 94 93 98 99 98 98 97 99 99 93 93 92 81 70
74 81 83 85 87 88 89 89 85 86 94 98 89 74 74 75 60 69 77 72 78 92 91 80 67 59 52 44 55 61 67 77 88 96 98 93 95 93 93 95 98 96 97 95 97 98 98 97 96 94 92 86 75 70
82 85 87 88 88 88 90 89 89 84 98 89 59 61 58 50 53 57 62 72 77 84 88 86 74 70 72 55 56 64 78 84 88 96 93 90 86 94 93 93 89 94 93 95 95 98 95 92 91 89 86 80 77 74
89 85 85 88 91 92 92 91 90 89 92 76 52 51 50 55 65 71 89 92 78 84 93 98 92 90 97 98 97 94 96 94 97 97 93 91 91 87 92 88 90 91 91 88 86 87 87 85 84 84 79 75 73 71
90 92 94 94 91 86 91 95 92 97 88 73 50 58 64 69 72 75 83 89 91 87 92 91 93 98 96 97 98 98 99 98 98 98 96 93 92 96 93 89 85 81 84 87 90 89 87 81 80 81 78 74 72 71
98 97 94 97 86 88 89 96 96 92 87 79 73 76 82 81 85 84 88 97 97 95 90 89 82 92 96 97 94 97 98 99 98 93 93 97 96 92 88 87 86 84 88 86 86 86 85 82 82 80 75 72 69 65
90 88 86 85 90 89 91 91 97 93 93 83 83 88 86 84 88 93 90 91 87 85 81 78 76 85 95 97 98 90 93 94 96 93 93 96 91 88 86 87 85 84 87 87 86 84 82 79 78 74 70 69 70 69
89 93 89 88 92 91 90 90 97 91 88 86 92 95 97 97 98 96 92 88 86 83 84 82 81 82 94 96 94 94 95 94 97 97 98 96 89 89 89 90 90 89 87 85 83 82 79 75 73 72 71 72 73 74
92 97 97 98 96 92 97 98 98 95 92 96 98 98 98 98 96 98 86 84 86 88 92 93 96 97 96 92 92 96 98 98 96 98 95 86 83 84 88 89 90 89 85 82 84 83 83 82 79 77 75 75 76 78
94 95 95 96 98 98 99 99 99 98 98 96 95 94 97 90 96 96 86 84 87 91 91 89 92 91 87 85 86 90 93 94 92 86 84 88 88 87 86 83 83 86 85 82 79 81 86 83 81 79 79 80 81 83
99 98 97 98 98 98 98 99 96 93 89 92 88 95 86 85 86 86 88 86 84 78 77 80 79 75 74 76 77 81 88 90 85 87 88 89 87 86 89 89 88 87 88 90 90 90 89 87 84 83 84 85 87 87
95 97 98 98 98 98 98 95 91 84 81 80 82 82 82 79 78 77 77 78 78 76 72 72 70 71 74 74 82 83 83 81 85 89 89 91 89 88 90 92 92 92 93 93 91 89 89 90 89 90 92 93 91 86
91 93 91 94 91 88 89 91 87 85 81 81 82 81 80 78 78 73 73 74 75 78 77 78 77 82 87 82 82 85 88 89 92 91 88 89 88 88 91 93 94 94 94 93 93 92 93 94 96 91 83 77 71 63
94 91 86 82 82 78 76 75 76 79 87 86 81 75 72 72 72 71 75 73 74 74 77 82 87 88 90 92 91 88 89 92 92 91 92 94 96 97 97 97 98 98 97 97 97 97 97 94 87 80 66 54 45 41
87 90 93 95 91 82 77 79 77 78 80 77 79 77 75 78 82 84 84 81 81 81 83 83 88 93 94 93 93 94 95 96 95 96 97 97 97 97 97 97 97 97 97 97 97 94 82 63 48 40 39 42 42 41
98 96 90 89 86 80 85 88 86 86 87 87 86 87 88 90 89 90 89 90 93 92 91 90 95 96 94 94 92 93 95 95 95 96 97 97 97 97 98 98 94 86 77 66 57 49 43 41 38 37 39 41 39 39
85 89 92 97 91 90 89 88 85 85 84 85 84 82 84 83 84 83 84 86 89 93 94 96 95 94 94 95 95 95 96 96 96 96 96 95 87 78 74 72 68 64 57 51 46 43 40 38 36 35 35 34 32 30
85 84 81 82 89 92 89 89 85 83 82 82 84 83 82 83 83 84 86 86 90 92 92 93 96 97 97 96 97 96 92 79 73 72 71 70 69 66 62 58 52 48 45 42 41 39 38 38 36 34 33 32 30 27
88 85 85 87 93 93 94 90 88 83 81 81 82 82 84 84 85 82 87 94 97 98 97 96 97 97 94 85 70 67 68 67 67 65 63 60 56 51 45 42 40 40 38 38 36 36 35 33 32 30 28 29 30 33
81 82 83 79 83 94 97 91 79 79 81 83 82 84 86 84 87 89 95 96 95 92 86 79 73 68 68 68 68 67 64 61 57 51 48 45 42 39 37 36 34 35 35 35 34 33 30 28 27 29 30 31 33 35
82 85 72 69 68 82 92 91 88 82 82 84 88 91 93 93 85 76 70 66 66 68 69 68 69 68 66 65 63 58 54 50 47 45 44 44 42 41 41 40 38 35 30 31 29 29 29 29 30 31 32 32 34 35
82 79 75 67 62 61 64 70 73 78 79 79 76 70 69 62 60 65 65 65 65 65 66 64 63 63 63 56 51 50 50 48 47 42 38 38 40 41 39 33 30 29 29 24 27 30 31 32 33 34 34 36 36 36
76 78 78 70 64 56 54 52 49 53 56 56 57 58 52 56 61 63 64 63 64 64 64 63 62 58 54 55 53 47 47 48 44 36 32 31 27 23 25 27 28 28 25 23 24 26 30 33 35 36 37 38 40 40
69 72 75 73 65 55 49 46 43 46 47 49 46 48 51 53 57 60 62 63 62 63 63 61 58 56 54 50 46 43 41 36 35 35 33 30 27 25 23 23 23 23 22 24 25 26 28 29 31 34 36 38 39 39
66 68 68 71 68 55 44 40 38 38 42 45 41 42 45 48 50 55 58 60 61 61 61 59 58 55 53 51 49 41 37 39 36 30 30 31 32 31 28 25 24 24 25 25 27 29 31 32 31 32 35 37 38 39
66 65 67 70 70 60 46 39 37 38 40 39 35 38 40 45 51 54 55 57 58 59 59 59 59 58 53 47 36 31 28 24 23 25 30 31 32 29 25 26 26 26 27 28 30 32 34 36 37 39 41 43 42 41
62 65 67 69 68 57 45 41 39 38 36 33 35 37 42 47 50 53 56 58 57 60 64 63 60 56 50 43 35 29 26 22 23 23 24 26 26 25 26 26 27 28 28 29 30 32 34 36 37 36 35 34 33 32
67 63 59 57 54 50 47 43 41 41 42 42 43 44 47 49 51 53 54 56 59 64 65 61 55 48 37 29 23 21 22 23 24 25 27 27 27 27 27 27 27 28 31 33 35 34 32 31 31 31 33 36 40 43
56 49 46 46 47 46 44 43 44 47 47 47 48 48 50 50 51 53 54 60 67 66 61 54 48 36 27 22 22 23 24 25 26 27 28 29 29 29 30 31 33 34 33 31 31 32 33 35 38 42 49 53 56 58

GFSWCAN_prec_cthk_066.txt.gz
RH
34 33 31 29 36 33 27 56 70 73 75 77 81 85 88 91 84 77 62 71 84 88 83 84 75 67 80 92 98 94 98 97 89 85 80 78 78 65 62 52 61 73 78 77 68 67 60 43 70 76 91 93 91 88
33 26 33 39 33 24 49 67 74 77 81 82 82 87 91 97 98 94 84 69 87 92 83 80 73 71 82 84 91 90 91 93 99 89 81 81 77 72 61 71 93 97 91 89 81 74 74 67 68 78 84 92 93 93
32 34 35 29 24 42 65 79 83 85 89 92 95 95 95 97 99 98 93 83 88 92 85 78 72 72 74 76 81 87 89 95 98 98 91 87 78 78 79 88 91 97 96 98 93 90 80 79 85 75 83 88 87 88
30 33 30 28 42 62 78 82 85 90 93 97 98 99 98 98 98 99 95 85 87 93 84 69 70 66 66 67 66 69 80 90 93 94 94 85 86 91 95 96 98 97 94 96 98 92 92 89 84 92 91 91 88 81
41 36 30 40 57 75 85 90 89 90 92 94 98 98 98 98 99 98 95 75 84 85 86 83 65 60 62 62 63 67 75 81 88 89 89 91 95 98 98 97 98 99 97 95 96 96 98 98 93 93 97 93 86 80
34 30 36 56 76 85 88 88 89 87 86 90 97 99 98 93 93 95 80 63 71 79 86 76 58 56 62 57 61 64 68 75 80 85 91 92 95 98 99 99 98 98 98 99 98 99 97 97 96 93 89 92 91 82
32 44 61 79 84 87 89 88 88 90 89 91 97 88 81 81 80 67 52 56 64 79 88 80 66 56 54 50 54 59 65 70 75 82 87 87 89 92 99 96 97 97 98 97 97 98 97 97 91 90 91 87 84 83
56 73 84 87 88 90 90 90 92 93 89 95 82 63 69 74 63 59 67 66 65 79 81 79 79 75 68 56 50 51 65 75 80 85 87 91 92 97 96 97 98 96 97 93 92 92 88 85 83 83 82 82 80 79
93 95 92 86 86 91 95 95 91 90 86 88 65 63 61 56 57 68 83 83 75 81 91 93 94 95 98 98 94 92 88 89 89 92 93 94 97 98 97 97 97 96 92 89 89 90 90 87 84 82 81 78 75 74
95 93 95 96 95 95 92 90 88 87 88 74 56 56 60 60 66 85 88 87 95 95 96 94 88 91 94 99 99 96 99 99 96 92 93 96 93 93 93 92 92 92 94 91 90 89 90 89 87 84 82 79 77 74
98 97 96 95 95 94 90 89 88 89 76 55 56 63 65 71 83 80 84 91 97 94 89 83 83 88 91 99 98 97 93 95 94 90 98 95 89 89 90 89 87 86 88 91 90 88 88 88 87 85 84 83 80 80
90 91 95 92 97 93 88 87 89 70 60 60 79 74 80 85 86 90 90 89 85 81 89 88 81 78 85 92 95 94 94 95 96 99 97 92 88 90 90 90 90 89 90 89 89 88 85 83 84 85 84 81 80 79
92 95 92 92 98 91 90 93 84 79 75 92 90 88 83 85 89 82 72 76 83 82 86 89 91 90 92 93 94 96 98 95 94 96 93 90 89 86 84 86 90 91 91 93 90 88 86 86 87 87 87 86 84 83
94 95 91 93 95 92 95 92 89 91 96 95 91 90 95 89 86 83 74 75 79 88 89 93 96 94 89 87 89 89 93 94 94 91 87 86 83 85 85 82 80 79 79 83 87 87 84 83 82 85 89 90 88 85
96 96 96 96 95 99 98 97 94 94 91 88 83 86 85 85 89 93 91 86 88 91 90 90 90 86 83 82 81 84 92 92 86 87 90 91 89 86 87 86 89 87 87 88 89 90 91 91 90 92 94 93 93 92
99 97 99 99 99 98 98 98 95 92 87 84 87 85 87 85 86 86 86 85 84 82 81 79 81 78 72 71 72 75 79 80 81 82 88 88 88 89 90 90 91 93 94 94 95 95 95 95 95 94 94 93 88 80
96 90 98 98 97 96 96 95 94 94 87 87 89 87 83 79 79 77 75 76 74 73 74 72 71 69 71 71 75 80 84 82 84 86 91 89 89 91 91 92 94 95 96 97 98 98 98 97 94 89 83 80 75 67
92 95 98 98 98 97 95 90 87 85 88 85 80 82 79 76 75 72 71 72 73 71 71 74 74 80 88 87 90 92 88 86 86 87 88 88 88 91 92 94 96 97 98 98 98 98 98 94 89 83 72 58 48 42
89 89 92 91 90 88 89 89 84 84 84 82 81 78 73 72 70 71 74 73 71 71 73 73 81 88 90 89 87 88 89 87 88 89 91 92 94 96 97 97 98 98 98 98 96 92 83 67 50 41 38 38 38 40
97 96 96 90 82 81 82 83 79 78 79 80 76 75 77 79 80 81 81 78 75 76 80 83 86 88 88 86 85 86 87 90 92 94 96 96 96 97 97 96 93 84 75 69 63 54 47 44 41 39 41 44 46 45
96 96 98 94 89 88 90 87 88 88 85 84 82 82 85 87 87 87 86 86 89 92 92 91 91 91 89 89 90 91 93 94 94 90 85 83 79 72 71 71 71 70 64 54 47 44 41 39 39 37 36 36 36 35
91 93 92 91 91 88 90 87 85 83 82 83 86 83 82 81 80 80 81 84 90 92 91 91 91 92 94 95 95 94 90 76 68 67 69 70 70 68 66 62 56 52 50 47 45 43 41 39 38 36 34 33 31 29
87 84 87 91 90 85 88 87 82 79 79 80 79 78 80 80 80 80 84 86 90 93 94 95 97 96 92 88 75 66 66 66 66 66 65 64 62 57 53 48 45 43 41 39 37 36 35 32 30 29 28 29 31 32
85 85 88 88 87 92 87 85 76 77 80 80 79 82 82 79 79 81 89 95 96 96 92 87 82 75 69 66 66 66 64 63 61 59 56 52 49 46 43 40 39 39 38 35 31 29 27 27 27 28 30 31 33 35
83 85 87 92 91 90 84 80 79 79 81 79 80 82 85 86 89 89 85 78 73 70 70 69 67 66 64 64 64 62 57 52 50 49 47 44 42 42 42 41 38 33 28 26 28 29 29 29 30 31 33 33 34 35
80 79 77 80 91 88 80 79 76 78 81 83 85 86 87 78 68 65 64 64 65 65 65 65 65 63 62 61 57 53 52 50 47 45 42 43 42 41 37 33 29 28 28 24 24 28 29 30 31 32 33 34 35 37
75 67 64 60 61 72 79 77 74 75 78 76 73 71 63 60 62 62 62 60 62 64 64 64 62 62 57 53 53 51 50 49 47 38 33 32 30 28 27 28 30 29 26 23 21 23 26 29 32 32 34 35 36 37
74 69 65 57 51 51 53 56 57 59 61 62 59 53 52 52 57 58 58 60 60 63 65 66 63 59 58 57 52 49 49 44 35 33 31 28 26 25 24 23 24 24 24 25 25 26 27 28 28 30 32 36 38 40
69 70 65 60 50 45 46 44 43 48 51 48 45 45 46 48 52 55 58 60 61 60 61 61 59 60 59 54 49 45 38 36 33 27 26 28 28 28 26 25 25 25 25 26 27 29 31 32 34 35 37 39 41 42
67 66 68 70 58 47 42 40 39 42 47 43 38 39 41 45 51 55 56 57 58 58 58 58 59 61 58 52 43 35 32 31 28 26 28 28 30 28 26 27 27 28 28 29 29 30 32 35 36 36 35 34 32 30
63 64 68 71 70 54 42 42 43 44 42 39 35 36 40 46 50 55 56 56 56 56 55 58 63 62 53 43 36 34 28 23 22 23 24 25 26 27 28 29 29 29 30 31 33 34 33 32 31 30 31 33 37 43
59 62 67 72 67 57 46 39 41 42 40 39 41 43 45 46 51 53 54 55 56 57 62 67 62 53 45 39 33 28 24 24 24 25 26 26 28 28 29 30 31 33 34 32 31 31 33 34 35 38 44 51 53 55
64 65 64 60 61 56 48 44 44 47 48 48 49 49 51 51 51 52 53 56 61 66 68 63 55 44 37 33 28 25 25 25 26 26 27 27 28 29 31 33 33 31 32 34 37 36 37 41 47 52 55 56 58 59

GFSWCAN_prec_cthk_069.txt.gz
RH
30 32 32 33 34 32 30 26 31 35 53 61 68 71 75 78 79 78 75 68 61 68 68 82 84 79 74 69 78 86 89 82 92 95 91 86 81 73 69 64 61 62 69 71 69 67 58 36 35 54 76 81 90 87
30 30 41 43 32 25 28 34 31 50 61 70 73 77 78 82 83 86 85 77 73 71 65 73 76 73 66 63 69 77 92 97 98 97 93 92 90 85 77 74 65 69 91 86 77 71 71 69 58 53 73 82 98 94
34 42 39 30 27 31 30 27 41 59 71 77 80 81 82 89 92 93 90 92 87 82 73 71 66 69 57 54 69 80 89 93 97 87 92 92 84 85 81 71 72 89 98 98 98 86 82 75 70 71 82 83 90 89
45 46 36 29 27 24 25 39 59 72 84 86 88 94 97 98 98 98 97 96 97 92 83 69 67 58 55 56 62 78 79 90 92 95 94 90 82 81 79 82 91 97 93 93 93 94 92 90 85 83 94 93 91 94
51 41 29 27 26 26 38 56 67 81 88 90 92 97 98 97 99 99 98 98 98 90 84 83 69 68 71 67 69 74 76 82 87 97 89 80 79 84 95 98 98 97 90 89 91 93 95 92 89 89 93 96 97 94
43 34 34 33 29 36 52 65 83 92 88 87 91 92 98 98 99 98 99 98 96 80 84 85 75 71 70 65 70 71 74 78 84 89 87 83 95 98 98 98 97 95 92 92 97 98 98 97 97 98 91 96 98 97
42 38 33 30 36 51 65 82 91 89 88 89 90 91 95 97 99 98 91 81 67 74 87 90 81 72 68 73 70 68 66 76 75 79 81 83 88 96 98 97 98 95 96 98 98 98 97 98 97 94 94 91 88 90
33 30 32 40 53 66 85 93 90 89 90 91 92 97 89 83 83 84 70 48 54 72 79 80 72 70 72 70 68 63 65 69 73 77 80 85 84 94 96 97 97 96 97 97 94 93 93 92 89 87 88 88 86 86
33 36 50 65 72 87 94 93 91 93 92 90 93 88 74 77 74 70 60 59 64 71 74 71 72 71 69 68 64 59 61 68 67 77 82 88 92 94 96 91 92 94 94 91 89 87 87 85 83 82 82 80 80 82
53 66 72 86 96 95 92 93 96 92 89 90 86 67 70 69 72 71 76 77 73 74 85 90 86 94 93 93 89 81 72 71 83 81 89 90 88 87 87 90 91 89 86 89 90 87 86 85 84 83 80 78 78 78
92 98 98 98 94 93 96 96 92 92 93 94 63 63 55 56 74 76 79 87 92 94 90 88 90 93 94 98 99 99 95 98 95 94 94 91 86 87 87 84 86 87 84 83 84 85 85 84 85 85 84 84 81 79
98 99 98 99 98 95 93 92 92 92 92 61 50 48 58 74 85 81 86 87 90 88 88 92 90 86 93 96 99 98 96 96 98 96 97 91 89 90 89 88 86 87 87 87 87 86 86 85 85 85 86 86 88 87
99 99 99 97 96 96 95 96 97 81 61 64 55 67 73 80 82 84 83 82 83 84 90 94 92 87 92 96 96 95 97 95 96 98 95 93 91 90 87 84 82 82 85 88 88 90 93 91 89 87 85 84 87 89
93 93 98 97 98 97 96 94 68 69 73 72 78 80 81 74 71 72 72 76 82 88 89 93 95 96 91 90 91 86 95 96 96 93 91 87 85 83 81 79 78 78 78 78 77 79 82 84 85 84 84 85 85 85
99 99 99 99 99 98 94 76 76 93 88 81 76 77 80 82 76 79 82 78 85 92 94 96 97 92 88 84 82 81 87 90 89 88 86 88 87 85 82 82 83 84 86 87 86 86 87 88 90 91 92 93 93 93
96 99 98 98 98 97 86 81 89 92 86 85 85 85 89 91 89 83 78 80 83 89 88 86 91 86 82 79 71 74 79 82 83 80 79 84 85 85 86 88 89 89 88 89 91 93 93 94 95 95 95 93 85 79
86 88 98 98 96 93 89 91 97 92 87 85 91 90 89 86 87 86 83 83 82 83 81 79 78 74 69 67 66 69 72 70 73 77 83 84 86 88 88 90 93 95 96 97 97 97 97 97 95 92 87 84 81 78
93 97 97 95 93 90 91 95 96 95 91 89 90 87 84 82 79 78 76 76 75 72 71 74 69 67 74 78 81 84 85 84 83 81 83 86 89 92 93 94 96 96 97 98 98 97 97 94 91 87 84 77 62 49
90 93 97 97 97 96 97 95 88 90 88 86 85 85 80 76 73 72 70 69 69 68 67 67 69 77 82 83 83 82 82 83 87 89 90 93 94 95 97 97 98 98 98 98 97 95 88 78 64 50 42 40 39 40
93 94 94 95 94 93 91 91 87 83 82 83 81 81 74 73 73 72 73 72 69 67 70 74 75 76 80 81 82 83 83 86 88 92 95 96 96 94 93 92 88 82 78 73 70 63 54 48 44 42 42 43 44 45
95 92 90 85 86 87 85 84 84 83 82 78 73 72 75 76 78 75 77 77 76 77 81 82 82 82 81 84 86 86 89 89 89 86 83 75 69 69 71 72 72 71 67 58 53 50 48 46 44 42 39 37 35 31
98 97 97 96 95 90 89 85 82 82 79 78 79 78 81 84 83 82 81 82 85 88 89 89 89 88 87 87 89 88 85 78 64 62 65 67 67 67 67 64 60 56 54 52 50 47 42 39 36 32 30 28 27 27
96 97 97 95 90 85 88 89 84 82 83 82 79 78 79 79 76 77 81 84 86 86 88 89 90 91 87 85 83 75 64 63 64 64 64 64 62 59 57 54 52 49 46 43 39 34 31 27 27 28 28 29 29 30
87 90 90 88 86 89 84 86 78 80 79 79 75 77 77 77 76 79 81 83 88 93 92 88 86 86 82 70 64 63 63 62 60 59 57 55 52 50 47 44 41 39 37 32 27 27 27 27 26 28 29 29 30 32
91 92 90 91 88 84 80 78 78 76 77 76 77 79 79 78 81 83 85 83 84 82 80 77 70 65 63 62 63 62 59 54 51 49 48 47 43 41 41 39 35 29 26 27 28 29 28 27 27 28 29 30 31 33
91 94 94 94 89 79 77 75 74 74 76 77 77 80 83 82 82 76 69 68 67 67 65 64 62 62 62 62 61 55 53 52 50 48 44 41 41 40 37 31 29 29 28 27 24 22 24 28 29 30 31 32 32 33
80 82 89 85 84 81 76 72 71 72 76 78 82 84 78 71 64 63 63 59 60 61 62 63 63 63 63 62 57 56 54 52 48 42 35 35 33 29 29 30 31 30 27 24 24 24 25 28 29 31 32 34 36 38
64 65 71 78 83 80 77 76 76 79 78 74 71 69 61 52 57 59 59 59 60 62 63 64 64 61 56 54 56 57 54 50 43 35 33 30 26 24 24 24 24 24 25 26 27 28 29 31 32 32 33 34 36 37
61 60 54 52 52 59 64 64 62 63 64 64 63 52 48 49 54 57 58 58 59 59 60 61 59 56 55 55 54 51 46 38 37 35 31 28 28 28 27 25 25 26 28 29 31 32 31 33 34 36 36 37 36 34
67 61 59 54 47 48 48 47 49 54 54 48 44 43 44 50 54 56 57 58 60 61 59 59 58 56 56 56 53 46 39 37 36 31 27 28 28 27 26 26 28 29 30 30 31 33 34 34 33 32 32 32 33 36
68 66 66 62 53 45 43 43 45 49 48 45 40 39 42 48 51 54 56 59 60 59 57 58 57 59 61 54 45 39 37 34 29 25 24 25 25 26 27 28 28 29 31 33 34 32 32 33 35 35 36 41 47 51
64 64 69 73 67 53 43 45 45 46 46 43 42 44 47 49 51 53 56 57 57 56 55 58 65 64 57 50 44 39 35 29 25 25 26 26 26 26 27 28 31 33 32 32 33 36 38 37 40 45 49 52 55 58
63 64 66 71 73 66 53 43 40 44 46 46 47 49 49 49 51 53 54 54 56 56 60 68 66 58 47 42 38 34 29 26 26 26 26 25 26 28 30 31 31 32 35 39 40 40 41 46 50 53 56 61 63 65

GFSWCAN_prec_cthk_072.txt.gz
RH
47 37 31 32 31 32 32 40 41 31 26 24 35 47 51 61 69 72 71 74 73 62 52 60 68 75 76 77 73 71 81 91 94 98 96 94 84 79 77 70 73 69 76 78 72 74 63 44 39 39 53 64 78 86
59 47 39 31 35 33 35 35 32 25 26 32 52 58 62 68 74 79 76 80 77 74 66 59 62 67 74 74 72 70 78 91 98 95 96 95 94 92 88 83 76 75 68 71 77 71 68 64 71 65 59 61 82 92
59 57 43 35 40 45 42 31 26 30 27 45 58 63 71 76 77 81 86 88 85 79 74 71 52 59 66 71 69 65 73 89 97 94 94 93 92 92 90 89 86 81 87 99 99 94 90 81 78 76 75 65 78 93
55 54 44 40 46 43 36 30 30 24 30 56 64 69 77 82 87 94 91 91 98 91 82 72 61 58 63 65 60 56 67 86 94 92 93 88 87 90 86 91 85 84 98 98 97 96 95 93 92 85 80 79 82 95
45 40 43 46 47 44 31 27 21 26 54 69 78 86 89 94 97 99 99 91 97 98 88 82 70 56 58 61 60 55 66 82 90 94 96 90 86 89 87 87 86 98 98 95 96 96 95 94 95 92 87 87 98 97
39 41 53 53 45 32 28 24 24 50 68 76 86 90 92 99 99 99 98 96 99 98 98 95 72 67 67 61 57 59 70 86 87 97 94 86 85 89 92 95 97 98 96 96 95 97 96 93 95 92 94 94 94 95
57 59 55 47 37 33 29 26 47 67 81 91 92 91 91 95 99 99 97 93 94 99 95 79 73 68 73 69 63 65 76 85 85 82 80 80 79 93 98 97 98 98 98 98 98 98 98 97 97 95 95 94 92 92
61 56 53 50 42 29 25 44 71 83 93 94 93 94 94 96 99 96 93 92 96 81 73 81 82 79 74 72 71 70 79 78 80 78 79 81 85 96 97 97 98 98 98 98 97 95 93 94 91 92 92 90 88 86
59 51 48 37 31 28 45 74 87 95 94 94 92 94 95 97 91 96 86 74 67 66 70 75 78 75 79 78 79 82 75 74 68 74 73 78 87 88 93 97 95 95 95 94 91 88 87 86 86 86 85 82 79 80
50 45 34 28 30 50 76 89 98 96 96 96 96 91 96 85 81 77 68 62 63 65 72 75 74 83 84 79 74 67 63 58 65 63 67 75 82 83 86 86 87 84 82 85 86 84 83 82 84 84 82 80 78 78
41 35 35 45 64 80 94 98 98 95 96 95 92 91 82 75 70 64 69 68 65 72 71 75 79 83 76 76 77 75 80 78 69 82 83 82 79 84 84 83 82 82 81 80 81 82 82 81 81 80 80 81 79 79
39 52 70 81 93 98 98 97 97 93 93 91 76 75 74 69 68 70 75 78 81 85 86 93 95 94 92 93 98 97 98 97 95 90 87 83 83 82 82 81 80 79 78 80 82 83 83 83 83 82 83 83 84 83
83 96 98 98 98 98 98 99 99 95 92 77 71 67 60 71 79 76 80 76 83 85 93 98 98 97 98 97 98 97 97 97 96 95 89 86 85 86 87 87 85 84 82 83 84 83 86 86 88 90 90 90 88 86
98 98 98 98 99 99 98 95 96 90 80 64 55 63 74 70 67 68 74 79 83 93 94 99 92 98 94 94 95 90 97 97 96 93 88 87 85 84 83 79 77 79 80 82 84 85 85 83 82 86 88 88 88 87
98 98 99 99 99 98 96 94 87 78 64 66 65 68 72 71 70 78 81 82 87 91 96 97 95 93 92 86 85 84 91 93 90 88 84 84 86 85 83 82 82 82 83 83 85 86 87 87 88 89 90 91 91 90
98 99 99 98 97 95 92 80 76 67 70 70 70 75 79 82 79 82 80 80 87 91 91 89 92 89 90 86 80 82 86 86 85 86 83 80 81 81 82 82 83 85 86 87 88 90 91 93 93 93 92 87 83 81
96 91 98 98 95 90 80 76 85 81 76 75 83 88 87 85 80 78 77 79 84 86 85 83 84 84 81 74 69 66 66 68 70 72 76 77 82 84 85 86 86 87 87 90 93 95 96 96 93 88 85 85 83 80
95 96 95 95 85 75 84 86 98 92 87 86 92 92 88 84 81 81 80 82 82 80 78 81 75 75 72 71 79 82 85 85 85 85 85 85 86 88 90 92 92 93 94 96 96 96 96 93 91 88 82 76 67 53
89 94 97 93 81 83 89 90 90 92 93 93 91 89 87 86 83 80 77 76 76 74 71 69 69 72 75 81 82 85 84 83 83 84 87 89 91 93 95 96 96 95 94 91 88 83 79 74 67 56 45 41 41 44
92 93 92 91 90 91 91 90 88 89 90 91 88 84 81 78 77 75 71 68 68 69 70 68 71 76 81 82 81 81 81 83 85 89 92 94 94 92 82 73 70 71 73 74 72 65 56 50 47 46 45 46 46 46
92 93 94 95 94 90 87 86 85 85 85 83 80 76 76 74 72 72 71 73 73 71 72 74 76 75 76 78 81 83 85 87 87 85 79 67 67 70 73 74 73 71 69 63 57 55 53 50 46 42 39 34 29 27
90 90 90 93 93 88 87 83 81 81 80 80 77 74 74 73 74 76 78 79 80 78 82 85 87 86 86 86 87 88 87 81 67 61 64 65 66 67 66 64 61 59 56 53 50 45 40 34 30 27 26 26 26 26
96 96 97 98 96 89 88 84 80 80 82 82 79 78 80 81 81 81 82 84 85 86 86 87 88 88 88 88 85 82 70 60 61 62 62 61 59 58 56 54 51 47 43 40 36 29 24 23 24 26 27 27 27 27
97 98 96 94 92 96 91 89 85 85 86 84 79 80 80 77 74 77 81 83 85 86 90 92 89 87 85 80 67 62 62 61 58 58 56 55 54 51 47 42 39 37 34 28 26 25 27 27 26 25 26 27 28 28
96 96 94 94 93 91 88 85 83 82 82 80 77 76 75 75 78 79 78 81 84 85 85 85 80 74 66 64 64 62 61 57 54 52 52 49 45 40 38 37 34 29 26 27 27 27 28 29 29 29 30 30 30 30
95 95 92 90 87 80 79 77 75 75 75 75 76 78 78 78 78 79 77 75 77 77 73 70 66 65 64 64 63 60 53 53 52 51 49 44 41 40 40 36 31 29 29 30 28 26 24 26 30 34 35 35 35 36
91 94 92 87 83 77 73 71 69 69 71 74 77 78 78 80 77 70 67 68 66 64 64 64 63 63 62 61 55 52 52 51 51 49 42 40 39 37 35 30 30 29 28 25 25 26 28 30 32 33 34 34 34 35
84 83 84 83 82 77 73 70 70 72 74 76 76 77 74 63 57 60 61 58 58 61 61 61 60 58 55 52 51 50 50 51 51 44 37 36 36 31 25 25 25 25 25 26 28 29 31 32 33 35 36 36 36 37
75 73 75 79 78 75 73 71 72 74 75 73 70 68 64 50 52 58 58 58 59 60 60 59 58 54 51 51 52 51 52 50 43 41 40 38 33 28 28 26 25 25 26 28 29 29 31 33 35 35 34 34 35 35
63 62 65 71 78 76 73 70 67 64 66 67 65 60 48 47 53 58 59 60 59 59 59 58 56 53 52 52 53 52 48 44 43 41 37 31 27 26 25 25 25 26 26 27 30 32 33 33 33 34 36 36 38 43
62 57 54 54 52 55 57 59 59 63 63 58 48 42 45 49 57 58 59 60 61 61 60 57 55 53 52 57 55 48 44 41 38 35 29 25 25 26 25 25 26 27 29 30 30 31 34 37 39 39 42 47 51 54
65 63 58 57 55 50 47 48 49 50 49 47 46 44 47 49 53 55 56 57 59 61 59 56 54 53 59 57 51 47 42 38 35 29 26 26 26 25 25 26 28 29 28 30 35 38 40 41 44 47 51 55 59 63
67 68 69 68 67 58 49 44 43 44 46 45 44 44 44 48 52 52 54 55 55 54 55 55 55 60 60 52 46 41 38 35 29 27 26 25 25 25 26 27 28 30 34 37 40 41 44 47 51 55 60 65 68 70

GFSWCAN_prec_cthk_075.txt.gz
RH
60 54 46 38 34 34 32 33 29 34 45 43 40 39 47 56 60 64 65 67 67 63 52 48 51 55 63 68 71 63 66 77 90 95 96 98 95 83 76 69 79 75 81 79 73 70 59 56 60 48 51 52 52 65
62 60 52 44 33 35 35 41 41 45 43 35 28 26 40 51 56 64 71 72 73 70 61 58 54 52 58 61 69 69 69 81 94 96 93 95 96 93 90 80 77 70 73 78 67 61 68 72 74 73 67 61 61 72
57 60 58 50 44 38 45 43 44 43 38 30 28 34 52 54 61 73 81 84 82 78 71 67 57 49 49 57 69 75 65 74 97 97 98 98 97 97 93 88 83 77 79 74 82 97 91 88 85 83 78 73 69 75
52 52 57 57 48 43 45 46 46 42 31 33 29 45 57 66 73 81 82 87 91 85 77 76 63 56 51 53 59 65 63 71 89 94 95 94 90 90 89 89 86 88 87 94 98 98 98 98 93 89 82 77 77 78
55 51 52 55 52 43 48 46 44 41 33 27 32 55 66 73 82 89 95 88 90 96 86 77 75 66 54 52 60 67 64 67 88 94 95 91 87 88 88 87 86 84 90 98 99 97 98 98 97 95 89 85 88 87
64 56 53 51 50 48 52 47 42 30 22 26 56 72 82 89 94 96 94 91 90 99 99 97 85 73 64 58 63 66 67 70 87 94 97 91 84 88 92 87 85 89 98 97 98 98 97 95 96 96 94 92 92 90
56 52 39 39 41 48 53 42 29 24 25 53 74 83 91 96 94 97 97 93 94 99 98 97 87 71 72 68 67 66 70 75 89 92 86 79 73 86 88 97 89 97 97 98 98 98 97 95 96 96 95 94 93 92
53 48 44 57 59 57 48 39 28 28 54 77 89 93 95 93 95 96 97 97 98 98 96 90 69 70 77 75 73 70 72 79 88 82 81 77 78 89 97 97 95 98 97 98 98 98 97 98 97 96 94 91 90 86
50 50 57 60 56 56 45 34 28 55 85 92 93 95 96 97 93 94 97 97 98 92 81 63 68 77 84 77 71 75 78 89 79 77 75 72 75 90 94 97 98 97 97 98 97 96 93 91 88 89 87 84 82 81
47 56 61 61 54 47 36 30 58 88 93 93 96 94 91 90 90 86 88 89 86 64 59 60 63 69 82 81 75 78 83 74 68 61 65 70 74 81 86 92 95 95 93 92 90 88 86 85 83 81 79 79 78 77
55 60 60 53 44 33 30 59 91 93 98 98 95 93 93 94 83 78 74 63 55 55 55 57 60 70 75 78 79 70 76 65 62 59 70 78 76 81 85 83 81 80 80 81 81 82 83 82 81 79 77 76 77 77
59 58 48 40 33 34 65 92 97 97 99 94 92 90 96 83 73 69 62 65 63 67 78 80 81 79 73 72 79 83 87 92 91 85 87 86 84 82 81 81 80 79 79 78 79 80 79 80 81 82 81 81 82 83
50 46 42 38 44 71 94 97 99 99 97 94 88 91 78 67 67 63 63 61 73 79 86 93 92 88 88 96 98 99 98 97 97 97 92 87 83 82 82 83 82 81 81 79 79 81 82 83 83 83 84 86 89 89
46 46 54 74 90 97 99 98 97 98 93 83 82 76 61 59 59 56 62 69 75 86 97 99 96 98 98 98 98 97 98 98 97 97 93 88 85 82 82 81 81 81 82 83 83 83 84 84 85 85 84 84 85 85
65 83 95 98 98 98 98 98 96 94 91 83 70 57 57 58 64 67 72 77 82 93 96 99 97 97 95 91 90 89 93 94 92 90 88 89 88 88 87 87 85 84 85 85 85 86 86 87 88 88 90 92 92 86
98 99 98 98 98 98 98 95 97 91 82 76 58 58 63 70 70 73 76 80 87 91 96 95 94 92 93 88 83 83 85 85 87 87 87 87 83 80 80 81 82 83 84 86 87 88 89 91 93 94 91 88 85 85
96 97 99 98 98 99 98 97 91 81 75 64 75 80 85 80 76 74 77 80 87 90 90 85 85 88 83 82 81 76 68 66 66 68 72 74 76 78 80 83 86 88 90 93 95 96 97 94 91 89 87 87 87 83
97 96 95 96 92 98 93 79 74 77 75 78 87 89 86 81 79 76 76 78 83 84 79 80 80 81 80 74 69 78 83 85 86 85 85 85 86 88 89 90 93 94 94 93 88 83 79 79 77 73 70 65 58 48
91 87 93 97 91 70 79 89 89 82 83 87 93 91 83 78 76 77 76 76 76 76 74 73 72 72 71 68 76 81 84 84 83 84 85 88 91 93 93 87 77 71 71 73 74 74 73 69 64 55 47 45 46 46
96 97 99 85 73 80 85 89 89 88 89 92 94 89 87 83 79 77 75 74 72 73 71 67 68 68 72 77 80 80 80 80 82 87 90 88 76 67 67 69 70 70 70 70 69 65 58 52 49 46 42 42 43 41
96 91 81 73 84 85 86 85 87 89 90 91 89 86 84 80 76 74 71 72 70 68 69 68 70 72 74 73 76 79 82 84 85 73 59 62 64 65 66 66 67 67 66 62 56 51 48 43 38 34 29 26 25 25
87 85 76 83 90 89 88 85 85 85 85 86 82 78 76 74 70 71 69 69 72 71 71 72 74 79 83 84 85 85 84 77 59 57 59 61 62 64 64 64 62 57 54 48 43 39 35 28 25 24 25 25 26 26
94 93 93 94 90 88 89 86 84 82 82 81 76 73 73 71 70 73 78 80 81 82 83 83 85 87 86 86 85 82 66 58 58 60 61 61 61 61 59 56 51 46 42 40 36 31 25 24 24 25 25 26 26 27
96 97 98 95 91 92 88 86 82 81 80 79 76 77 76 76 79 79 79 80 83 83 85 87 90 90 87 83 70 62 60 60 60 59 60 59 58 56 52 45 41 39 36 32 27 25 26 27 27 27 27 28 29 29
98 97 94 93 92 91 86 84 83 82 84 85 84 82 80 76 76 76 76 79 83 84 86 86 85 78 70 66 65 63 62 59 56 54 53 52 51 46 42 40 39 37 31 27 27 27 25 24 26 29 31 33 34 35
95 95 94 93 93 91 89 86 85 82 80 80 79 78 76 77 77 75 74 77 80 78 79 77 72 69 67 64 62 62 56 51 49 48 46 48 46 44 43 42 40 33 30 30 29 26 25 26 28 31 33 34 35 36
94 95 96 93 90 87 84 80 77 73 73 75 76 77 77 77 76 76 75 72 72 71 72 70 65 63 62 62 59 51 47 47 46 47 46 45 44 42 41 39 33 30 27 26 25 25 26 28 29 31 32 33 35 35
89 90 88 86 82 76 74 71 70 70 70 72 73 75 74 73 71 62 63 66 67 66 65 65 63 62 61 57 50 47 47 49 51 48 42 41 40 38 35 29 27 25 25 25 26 27 27 28 30 32 35 35 35 35
88 86 82 80 77 74 72 69 67 68 69 71 73 75 73 66 57 57 62 61 61 62 62 62 62 60 54 49 49 50 49 52 48 43 43 42 39 36 31 28 26 26 26 26 26 27 30 31 31 32 34 37 39 39
85 80 79 80 78 76 73 70 70 70 72 73 70 69 69 61 52 57 60 61 62 63 63 62 60 56 52 51 49 48 51 47 45 45 42 39 34 29 26 26 25 25 24 26 29 29 29 30 34 37 39 41 45 49
72 74 72 76 80 77 75 74 72 70 69 69 68 67 60 51 52 58 63 64 64 63 61 59 56 54 50 48 49 50 48 46 43 40 37 32 29 26 25 25 25 25 26 27 28 31 34 37 39 42 45 49 53 58
63 64 63 62 68 68 68 66 64 64 67 69 67 54 47 48 51 56 59 60 60 59 59 58 56 52 52 54 51 49 48 44 40 37 33 29 26 25 25 26 25 25 27 31 34 37 40 42 46 50 54 59 62 65
64 63 61 58 55 53 51 52 54 58 55 50 47 44 42 46 51 54 56 57 59 60 59 55 52 55 57 56 53 48 44 41 37 33 29 26 25 26 25 25 27 30 34 37 40 43 47 51 54 57 60 61 61 60

GFSWCAN_prec_cthk_078.txt.gz
RH
60 63 60 51 46 41 45 36 33 43 42 32 34 39 38 42 48 48 51 49 55 56 52 48 47 49 55 59 62 63 62 73 77 79 88 96 97 78 68 62 63 73 72 70 70 65 62 57 54 54 65 63 56 56
58 63 60 54 49 42 36 37 43 43 35 43 43 41 41 46 51 53 58 58 64 66 59 54 52 48 46 53 60 65 68 74 88 88 91 94 96 80 77 78 74 83 86 86 72 76 66 67 68 72 75 77 69 61
63 63 59 59 50 40 39 44 46 41 44 45 41 33 30 40 49 52 61 66 74 74 67 61 55 55 47 44 55 67 68 69 88 92 94 96 95 89 89 92 86 80 77 75 73 69 74 75 74 76 81 80 72 70
66 74 67 61 52 45 43 47 48 48 46 44 37 29 27 49 50 58 65 70 80 83 78 70 65 58 52 45 42 56 62 61 75 87 91 93 93 91 93 94 90 89 80 82 78 84 96 98 90 88 85 80 79 82
66 67 62 59 56 51 45 48 48 49 47 39 32 31 38 53 61 73 79 82 86 86 86 83 75 70 63 55 48 51 66 64 75 85 89 89 85 87 95 93 94 92 90 87 89 95 97 98 98 97 94 87 89 88
54 56 53 52 56 51 52 45 47 47 46 38 32 29 47 63 67 78 84 82 88 98 95 94 90 86 82 69 52 53 68 70 76 87 87 87 83 86 90 94 92 92 91 93 98 98 98 98 98 98 98 93 94 94
52 54 54 54 54 52 52 51 53 49 39 30 23 45 67 74 82 83 82 82 89 98 98 94 85 85 84 75 64 60 69 72 76 83 85 81 74 76 88 93 93 92 95 98 98 98 97 98 97 97 97 95 95 95
56 59 61 53 45 48 51 50 56 41 29 24 44 70 82 90 90 89 87 96 98 99 98 97 91 85 70 77 76 68 73 73 81 83 92 82 73 77 84 95 97 95 97 97 98 98 97 96 94 96 95 93 92 90
65 62 58 48 44 46 50 61 49 35 30 51 78 86 93 95 92 92 96 99 99 98 96 89 71 71 74 79 83 75 76 79 80 91 86 75 73 73 89 97 98 97 97 97 98 97 95 92 90 88 86 85 83 81
62 59 54 48 58 62 60 54 40 32 58 83 91 93 95 94 96 97 97 94 94 95 89 64 58 76 77 76 74 80 83 86 84 74 73 71 72 70 88 91 97 95 93 94 92 91 89 87 84 82 80 80 79 79
56 53 52 56 61 61 60 48 34 69 83 92 94 96 94 96 94 93 79 80 79 66 54 53 56 68 70 81 82 75 83 73 68 63 62 67 73 75 83 87 88 87 88 86 86 85 83 81 81 81 80 78 77 78
49 51 56 60 60 54 46 37 57 80 89 96 97 95 95 94 91 78 65 59 52 49 57 58 59 62 70 74 77 71 73 82 83 87 77 77 80 81 85 85 84 82 80 79 79 79 80 80 81 81 81 82 82 82
46 52 59 61 54 43 33 60 89 97 98 99 97 97 94 90 78 63 54 52 57 62 75 77 77 76 76 74 87 95 94 97 94 96 90 85 83 82 82 82 82 81 80 80 80 81 83 85 86 87 87 87 86 85
56 57 60 51 42 36 72 95 98 99 98 97 92 93 86 68 52 49 52 62 76 85 88 89 87 81 91 97 98 98 98 97 97 94 92 88 86 86 83 81 81 81 83 86 88 87 87 86 84 84 85 85 85 86
57 55 51 44 39 75 98 98 98 94 96 90 81 74 58 51 53 55 63 74 84 96 97 98 98 98 97 98 96 95 97 96 94 94 91 89 89 88 89 88 88 89 89 87 84 83 84 85 86 86 87 88 87 81
50 48 42 46 80 98 98 99 97 95 90 87 78 59 52 57 60 63 73 79 86 96 98 97 97 97 96 91 88 87 88 88 90 87 88 88 87 82 79 79 79 80 80 82 83 86 89 91 92 91 88 85 84 84
57 64 73 91 98 98 99 98 94 84 89 86 64 55 61 65 64 69 75 79 87 94 96 91 91 93 89 86 82 79 79 73 69 68 68 67 67 69 73 75 80 86 90 92 93 92 86 80 76 75 74 73 70 68
97 97 98 98 96 98 98 94 86 90 88 70 69 73 75 73 72 74 77 81 86 88 85 84 80 86 83 81 73 70 76 79 83 83 82 81 83 86 88 90 92 90 82 73 71 68 69 72 71 69 67 64 58 51
93 94 98 98 97 93 93 94 94 91 68 75 86 82 79 77 76 76 75 77 76 80 77 73 75 74 74 68 63 71 79 82 82 81 84 88 91 89 81 71 68 69 69 70 70 71 70 68 64 58 51 47 50 47
99 99 98 97 93 87 88 90 86 72 71 82 86 86 80 76 74 72 72 73 73 74 74 69 65 64 64 66 71 77 79 80 81 86 85 73 64 64 64 64 65 67 68 69 69 66 58 50 46 42 39 37 34 37
98 98 97 89 82 74 83 80 82 86 89 90 92 82 80 79 76 73 73 72 72 70 68 65 64 63 63 67 71 76 81 84 84 74 57 59 61 63 64 66 67 68 67 64 55 48 45 43 38 29 27 25 25 25
92 92 86 81 86 88 90 87 86 86 92 91 86 82 77 73 71 70 69 69 67 66 63 64 66 67 69 76 82 84 83 78 59 55 58 61 63 64 64 64 63 59 54 50 46 44 41 33 25 23 28 26 26 27
90 79 77 82 84 86 88 87 86 85 87 86 83 80 76 71 68 67 68 65 65 65 67 70 75 80 82 83 84 81 68 57 58 59 59 59 59 59 58 58 55 50 46 44 41 38 31 25 24 25 25 26 28 31
80 79 81 83 87 90 86 86 84 85 83 80 77 76 73 69 66 65 68 70 74 77 78 80 82 86 89 85 77 63 59 57 56 55 56 56 55 53 53 49 45 42 40 38 33 28 26 27 27 27 27 30 33 34
91 92 93 90 88 87 86 86 83 80 80 79 75 73 71 68 73 74 73 73 76 79 81 83 86 83 77 69 66 61 58 56 54 53 54 53 52 50 44 41 40 38 36 32 30 29 28 26 26 27 30 33 36 38
93 92 88 86 88 86 85 83 82 79 77 76 75 76 75 78 75 69 67 73 77 79 81 78 76 72 70 67 62 60 59 53 50 49 50 50 47 44 44 43 42 40 34 31 30 29 26 25 26 28 31 34 33 35
91 90 88 88 91 87 85 83 79 76 75 75 76 77 75 72 69 70 71 73 77 72 71 72 72 69 63 62 62 61 55 48 46 45 47 46 44 43 42 42 40 35 29 27 26 25 26 26 28 29 31 32 34 35
85 89 90 92 91 87 85 81 78 75 73 72 72 71 71 70 70 73 73 69 69 70 72 71 68 65 64 64 61 53 46 45 43 45 45 43 42 40 38 35 31 28 25 25 26 25 25 27 29 31 32 32 32 35
89 90 87 89 89 85 79 74 71 69 68 68 68 69 70 72 72 61 56 65 69 69 66 64 62 64 63 59 53 47 46 46 46 44 44 44 42 39 36 32 28 26 25 25 24 25 27 28 28 30 33 37 39 41
93 92 89 86 81 73 70 69 67 65 66 67 69 70 71 70 63 53 59 64 63 63 62 62 63 61 56 50 46 45 46 46 45 47 48 44 39 35 30 28 26 24 24 25 25 25 27 31 34 37 40 43 47 51
88 90 86 81 77 77 74 72 69 69 69 70 69 70 70 71 65 57 60 62 62 63 63 63 60 57 54 50 46 46 48 47 49 48 44 39 35 30 27 25 25 24 24 24 27 31 35 37 40 44 48 51 55 58
77 76 76 77 76 78 74 73 73 72 71 71 73 73 73 69 58 54 58 62 62 62 62 61 60 58 53 47 48 51 49 50 49 45 41 36 31 27 26 25 24 24 27 30 34 37 41 44 47 49 52 55 56 57
66 71 73 74 75 79 79 78 75 73 71 71 73 72 65 52 51 52 56 58 60 61 63 64 63 58 53 51 52 52 51 50 46 42 36 31 28 27 25 25 27 29 32 37 40 43 45 47 49 50 51 51 51 52

GFSWCAN_prec_cthk_081.txt.gz
RH
68 66 67 60 52 44 49 59 55 46 48 53 47 32 27 24 34 44 49 45 49 48 50 42 43 42 46 48 53 69 57 80 68 75 85 92 96 84 74 62 70 70 72 76 76 76 75 63 58 59 75 68 58 57
62 66 66 62 52 45 40 44 41 40 44 45 39 30 34 37 44 46 54 52 52 54 57 50 46 43 39 43 53 58 62 65 76 82 81 93 96 85 85 78 64 86 92 97 92 95 85 71 66 72 71 67 67 67
58 60 63 63 58 49 43 42 38 43 45 39 33 39 41 41 49 50 61 59 58 60 59 59 53 52 45 40 42 54 65 66 82 88 92 93 97 84 87 96 91 84 78 84 87 85 76 72 74 72 68 70 74 74
58 65 65 62 58 49 41 38 39 44 42 41 46 42 37 35 43 50 59 64 67 71 73 72 56 56 51 46 47 44 63 68 63 75 87 91 89 87 86 89 88 89 82 77 78 75 75 82 85 82 79 80 79 84
55 58 68 63 57 51 41 45 45 48 45 46 46 41 32 28 48 57 64 68 73 81 89 81 69 69 66 60 57 48 52 66 66 76 84 88 85 92 87 81 88 84 84 78 76 76 83 95 95 97 94 91 86 88
49 60 70 71 61 54 44 47 49 47 50 49 45 35 32 33 56 67 69 69 76 89 90 91 88 79 81 79 74 57 55 68 68 71 81 83 87 83 82 95 96 92 86 80 81 83 98 97 97 98 98 98 94 96
50 62 76 76 65 59 51 47 54 52 50 50 44 36 31 46 61 70 81 90 86 94 97 92 82 84 79 84 84 71 60 66 69 73 76 80 80 78 86 95 96 95 94 92 96 98 98 98 98 97 97 97 96 95
53 62 66 67 62 55 53 50 53 52 51 47 37 26 41 64 71 76 84 89 92 99 98 96 85 86 81 82 87 81 67 71 71 77 80 80 78 75 86 87 96 97 97 97 97 98 98 98 96 95 95 95 93 92
57 62 64 60 56 51 52 53 57 61 52 35 28 42 67 77 82 87 90 91 96 99 98 92 91 84 72 76 90 74 79 83 72 83 80 80 77 74 76 84 94 98 97 98 97 97 96 94 92 90 88 86 84 84
65 59 62 63 55 46 50 58 59 57 43 37 58 76 80 84 92 94 94 93 98 98 94 91 71 77 65 80 78 83 81 77 87 85 87 82 73 70 68 88 91 92 97 97 97 95 93 89 86 82 79 77 77 79
68 64 62 55 52 51 55 61 66 51 43 67 79 84 90 96 97 95 94 94 90 84 80 67 62 69 67 76 82 75 90 88 81 76 70 69 68 70 73 85 86 84 88 86 85 85 83 79 77 76 76 75 75 75
67 67 65 58 57 64 64 66 53 41 68 82 87 92 98 98 93 89 84 75 67 62 56 56 56 65 79 85 93 88 75 76 81 88 78 76 77 79 86 87 87 84 82 79 78 75 75 75 74 74 74 75 76 76
65 58 57 58 61 65 66 60 41 73 88 93 97 98 97 91 89 82 71 60 56 54 62 58 60 62 70 73 80 79 78 84 91 92 92 86 84 82 80 79 78 75 73 71 71 71 72 74 77 80 82 82 83 81
58 53 60 63 67 62 55 42 59 89 98 98 96 96 90 85 75 61 57 56 67 71 71 74 74 73 76 83 86 98 95 98 94 92 92 84 85 82 80 76 75 74 74 74 75 76 80 81 81 80 80 79 80 80
51 58 68 66 59 50 38 49 90 98 98 97 89 89 83 82 59 56 57 64 73 81 84 83 79 85 92 98 97 97 97 97 91 94 89 84 83 80 78 78 77 75 75 77 79 79 78 78 80 81 83 84 84 80
57 66 66 57 47 42 76 98 99 98 96 89 82 82 65 52 53 59 69 81 89 97 96 93 96 98 98 95 93 91 87 87 88 83 81 82 83 82 78 75 75 74 74 76 78 80 82 84 83 77 71 68 67 66
60 64 57 46 53 91 98 98 98 97 95 90 90 70 55 58 63 70 76 85 91 96 97 94 94 96 93 91 88 81 83 80 71 68 69 71 69 68 70 72 75 80 82 83 80 73 67 63 61 63 65 60 60 57
64 59 44 58 94 98 98 98 96 90 86 89 75 56 58 67 68 74 75 78 87 95 95 96 86 90 90 86 84 72 71 79 80 80 78 76 77 80 83 83 82 78 67 63 63 62 60 63 63 65 62 56 49 44
56 48 51 87 95 98 98 97 92 85 84 78 66 69 72 73 72 75 77 78 83 88 86 82 86 81 80 75 73 67 70 77 79 79 79 82 83 81 71 64 61 61 62 62 63 64 66 63 61 54 50 49 48 47
72 77 92 98 99 97 94 91 84 87 80 68 82 80 78 76 75 75 77 76 77 77 80 76 74 70 71 68 67 69 76 77 80 82 82 70 60 59 60 61 63 64 65 65 65 64 60 54 51 48 45 43 41 39
98 99 99 99 97 93 89 85 86 86 74 75 83 81 78 76 74 74 74 73 74 70 70 71 68 63 63 63 68 71 74 81 82 79 62 57 59 62 63 63 64 65 65 64 61 55 51 50 49 39 33 32 30 30
97 98 98 94 92 91 88 82 77 74 78 83 88 83 79 76 72 71 68 69 68 68 67 65 62 63 64 66 72 81 84 83 79 59 56 58 60 61 61 62 62 63 61 56 53 51 50 45 36 33 31 32 30 32
97 94 92 89 87 96 82 80 87 85 92 87 82 78 76 75 70 66 65 63 63 63 62 62 64 67 72 76 81 82 81 74 61 59 60 60 60 61 60 60 59 56 55 52 46 46 43 33 31 30 32 32 32 38
92 89 89 88 87 92 89 90 88 86 86 85 82 79 73 70 66 64 63 62 62 61 64 67 74 77 79 81 83 80 71 64 60 57 56 56 57 58 56 56 52 48 47 45 41 38 35 34 29 32 32 33 37 37
91 88 85 82 84 86 86 86 86 83 85 83 80 76 72 69 67 64 62 64 68 72 76 79 80 82 84 81 77 69 65 62 59 56 56 54 52 52 54 50 48 46 38 42 39 36 35 33 33 33 33 35 37 38
86 83 81 84 85 85 83 84 83 82 80 79 78 73 72 70 68 67 66 71 72 75 78 81 82 81 78 73 71 66 62 62 59 54 50 49 49 54 54 50 50 47 38 34 36 35 34 33 33 33 34 36 36 36
91 87 85 85 88 86 85 83 82 80 77 73 72 72 71 72 72 72 70 71 73 76 79 80 77 76 73 70 65 65 63 59 50 45 42 42 43 47 51 51 48 44 35 29 27 26 31 33 32 32 34 36 37 37
88 88 88 89 87 84 84 83 81 77 74 70 69 72 73 73 73 72 72 72 74 77 76 74 74 74 69 66 64 63 59 47 39 37 39 40 43 45 45 42 38 34 29 26 25 24 23 24 29 34 34 35 38 40
88 88 88 89 90 90 87 85 82 78 74 72 72 73 72 72 71 73 71 74 75 75 75 73 71 67 63 63 63 57 49 42 40 38 43 50 48 47 43 40 34 29 27 25 23 23 23 23 24 28 32 35 38 41
90 89 88 87 88 87 84 84 80 75 71 71 71 69 70 71 71 71 70 65 64 70 73 70 65 61 61 62 58 51 44 41 37 43 49 56 57 45 40 35 30 27 25 24 24 24 24 29 33 38 43 46 51 53
92 93 91 89 87 88 87 80 74 72 69 68 68 69 70 71 71 71 69 58 64 67 67 64 63 63 63 58 50 47 43 37 33 39 48 49 46 42 35 31 28 26 24 24 27 29 31 34 41 42 45 46 48 51
93 91 90 90 86 85 81 78 75 73 71 70 70 71 70 71 71 74 70 60 65 67 65 64 61 59 56 53 48 43 37 30 31 46 50 48 43 36 32 30 27 26 28 30 31 34 36 38 40 42 45 47 49 50
78 81 84 84 82 82 81 80 74 72 72 71 71 71 72 73 73 74 67 60 63 67 67 64 60 59 54 48 44 39 31 27 43 51 50 43 37 33 30 29 29 30 33 34 34 36 37 38 40 42 44 45 47 50

GFSWCAN_prec_cthk_084.txt.gz
RH
69 64 62 64 65 64 64 70 67 59 58 68 62 46 35 32 32 41 43 39 42 47 44 37 40 40 46 49 55 55 51 82 61 72 87 84 91 86 91 82 64 65 82 83 89 97 97 81 66 72 80 76 69 65
72 75 74 69 68 58 60 66 73 76 60 70 74 51 36 27 31 44 49 42 40 41 48 41 39 39 40 43 43 45 52 61 74 81 74 84 90 98 96 91 83 96 95 98 96 98 93 87 75 75 72 68 63 65
77 78 78 75 67 53 46 47 61 61 56 55 53 42 34 37 40 45 57 48 45 46 45 47 52 51 46 43 38 42 56 72 76 73 86 86 92 92 96 97 94 93 89 96 97 94 87 78 73 69 71 69 69 71
74 76 77 78 69 58 52 47 44 43 45 45 41 35 40 40 43 45 55 56 52 54 57 71 63 53 51 50 48 42 45 61 64 63 73 80 88 89 89 94 96 91 88 90 89 84 83 78 77 76 77 73 75 78
70 69 71 73 71 64 56 47 46 44 46 44 43 44 41 36 37 43 51 58 60 63 77 78 76 62 62 64 61 53 48 47 57 66 67 76 79 95 87 88 90 90 89 87 84 81 77 75 86 85 86 91 91 87
63 65 68 71 70 62 54 46 45 47 48 46 48 45 40 29 31 50 55 57 63 67 73 84 82 78 73 69 73 67 63 55 54 61 61 69 80 92 81 94 97 92 85 82 81 78 75 77 94 94 95 96 97 94
59 59 62 68 71 61 52 50 50 54 53 55 50 46 38 29 40 58 66 74 65 72 84 86 79 79 78 79 78 83 80 69 52 62 61 71 76 84 80 92 94 94 88 86 82 80 79 89 97 97 95 95 95 95
54 55 58 73 70 60 55 51 54 56 58 57 51 46 35 30 45 62 69 81 85 91 93 90 81 81 80 77 80 93 92 74 59 61 61 77 76 76 79 83 86 92 95 93 85 88 97 96 95 95 92 91 91 92
52 52 62 76 76 68 61 53 51 59 59 55 49 36 34 45 58 67 76 83 90 96 92 84 83 87 90 66 85 93 86 75 69 77 74 72 77 78 70 67 73 92 97 97 97 97 97 95 94 92 89 88 86 86
51 61 76 77 71 65 59 56 56 59 59 48 35 46 52 58 74 81 89 92 95 93 89 87 86 87 83 64 80 81 83 82 85 77 74 73 75 69 64 63 82 92 92 97 97 98 97 93 89 86 80 77 77 76
57 66 74 70 66 61 54 52 58 63 59 41 51 67 72 80 86 90 94 93 89 89 82 76 72 79 67 70 80 80 89 85 90 88 80 77 71 68 69 75 88 88 92 94 93 91 86 80 76 74 73 72 71 71
63 68 73 69 64 54 47 55 59 61 50 53 72 75 84 88 91 92 89 84 88 74 67 64 61 65 83 76 91 90 84 82 81 86 78 71 74 72 86 87 88 87 86 84 81 78 75 73 70 68 68 69 71 73
67 67 66 61 54 49 49 58 64 60 56 74 83 87 90 89 93 84 82 77 66 56 65 54 64 69 87 83 91 91 81 80 96 97 95 90 82 83 82 82 79 76 74 71 69 68 68 69 70 70 71 73 75 76
68 66 62 57 60 63 65 66 60 58 82 85 89 93 91 89 78 76 75 72 73 66 56 62 60 66 71 76 75 85 90 92 95 90 96 86 83 84 81 76 74 73 73 72 72 72 72 71 70 72 72 73 76 77
68 65 63 61 66 72 72 66 62 80 88 94 94 94 85 85 84 76 68 70 64 66 79 77 74 73 77 84 85 92 96 93 95 96 91 87 84 82 78 76 74 72 69 67 67 68 70 71 74 77 76 73 66 60
61 66 68 66 71 73 66 56 73 86 95 98 91 91 87 81 77 57 57 60 65 75 80 79 83 87 96 92 97 94 91 92 92 85 81 77 75 74 72 69 67 67 66 67 71 74 74 68 61 54 51 51 52 52
61 69 69 69 69 62 55 70 96 98 98 96 89 85 74 62 55 55 60 69 76 88 88 88 94 98 96 93 87 85 88 83 77 74 71 71 73 70 68 70 72 76 76 75 69 60 57 52 51 55 55 50 52 45
72 69 67 65 57 60 66 97 99 97 94 90 89 86 61 56 61 71 71 80 89 95 96 98 93 92 91 89 92 83 72 74 79 79 78 75 73 74 77 79 78 73 61 57 57 53 53 55 58 58 52 45 40 40
77 66 58 49 69 87 97 98 97 92 89 90 86 69 58 64 74 76 79 82 86 89 94 93 89 87 91 84 80 76 69 69 76 78 77 77 77 77 72 61 57 57 58 58 59 60 59 55 54 50 47 46 45 47
74 53 62 79 96 99 97 97 92 91 87 86 75 65 72 75 79 78 78 79 82 84 87 81 85 83 75 73 72 67 68 74 73 75 77 75 63 56 57 57 58 58 58 58 59 57 55 51 47 44 40 39 38 40
60 68 86 98 98 96 93 91 87 84 83 79 67 73 76 76 78 79 80 78 78 78 76 73 76 71 65 66 66 65 69 71 76 77 76 63 54 56 57 58 56 58 59 60 58 54 49 51 49 44 35 35 32 31
67 84 96 97 98 96 93 88 86 84 83 71 71 73 77 74 73 73 73 74 73 72 68 65 67 65 63 64 66 68 72 80 79 76 65 53 56 57 57 57 59 60 61 59 57 54 53 50 41 36 33 34 31 32
88 97 96 97 98 95 94 88 86 83 76 76 75 79 79 74 71 70 67 66 66 65 64 66 64 64 63 64 69 74 78 80 79 69 55 56 56 57 59 57 58 59 59 57 52 53 48 42 35 30 32 31 36 38
98 98 98 98 95 96 89 82 72 76 85 88 88 82 77 76 70 67 65 62 61 60 63 63 63 65 67 72 77 78 82 80 73 63 58 56 59 58 53 53 54 56 55 56 52 46 41 38 34 33 34 33 34 40
98 95 94 91 90 90 83 84 88 89 92 89 86 80 78 73 71 66 62 62 61 62 63 64 66 74 78 80 80 83 81 75 68 61 59 60 53 48 48 48 48 50 49 51 50 46 41 37 34 33 34 34 34 35
93 88 87 82 83 84 82 86 85 86 87 86 83 81 77 74 71 65 61 64 63 67 70 75 77 80 81 81 81 79 76 71 66 63 59 52 48 47 49 48 53 55 53 46 43 41 38 36 34 33 32 33 33 34
92 85 79 78 81 78 82 83 85 86 86 83 81 80 78 75 67 66 68 70 71 71 74 78 81 81 80 81 80 77 69 68 67 62 51 45 41 40 44 51 57 55 51 43 35 31 30 32 33 32 32 32 33 35
84 82 82 82 82 86 88 88 87 86 82 79 78 76 73 70 70 74 75 73 73 73 76 79 80 79 80 79 75 70 66 67 65 53 41 35 30 30 35 46 50 48 43 36 31 28 25 25 27 31 32 35 37 39
89 86 86 88 90 90 88 86 84 81 83 80 80 77 73 71 72 75 74 74 75 76 78 80 80 80 78 75 71 66 65 63 53 40 39 34 27 28 34 49 49 44 38 33 30 27 24 24 26 28 31 34 38 43
90 92 91 91 91 89 87 89 87 89 82 81 78 73 72 71 72 73 73 74 75 77 76 78 80 79 76 73 68 65 66 60 46 39 36 33 32 28 40 50 46 39 35 32 28 26 28 29 32 38 41 43 44 46
95 96 93 91 88 87 90 89 88 85 83 81 76 73 70 72 71 72 74 74 75 72 67 68 74 77 76 71 65 63 57 46 36 31 27 26 24 32 47 46 40 36 32 30 28 29 31 32 34 37 41 43 46 48
95 95 94 91 89 92 92 92 91 88 85 80 74 71 71 71 71 70 71 72 73 76 69 69 73 74 74 71 67 60 53 42 32 26 23 24 30 43 47 41 37 35 32 30 31 31 32 32 34 37 39 42 44 48
92 94 95 93 94 92 90 89 86 85 81 76 73 72 71 71 69 69 71 71 74 77 71 68 72 73 72 68 62 54 46 37 28 24 25 31 40 47 42 39 37 34 33 31 31 31 32 32 32 35 41 47 50 54

GFSWCAN_prec_cthk_087.txt.gz
RH
75 74 66 62 57 70 82 87 83 69 69 69 53 51 47 47 39 40 38 37 41 43 41 37 40 41 35 36 45 40 43 56 59 62 82 85 89 89 95 98 81 74 83 86 89 96 97 93 91 91 93 85 80 74
81 74 70 70 70 75 78 78 77 72 70 82 59 58 49 40 37 49 43 30 36 37 37 32 29 32 35 36 36 35 42 51 61 62 68 79 90 94 97 97 97 98 99 97 95 98 98 98 91 90 88 80 69 63
87 82 77 74 71 72 68 71 73 71 60 67 75 70 52 32 36 45 42 35 34 35 38 36 38 36 32 33 30 36 50 54 61 55 61 74 85 89 96 98 95 92 91 98 96 97 94 92 87 80 79 76 72 68
93 87 82 78 76 70 63 61 69 71 70 75 69 66 53 48 42 45 46 42 39 42 48 53 49 46 43 44 45 41 38 46 49 54 61 72 82 89 96 97 96 90 91 98 98 94 90 87 86 82 80 78 74 73
94 90 88 82 77 68 60 51 47 56 68 72 58 44 41 39 39 40 44 47 47 48 56 55 57 56 52 51 54 58 53 49 43 48 62 60 74 90 89 97 91 85 83 84 92 89 86 83 79 83 84 84 84 86
88 86 89 88 82 73 60 52 46 45 50 46 44 40 38 36 34 38 42 44 47 50 48 54 60 64 67 67 66 66 66 61 52 47 53 54 72 86 88 91 92 83 82 75 81 82 80 79 78 81 84 86 91 93
79 78 80 84 80 75 65 55 47 47 48 51 46 45 39 29 31 44 50 55 52 56 52 59 70 73 72 74 75 75 77 75 70 55 50 57 73 84 87 86 86 82 80 78 79 78 77 77 79 81 88 95 95 92
71 74 76 75 74 71 62 55 52 52 57 56 56 45 40 29 39 52 58 60 60 58 62 71 77 79 79 78 76 75 87 88 79 59 48 60 77 80 87 84 76 77 81 84 84 82 79 79 81 87 91 88 86 87
67 63 64 66 76 66 61 56 60 61 60 62 55 47 35 33 38 53 62 65 67 69 74 78 80 83 86 78 69 86 92 88 74 66 62 73 82 83 77 70 67 72 88 91 90 85 84 89 89 90 90 87 83 81
65 60 61 66 75 66 65 63 61 60 62 59 49 37 40 38 57 58 67 68 72 77 81 76 75 82 85 75 77 88 81 76 84 79 71 75 80 77 70 63 64 81 95 97 97 96 96 95 91 86 82 80 74 71
61 60 65 78 79 72 69 64 59 61 58 49 38 46 58 61 68 76 80 79 81 84 77 75 68 74 79 71 79 84 93 90 95 91 85 80 76 68 66 67 80 89 96 97 97 95 93 84 76 73 70 68 67 67
57 61 78 82 78 73 72 66 62 58 53 38 58 66 71 77 81 83 81 81 85 79 70 67 62 66 79 77 86 92 89 90 90 92 86 79 75 70 69 85 90 91 89 88 83 79 75 72 69 67 67 68 68 69
56 73 80 78 74 67 66 65 61 62 49 58 71 73 77 81 85 78 81 80 77 64 64 63 66 74 79 87 91 97 97 88 91 94 88 90 84 84 88 88 85 79 75 72 70 68 68 69 70 69 68 67 68 70
67 78 81 78 74 67 58 58 62 60 56 67 75 81 83 84 75 79 80 80 68 73 62 59 61 70 80 84 79 79 82 92 98 95 96 87 85 84 82 78 73 72 72 71 70 69 68 67 67 69 71 71 69 64
72 78 80 72 61 54 56 63 64 58 68 82 81 86 78 86 84 81 79 77 75 72 73 65 60 64 70 77 82 86 95 97 98 97 93 85 81 78 77 76 75 74 70 67 66 66 68 70 69 63 56 51 45 44
79 79 72 65 65 65 70 71 61 70 87 93 88 86 84 87 86 81 71 67 61 70 77 77 80 76 85 89 96 95 98 97 94 85 80 77 74 74 75 73 70 67 67 68 71 70 66 55 49 47 46 46 45 43
75 71 67 66 71 72 74 65 76 82 89 87 84 86 85 77 78 73 59 60 60 75 80 79 83 88 99 95 92 93 93 86 80 80 77 76 76 76 74 73 72 73 74 73 62 53 49 49 52 51 49 45 41 37
73 71 68 71 72 73 68 73 81 83 82 89 92 90 85 67 65 59 56 60 69 81 81 84 93 91 92 92 96 93 85 76 76 80 81 80 76 71 73 77 77 70 56 53 52 50 53 53 53 51 46 40 38 39
76 70 68 65 69 65 62 76 87 89 88 86 88 87 81 63 62 62 60 65 77 85 85 87 88 90 92 90 87 84 77 69 69 74 75 74 74 74 72 61 55 54 54 52 53 55 56 54 53 50 48 47 47 44
72 67 68 64 61 67 79 91 93 96 91 89 88 85 68 66 69 70 72 76 80 86 84 86 88 88 89 81 78 75 68 65 68 70 72 75 73 59 55 55 54 54 53 55 57 57 54 50 47 45 44 40 38 37
73 65 72 85 87 82 85 92 91 91 90 87 83 75 69 70 77 82 81 81 81 78 83 81 76 75 74 69 66 65 62 64 66 70 73 73 65 53 53 54 54 56 57 56 55 53 52 51 50 47 42 35 34 32
62 67 83 86 92 95 94 91 91 89 85 85 82 69 69 72 78 79 81 77 75 77 76 69 65 64 64 63 63 62 62 65 71 74 73 69 53 51 55 56 58 56 54 54 55 57 56 53 49 45 37 35 35 32
69 80 91 98 98 94 92 90 91 87 88 87 76 70 69 73 78 75 71 69 70 70 68 66 63 64 64 63 62 63 68 74 76 75 72 62 52 55 58 58 55 51 51 51 52 54 52 48 46 42 36 35 35 35
91 97 97 98 97 97 91 93 88 87 85 77 78 78 75 76 74 69 68 64 63 63 62 60 61 63 63 63 65 70 76 75 77 76 72 62 56 58 58 53 48 47 46 50 53 53 50 47 43 40 38 37 35 34
98 97 97 95 90 88 87 87 87 79 79 87 90 85 84 77 73 69 63 65 64 63 61 61 62 63 63 65 72 78 79 78 79 78 71 62 59 58 52 45 41 39 38 42 48 52 52 49 45 41 38 35 33 31
96 91 87 87 88 87 84 84 85 88 90 90 88 87 81 79 76 70 66 64 64 63 61 61 63 66 73 77 78 80 81 81 78 72 69 65 61 53 44 38 34 31 33 36 46 54 51 47 44 40 32 29 29 30
93 90 87 87 88 86 89 86 86 88 88 86 89 88 83 79 72 70 69 67 66 63 64 68 71 74 77 80 81 82 82 81 75 70 67 64 56 46 40 35 33 33 34 38 42 45 41 38 34 30 27 28 31 33
91 90 89 86 84 85 85 87 88 86 86 85 85 86 83 78 76 73 70 68 71 70 71 73 74 77 81 82 81 82 82 80 75 69 64 58 48 38 33 31 31 30 31 35 43 41 38 34 29 26 27 28 29 31
88 87 87 88 88 86 81 81 86 88 88 86 87 87 82 78 75 70 69 70 73 73 73 75 78 81 83 82 83 82 80 78 73 64 58 47 32 25 23 23 25 28 32 36 43 39 35 32 30 29 31 33 34 38
90 89 88 87 85 84 86 87 88 89 87 86 83 81 80 79 74 70 68 70 74 75 76 76 78 81 82 83 82 82 80 75 66 61 54 40 29 25 23 24 27 31 34 42 39 38 35 32 30 30 33 34 36 38
91 93 92 91 90 89 90 91 89 87 85 84 82 81 81 79 73 69 67 67 72 75 75 77 78 77 74 76 81 82 78 72 67 59 50 39 30 23 24 30 34 34 40 42 40 38 34 30 30 31 30 32 36 40
96 97 96 95 93 92 91 90 90 89 86 84 83 81 79 77 73 68 68 68 70 73 74 75 78 80 76 75 78 77 74 70 64 53 41 30 24 25 32 38 38 41 43 43 39 34 31 29 28 27 33 38 39 41
97 98 97 96 96 96 94 96 93 91 87 85 82 80 77 76 73 69 68 70 71 72 73 75 78 81 79 78 77 75 73 66 58 46 34 29 30 35 41 41 43 46 43 38 34 31 28 25 30 37 37 37 39 45

GFSWCAN_prec_cthk_090.txt.gz
RH
89 88 79 81 75 77 92 95 88 78 65 62 66 44 46 46 36 37 40 42 45 39 39 36 34 31 27 30 36 32 38 42 45 57 63 69 78 85 96 94 97 96 96 96 96 97 97 94 91 95 98 97 93 87
89 86 75 76 71 74 87 93 92 81 71 66 59 48 47 37 41 45 35 39 43 35 32 33 35 32 29 30 30 30 36 45 51 53 52 63 82 92 92 97 96 96 98 98 97 97 98 98 99 97 98 94 89 82
89 83 79 76 68 69 85 88 95 79 68 71 60 52 46 42 54 46 39 38 34 29 29 32 31 26 24 25 25 31 41 42 43 47 52 59 81 87 96 94 92 92 97 97 97 97 96 98 98 97 94 88 75 71
90 87 84 76 73 74 83 83 87 77 77 88 83 62 52 49 57 52 39 32 30 35 41 40 38 37 35 35 35 34 39 40 41 42 47 56 68 80 94 98 88 85 92 95 97 93 91 88 91 88 85 80 78 76
95 94 89 81 75 71 76 79 79 76 67 71 71 62 62 65 49 47 45 37 35 34 41 46 46 48 44 41 45 48 50 50 47 41 47 55 62 84 92 90 86 82 81 85 87 86 87 84 83 84 81 80 79 75
99 97 93 86 83 70 64 69 66 71 76 79 73 65 62 59 52 44 38 37 37 38 40 46 49 52 54 59 59 59 61 59 58 53 44 49 59 77 87 88 88 78 76 76 81 84 80 79 76 78 80 83 82 83
99 96 94 89 82 72 65 56 48 54 70 76 70 62 44 34 32 35 37 42 40 41 39 44 54 57 62 67 68 67 67 70 72 65 51 46 66 77 85 86 85 74 74 73 75 74 77 77 78 79 81 82 84 86
97 97 94 91 82 76 64 56 50 48 52 64 55 42 34 28 33 40 44 46 45 43 46 52 58 64 70 74 75 72 74 77 79 75 62 48 69 79 84 85 80 73 73 78 77 75 75 78 80 81 79 82 84 84
96 96 94 92 85 77 67 58 53 55 57 55 45 40 36 28 37 47 50 51 50 50 52 59 66 74 75 76 74 73 81 90 81 82 65 60 78 87 81 73 70 68 73 88 87 84 83 83 88 90 89 87 81 78
87 87 83 85 83 70 64 58 62 64 62 57 47 39 34 31 37 47 54 54 56 59 63 66 69 72 74 79 69 82 86 84 80 71 62 69 81 81 77 70 65 79 96 98 95 94 91 95 96 93 87 80 75 71
75 71 74 80 75 66 62 64 65 64 63 53 44 44 43 48 53 57 60 60 64 66 67 67 66 70 74 74 72 83 95 95 97 86 90 87 77 72 65 66 78 94 98 98 98 97 97 96 89 80 75 70 67 67
66 66 68 79 73 69 69 64 62 61 55 45 46 56 54 61 65 65 66 68 71 69 72 70 63 63 70 76 80 93 95 96 97 94 89 83 77 71 68 76 90 94 95 95 95 93 86 79 74 69 68 68 67 66
64 64 72 81 73 72 72 68 62 58 45 58 63 65 65 68 69 66 68 72 73 69 64 67 67 69 77 81 88 96 98 94 93 92 86 80 79 75 81 89 91 87 81 79 77 74 71 70 70 69 66 66 68 67
65 75 83 84 78 74 73 73 62 55 54 64 68 68 72 69 67 66 71 71 71 67 61 61 66 70 78 88 86 85 83 94 94 94 93 90 85 89 89 84 78 74 74 72 69 68 67 65 66 67 67 59 51 48
80 87 89 82 76 80 80 69 62 57 60 70 72 73 72 71 68 75 77 78 76 76 66 60 63 70 76 77 82 85 95 97 98 97 94 86 85 81 79 76 74 73 71 68 67 67 67 67 61 51 47 43 41 41
87 89 84 79 75 72 69 64 63 64 65 70 75 75 73 77 80 78 76 71 71 70 70 66 67 70 77 85 96 97 98 96 87 82 79 74 72 72 73 73 70 68 67 66 70 68 56 48 45 43 43 42 40 38
85 81 78 75 71 67 65 67 67 68 76 79 77 82 77 72 79 75 76 64 62 70 75 76 78 75 93 96 96 95 90 85 81 81 76 74 73 74 72 71 72 72 74 70 53 47 44 46 48 47 45 39 37 39
79 77 73 71 69 68 70 69 68 76 82 83 84 85 80 73 72 72 66 62 61 72 80 85 88 87 91 92 92 92 86 78 74 74 77 79 80 75 71 73 77 70 52 49 46 46 49 50 51 49 45 43 43 42
70 72 72 67 66 69 66 65 79 86 81 81 88 89 85 72 69 64 58 58 64 78 81 80 85 88 91 88 88 84 80 74 67 70 75 75 72 71 71 64 54 51 50 47 49 52 53 52 49 48 47 47 44 44
70 71 73 74 71 70 68 73 75 78 80 83 82 84 86 72 68 64 58 58 67 75 75 77 86 87 88 85 79 75 73 67 63 68 70 72 74 69 55 52 52 51 51 54 56 54 50 48 49 50 50 49 45 42
77 77 74 71 72 76 81 73 78 90 88 88 89 87 82 67 69 70 67 64 70 71 83 84 85 83 79 76 74 70 65 60 60 63 67 73 73 63 52 51 52 53 56 54 51 49 48 48 52 53 51 46 41 40
72 71 67 76 80 72 81 88 93 91 90 90 86 86 71 69 71 73 75 72 72 77 77 77 74 70 66 62 60 60 60 60 62 64 70 72 70 57 50 51 53 57 55 50 47 45 44 45 49 50 50 46 42 40
71 77 79 82 83 76 86 91 89 89 92 91 88 83 69 70 71 74 74 73 73 73 74 74 72 68 64 61 62 61 59 61 65 69 72 73 68 55 52 52 56 56 52 47 45 42 42 44 45 43 47 45 43 42
79 85 87 93 95 96 91 90 88 91 91 88 86 78 71 69 73 75 74 68 66 67 68 68 66 65 62 61 62 62 63 68 73 73 75 75 67 58 55 55 56 54 49 45 42 40 40 39 38 39 46 45 43 41
82 92 96 95 96 94 88 92 92 91 88 85 80 81 84 78 76 74 66 63 66 65 64 64 62 60 60 62 64 64 68 75 75 75 79 76 70 61 57 57 55 51 43 37 34 35 34 37 38 43 49 47 43 38
96 91 85 86 88 88 87 88 87 85 83 84 90 94 86 81 74 67 63 63 63 62 61 61 61 61 62 64 67 74 78 79 78 81 79 75 70 62 57 52 47 39 31 28 29 31 34 39 41 49 47 41 35 33
87 84 82 82 84 85 88 85 84 89 89 92 93 93 86 81 71 65 66 66 66 63 61 61 63 65 70 73 75 78 82 83 83 83 79 76 72 62 53 45 38 32 31 32 31 31 35 38 41 41 38 35 33 32
85 83 84 86 87 88 89 91 90 85 86 83 86 89 87 79 74 72 69 68 67 63 64 67 70 73 73 74 77 81 84 84 84 84 81 78 71 60 53 47 38 33 33 30 29 34 38 39 39 39 36 33 30 30
90 85 84 90 92 92 86 84 84 84 86 89 89 88 84 81 77 73 70 68 68 66 66 70 73 74 77 79 81 84 86 86 86 83 81 75 66 58 48 40 34 30 27 29 34 39 39 41 41 38 35 32 31 31
89 90 91 92 92 89 87 87 87 86 85 87 88 86 85 81 78 74 72 70 69 68 67 71 74 77 77 79 82 85 87 87 86 86 82 71 60 47 38 33 29 27 28 35 43 44 44 43 39 34 30 28 32 34
92 93 92 91 89 86 87 86 85 86 86 86 86 85 83 80 76 73 71 71 71 70 69 70 75 78 79 80 83 82 81 80 84 85 77 68 56 46 37 32 28 29 37 46 48 46 43 39 34 28 28 33 33 33
97 98 97 96 94 93 93 92 91 90 88 86 84 82 81 80 75 71 72 71 71 71 69 70 74 78 80 81 83 84 83 80 80 78 73 66 55 42 35 30 31 41 48 51 48 43 39 32 28 32 34 31 32 34
98 98 97 97 98 97 96 97 94 92 88 85 82 82 80 77 74 71 72 73 74 73 72 72 74 77 79 82 83 84 85 84 81 74 66 57 46 37 32 35 45 51 51 48 43 38 31 31 33 33 30 30 31 37

GFSWCAN_prec_cthk_093.txt.gz
RH
97 95 96 89 85 80 89 97 88 76 59 50 58 68 59 46 43 38 41 40 39 40 42 39 29 27 31 33 34 31 36 35 39 47 52 63 74 90 89 87 90 97 97 95 94 97 96 94 95 96 98 98 98 97
98 98 92 88 83 79 91 97 94 77 63 61 69 56 46 47 33 36 38 42 49 44 38 35 32 26 28 27 25 29 31 38 39 42 44 60 76 90 85 90 90 96 97 98 97 97 98 97 97 97 97 97 98 95
99 93 90 86 78 78 89 96 91 77 69 69 66 51 48 43 38 36 40 43 45 43 38 33 30 27 23 21 22 29 35 34 32 37 44 57 77 85 86 86 89 93 97 97 97 97 97 97 97 98 97 95 91 89
98 93 87 81 78 79 86 97 94 87 74 73 66 52 48 42 44 43 40 40 38 37 37 37 33 31 29 27 26 31 33 36 36 35 40 46 65 75 84 85 80 82 89 94 96 96 97 97 97 98 97 95 89 84
93 90 83 76 74 72 85 94 97 87 80 86 61 49 47 50 53 48 43 45 38 31 35 38 38 37 36 37 37 40 41 43 44 40 38 45 54 77 86 81 79 74 80 86 91 90 90 92 97 97 94 88 84 81
91 86 82 77 72 72 83 91 95 87 82 83 79 68 59 62 62 52 47 40 34 33 33 42 44 47 46 48 50 51 51 52 52 50 44 37 47 74 85 82 76 69 72 79 84 87 88 87 83 84 86 86 83 80
94 90 86 78 74 70 82 85 86 79 77 74 77 67 66 67 66 47 44 41 34 32 32 44 50 51 52 57 59 61 60 60 61 59 54 43 52 72 84 84 78 66 66 72 79 81 85 85 81 82 82 81 79 75
98 97 90 86 81 68 69 73 74 84 85 78 71 68 65 63 56 53 41 36 34 32 35 43 51 54 58 62 67 68 66 66 68 67 63 52 54 77 84 83 77 66 65 68 74 77 77 83 83 81 82 81 77 75
98 98 97 86 79 71 64 56 56 64 77 75 69 64 53 41 36 39 39 38 36 36 40 44 51 60 65 67 68 70 70 77 77 79 73 60 60 78 82 82 74 68 67 67 74 76 79 79 79 77 80 79 73 70
97 98 95 84 79 72 64 58 56 57 58 55 59 44 29 29 40 42 44 41 44 45 47 52 57 65 66 70 68 69 83 85 83 77 75 68 70 74 81 73 69 69 82 85 81 79 79 78 81 84 83 78 74 71
98 98 94 88 80 72 64 62 63 61 57 50 40 41 38 37 43 47 49 50 52 53 53 56 59 66 68 68 66 74 88 88 86 80 75 78 77 75 73 67 71 86 93 94 94 90 87 89 93 87 81 77 72 66
95 95 94 91 78 67 65 71 70 66 59 47 43 44 50 53 55 56 56 59 59 59 62 66 63 58 67 68 69 86 96 97 96 96 97 89 79 76 69 70 85 91 94 96 96 95 93 92 86 77 69 66 64 63
84 87 90 84 74 70 69 70 71 68 56 56 52 58 58 61 59 60 61 62 65 64 65 63 62 60 70 77 82 89 98 97 89 98 89 82 81 75 72 83 91 91 89 89 88 85 78 72 69 66 64 63 64 58
72 76 87 80 76 77 71 65 65 56 57 62 60 60 63 60 61 59 61 60 65 68 60 61 63 70 74 82 86 79 82 89 92 90 84 84 81 83 90 91 87 81 77 74 70 68 67 65 64 64 62 52 47 45
65 72 88 83 79 80 73 65 61 53 57 65 66 65 65 64 65 68 71 72 71 68 62 60 65 71 76 79 81 85 93 97 98 97 92 90 86 88 86 79 74 73 72 69 67 66 66 67 58 48 45 41 38 38
72 87 89 84 82 79 77 67 61 58 61 66 69 72 68 67 69 71 72 73 73 68 65 63 67 71 72 83 96 95 94 90 87 85 80 78 76 75 75 73 71 69 66 66 69 68 55 48 45 41 41 41 40 38
90 87 89 87 85 82 81 70 62 61 63 66 68 71 74 72 71 71 74 70 68 70 72 72 72 75 87 90 93 91 90 85 81 81 77 72 72 72 71 68 66 69 71 71 56 49 44 44 46 45 44 41 38 39
93 86 83 82 83 81 73 63 59 63 64 65 78 74 68 67 70 70 72 71 64 67 72 80 83 86 93 92 89 86 81 75 70 69 75 74 74 73 72 71 71 74 63 50 46 46 49 50 51 50 44 41 41 42
89 84 79 77 74 66 63 63 68 78 73 75 78 79 73 67 69 73 69 64 61 63 74 79 80 83 85 84 85 80 76 73 69 66 68 74 76 72 67 73 69 54 50 47 48 51 53 52 48 44 43 41 38 37
81 78 77 75 70 66 61 62 71 81 81 80 82 82 82 78 71 72 65 61 60 63 73 76 82 83 84 82 78 74 71 70 66 65 70 72 71 72 66 55 52 50 49 49 53 54 50 45 40 38 38 39 39 35
83 82 77 72 70 66 72 66 75 84 85 84 84 84 85 78 68 66 65 62 61 65 65 63 74 79 84 84 79 74 71 66 60 59 63 67 73 73 63 52 50 50 49 55 56 52 46 39 38 38 39 38 37 35
78 74 74 70 69 72 83 71 71 75 79 83 86 87 84 76 66 69 69 65 61 56 59 66 74 78 76 70 66 63 62 60 58 59 61 66 71 71 62 51 49 49 53 56 53 47 43 41 38 38 39 38 39 41
70 73 72 72 75 81 83 71 75 89 92 92 91 89 84 69 67 66 68 63 60 60 70 74 77 77 73 68 64 60 60 59 59 60 63 68 72 72 62 51 49 51 53 54 51 48 44 40 39 39 38 37 41 45
73 77 81 82 79 77 83 92 91 92 93 93 90 87 78 68 66 63 64 61 62 64 69 70 72 73 71 68 64 61 61 60 61 64 68 71 74 73 64 55 52 53 54 54 52 47 42 39 39 38 38 41 45 48
83 86 90 89 87 87 85 84 83 86 87 90 89 85 77 74 72 67 65 61 65 67 67 66 67 66 64 63 60 62 63 64 65 69 72 74 76 75 70 61 54 52 52 50 48 43 39 38 36 38 42 48 48 44
92 89 89 92 96 95 90 90 91 91 90 91 88 84 84 85 78 70 69 70 70 69 67 66 65 62 62 61 62 64 65 67 73 75 77 78 79 76 71 65 57 51 46 42 38 36 34 34 37 41 49 48 43 41
88 93 91 89 90 90 88 88 87 90 89 90 93 96 91 85 77 74 75 71 69 68 66 64 62 61 61 63 67 70 72 75 77 79 81 82 84 82 76 67 60 50 40 36 36 35 32 33 36 44 46 42 40 36
80 86 90 90 87 86 88 91 90 88 89 87 90 90 89 85 78 75 74 74 72 69 65 66 66 66 67 70 74 76 78 80 82 86 87 88 87 84 80 72 62 51 42 38 36 32 31 32 41 46 44 41 38 34
80 83 86 87 90 92 89 88 85 83 83 87 90 90 87 85 83 79 75 72 70 69 66 66 66 68 72 75 78 79 81 82 85 87 89 89 88 84 79 74 64 51 43 37 33 32 33 43 49 47 42 39 33 31
77 85 92 93 90 86 84 85 85 86 87 87 85 82 85 86 84 81 78 75 74 73 71 69 68 68 72 76 79 82 82 83 85 87 88 87 84 81 75 66 57 45 38 34 32 34 46 51 47 42 37 33 33 30
90 90 92 94 92 90 88 90 90 90 87 86 85 84 82 83 82 79 76 74 74 73 72 70 70 70 70 74 78 81 83 84 85 86 86 83 78 71 63 55 48 40 36 34 36 49 51 47 41 36 36 32 29 28
97 98 97 96 95 94 94 92 90 87 85 83 82 82 83 83 80 74 73 73 75 74 73 73 72 72 72 73 76 80 83 84 85 87 86 82 79 68 58 51 42 37 35 39 51 51 47 40 37 36 32 28 26 26
98 98 98 98 97 97 97 98 97 95 92 88 84 83 80 78 74 70 70 74 76 75 74 74 74 75 75 75 75 78 82 85 87 87 84 80 72 63 55 46 42 38 43 53 52 46 39 39 37 32 26 24 25 31

GFSWCAN_prec_cthk_096.txt.gz
RH
81 98 96 87 82 77 79 84 93 85 76 77 78 67 59 66 70 68 62 55 53 51 54 45 35 37 33 29 31 31 34 33 37 44 48 58 65 75 79 79 84 84 86 88 87 96 96 93 92 93 97 97 97 97
94 98 93 87 85 83 86 94 92 85 71 59 62 71 73 62 47 51 51 48 46 43 45 42 32 30 27 25 24 30 30 35 33 35 42 57 74 76 79 82 82 89 89 91 93 96 96 97 97 97 97 97 97 97
92 99 98 96 89 89 86 95 91 80 67 61 64 68 56 49 44 36 41 41 41 46 46 37 30 28 25 23 22 25 30 30 30 32 38 54 68 78 83 85 85 85 87 94 97 97 97 97 97 97 97 97 97 97
98 99 97 91 90 86 85 98 94 78 70 67 76 51 48 53 39 41 42 41 49 50 47 44 33 27 25 22 24 24 27 30 30 30 34 45 61 66 86 83 87 83 87 91 96 97 97 97 97 97 97 97 95 92
99 98 91 89 83 79 83 96 93 82 77 74 68 51 55 48 42 43 44 44 45 39 45 41 35 32 31 31 32 33 34 35 37 35 34 39 45 68 85 81 83 75 81 85 91 90 92 97 97 97 97 97 96 91
92 89 87 86 81 80 84 96 93 89 79 79 69 52 63 53 45 44 51 43 40 42 36 41 42 39 39 40 42 41 42 44 44 44 41 35 38 59 83 86 80 69 76 79 87 89 90 90 91 95 93 88 85 82
91 89 88 85 75 73 81 95 95 96 86 86 73 60 56 51 48 47 50 47 48 37 32 44 48 48 49 51 51 52 50 51 51 53 50 43 41 51 78 85 80 72 66 78 81 84 88 85 85 85 83 81 79 76
90 89 89 80 73 71 87 92 94 96 86 87 75 74 64 63 62 59 54 48 43 38 33 44 51 52 51 53 56 59 59 57 58 58 59 54 52 55 70 84 83 74 68 67 78 80 82 84 81 82 84 83 80 74
92 90 87 79 69 71 85 88 91 92 83 75 77 71 64 66 67 61 55 51 38 32 34 39 47 55 55 60 63 66 64 64 66 68 67 64 59 57 71 84 84 75 68 65 70 76 80 82 83 81 80 80 74 70
94 92 87 77 71 67 76 84 90 92 83 76 69 63 65 65 60 58 50 34 32 35 37 43 48 56 59 64 65 62 68 74 74 75 74 74 66 58 74 84 83 74 66 72 74 75 78 83 81 80 80 79 73 67
96 95 93 81 73 65 60 61 69 79 76 69 65 62 55 49 44 40 40 43 43 44 43 47 53 60 63 63 62 60 75 90 86 85 81 78 66 59 71 78 70 67 78 84 85 83 84 83 85 85 81 76 72 70
97 92 89 84 78 69 66 64 61 56 49 48 51 50 44 43 43 45 47 51 52 52 55 55 55 60 63 62 59 74 92 98 97 89 86 88 79 75 73 69 72 90 96 97 95 95 91 86 87 83 77 72 69 67
98 96 92 86 77 70 73 70 64 57 46 40 43 46 49 53 52 52 56 56 58 58 59 60 60 57 64 66 71 83 91 97 91 98 95 86 80 73 69 70 91 93 94 95 97 96 89 85 81 77 70 65 60 52
99 98 95 83 76 75 76 73 69 58 53 53 53 53 58 58 58 58 55 56 60 63 63 58 57 64 69 74 79 77 81 88 94 88 82 78 75 73 79 91 91 88 87 87 85 81 75 69 65 64 59 51 46 42
95 98 92 88 84 78 74 73 65 60 60 65 61 63 65 63 63 64 63 64 65 65 62 59 62 68 72 78 79 82 90 93 89 85 82 82 81 88 91 89 84 79 74 71 70 68 66 65 58 49 45 41 38 37
91 96 91 90 87 81 72 67 58 58 60 65 65 67 66 65 66 64 66 66 66 64 60 58 65 69 74 76 92 95 95 90 83 85 82 82 83 84 83 78 74 72 69 66 66 68 59 48 45 42 41 41 39 38
78 90 90 89 87 83 73 65 58 59 60 65 66 68 69 69 68 65 66 68 72 68 63 63 64 68 83 86 93 95 93 89 86 82 77 76 74 71 69 67 64 62 65 69 66 50 46 44 44 44 44 41 37 34
79 90 91 88 85 81 77 63 58 60 61 66 69 70 68 66 67 67 66 70 68 66 65 74 80 84 92 94 93 89 86 79 74 70 74 74 74 74 72 69 66 69 71 61 48 46 46 47 47 46 42 37 35 31
86 91 90 91 87 80 76 63 61 65 61 65 69 66 66 67 69 68 68 73 67 66 70 78 78 79 88 85 86 82 78 74 69 65 64 67 70 71 71 67 69 73 57 49 46 49 51 52 50 45 39 35 33 31
96 97 95 92 86 81 72 60 56 69 66 72 75 74 69 64 63 68 71 69 62 61 67 71 74 74 80 81 77 74 70 68 67 65 63 66 71 73 69 65 61 55 51 48 49 52 54 52 46 42 39 36 32 31
94 92 90 86 80 68 61 57 63 76 74 72 75 78 77 74 71 66 70 69 63 58 56 60 72 76 77 78 78 76 69 68 67 62 60 65 65 69 73 66 56 52 50 49 51 55 54 50 45 42 38 34 33 33
87 86 83 75 68 63 72 61 71 76 78 81 80 80 82 81 78 71 71 68 60 50 53 56 61 64 71 77 73 68 65 63 61 57 57 60 64 71 73 68 60 52 49 52 54 54 51 49 46 43 38 35 35 34
76 75 72 69 67 68 78 70 70 78 81 84 86 89 89 84 75 67 65 61 56 57 60 59 57 63 73 72 68 64 61 57 58 57 57 60 64 71 74 72 65 54 51 52 52 51 51 49 47 44 40 37 36 36
76 73 67 64 66 78 79 77 69 70 74 88 91 91 87 81 72 63 58 55 57 60 60 60 64 74 78 77 74 70 64 60 59 59 60 62 67 72 75 75 70 63 57 53 50 49 48 45 43 41 39 39 39 40
72 72 75 76 76 79 76 76 76 84 89 90 91 92 89 79 71 66 59 58 60 60 60 63 69 72 72 72 68 64 62 61 61 61 62 65 71 74 76 77 74 71 64 55 51 48 44 40 39 38 40 40 39 43
77 77 81 85 82 78 80 85 86 86 86 90 91 92 87 81 76 72 69 66 64 64 63 65 68 67 68 67 64 62 62 63 65 65 66 72 74 75 77 79 78 73 67 61 55 48 43 38 37 39 40 39 42 48
81 86 88 90 91 95 94 91 90 92 93 90 91 92 90 89 84 79 75 72 70 67 66 67 67 67 68 63 62 63 66 68 71 74 74 75 79 82 84 83 82 76 68 60 54 48 41 37 37 36 36 40 47 45
79 86 95 95 94 96 94 92 91 90 89 88 90 92 89 90 89 81 80 79 78 75 72 69 68 67 67 66 67 69 73 77 77 77 78 80 83 86 88 87 82 75 68 62 57 47 39 35 33 34 40 48 47 40
76 81 87 95 97 95 93 90 86 85 84 85 89 90 88 88 87 87 83 81 79 79 76 73 71 70 68 68 71 74 78 79 79 81 83 85 87 89 92 89 83 78 72 63 51 43 37 34 36 42 49 46 40 38
66 70 76 84 89 87 84 87 88 86 84 84 87 86 85 83 84 86 86 85 80 77 76 75 73 72 70 69 69 72 76 81 83 84 84 86 88 89 87 85 80 72 63 53 46 41 39 39 43 48 44 41 38 32
84 82 79 79 81 82 91 91 90 88 88 87 88 87 86 84 82 81 82 83 84 82 79 75 73 74 74 73 72 72 73 75 80 84 86 87 88 89 85 80 73 63 54 48 44 43 43 45 48 44 42 38 32 26
97 97 94 93 90 88 88 92 94 94 90 88 85 83 81 82 80 74 75 78 81 82 79 76 74 73 74 74 74 75 75 76 77 79 83 87 85 84 77 69 64 57 50 43 45 46 48 47 45 44 38 31 25 23
98 98 98 98 97 97 97 98 97 96 94 93 89 86 82 79 76 72 73 77 79 78 76 75 74 74 75 76 77 77 79 79 80 81 81 82 80 76 71 64 60 54 47 46 48 49 47 47 44 37 30 25 23 26

GFSWCAN_prec_cthk_099.txt.gz
RH
87 86 93 99 89 82 78 74 79 85 86 79 85 81 78 85 78 73 81 80 71 66 65 56 56 53 42 37 34 32 31 31 39 42 45 56 56 62 64 67 70 72 74 76 75 82 86 87 88 87 96 96 96 97
85 90 98 92 85 82 79 78 79 75 72 76 82 85 80 65 61 72 81 69 57 58 62 62 46 38 39 27 25 30 29 33 32 36 44 53 59 65 68 70 75 82 83 84 85 88 90 93 92 95 96 97 97 97
87 92 98 85 86 88 83 83 92 86 86 85 80 70 63 70 72 71 64 62 61 63 58 42 39 32 28 23 24 26 30 28 29 29 40 55 61 64 68 74 80 83 85 87 92 92 94 95 94 97 97 97 97 97
87 98 94 86 90 90 89 88 90 82 78 63 63 75 71 54 53 56 56 51 50 44 51 45 37 25 22 23 22 21 22 25 26 27 33 43 54 64 77 77 79 80 83 87 93 94 96 97 97 97 97 97 97 97
92 99 93 88 90 87 90 92 92 81 73 68 75 67 59 60 50 46 48 45 46 43 51 46 38 33 30 29 27 28 29 30 29 28 29 36 46 63 71 79 79 73 76 77 88 94 94 98 97 97 97 97 97 98
98 99 92 90 86 84 88 96 92 82 73 83 63 57 59 53 48 51 47 47 52 49 44 49 43 38 35 35 35 35 35 37 36 36 35 32 37 51 69 78 79 70 72 76 86 89 94 96 97 97 96 95 92 89
99 96 89 87 82 80 84 95 94 79 82 74 52 58 59 48 50 46 50 48 40 41 42 46 44 42 42 42 41 43 43 42 41 44 44 39 39 44 56 72 80 75 67 77 81 86 93 90 96 96 93 88 85 83
95 92 85 82 81 80 84 98 97 86 81 85 56 66 65 54 50 52 53 44 44 45 41 46 51 48 46 48 49 47 46 45 49 51 52 50 52 53 50 59 81 79 72 66 78 80 87 84 89 92 86 83 78 74
89 85 83 82 75 77 87 98 98 93 85 84 75 63 55 52 50 54 51 50 47 41 42 42 45 51 48 51 52 53 54 53 56 57 57 59 59 56 54 60 80 79 74 69 67 76 79 83 85 84 84 83 76 71
89 86 79 79 74 78 93 98 98 91 86 84 75 65 63 69 66 63 60 51 47 43 33 40 44 50 50 55 58 56 58 66 67 64 70 76 69 64 59 67 79 84 78 68 69 73 74 77 82 84 81 80 74 68
86 84 80 73 71 78 96 98 94 86 75 70 70 72 74 74 65 63 59 57 45 36 36 43 48 50 57 58 57 55 63 83 88 82 79 76 72 65 59 70 81 83 76 73 73 72 74 75 78 79 79 74 70 67
83 83 80 78 68 83 91 91 89 85 73 72 69 78 73 58 51 50 51 46 44 44 46 48 51 53 60 58 55 65 82 91 95 86 85 88 78 68 67 76 82 76 77 79 79 80 83 81 80 79 76 73 67 63
90 91 84 76 68 67 68 73 74 72 65 61 63 61 57 52 49 47 49 52 54 54 52 50 54 56 58 59 63 74 86 94 96 98 94 93 85 84 84 74 69 83 89 94 92 90 90 88 82 75 71 67 61 51
85 84 84 80 73 68 62 56 50 45 49 58 58 58 56 52 52 53 52 54 56 56 54 53 55 57 62 64 72 73 78 86 94 94 94 90 84 78 73 77 94 93 94 96 96 94 90 82 71 68 65 52 46 42
92 88 82 78 78 74 67 57 48 44 45 52 51 57 58 60 61 61 60 59 59 60 57 57 58 60 66 72 72 75 82 89 88 82 77 78 78 82 88 92 91 88 89 83 80 78 74 71 65 53 47 43 38 38
90 81 83 84 82 76 69 61 53 53 53 60 62 63 65 65 64 61 59 60 62 63 60 57 61 64 68 72 80 88 87 82 78 76 75 81 85 89 89 87 83 79 77 73 69 68 68 57 50 45 41 42 39 35
83 86 90 90 83 74 69 61 60 59 61 68 69 68 66 63 62 62 63 63 65 59 57 56 60 64 71 79 82 88 86 83 84 81 78 78 78 79 78 77 74 73 70 66 70 67 52 46 44 45 44 41 37 35
85 90 92 90 81 73 65 57 57 58 66 69 69 67 64 65 65 63 62 64 67 64 57 62 70 76 85 88 89 87 86 82 76 73 76 77 77 75 74 72 69 66 69 73 68 50 46 48 47 44 41 37 36 34
89 92 93 88 82 75 65 56 56 60 66 69 69 66 65 64 63 61 62 65 66 64 62 66 71 77 87 86 86 81 76 72 69 67 65 69 71 72 73 71 65 69 73 69 52 48 50 51 48 46 41 39 38 38
92 92 91 88 81 75 69 58 57 64 65 70 67 66 64 64 63 63 63 66 66 60 61 67 73 72 83 83 82 77 72 70 67 67 63 64 65 69 72 71 64 71 70 57 49 50 51 51 50 46 44 44 42 39
89 90 89 85 75 71 69 57 59 67 65 68 72 70 67 63 61 61 63 66 66 57 56 58 65 70 76 78 78 77 74 69 67 66 63 60 63 67 70 71 69 61 57 51 50 50 49 50 49 46 45 44 42 38
91 89 86 80 75 70 70 59 66 72 68 69 73 73 73 71 69 67 62 63 62 54 53 53 55 64 67 70 72 72 70 65 62 59 57 58 60 63 65 72 73 68 59 51 50 50 50 49 45 44 44 42 38 34
88 85 79 76 70 65 73 61 67 72 75 72 75 76 76 77 73 69 67 62 57 55 54 53 52 58 62 66 70 68 66 64 62 59 57 57 59 62 65 71 75 73 67 62 57 52 49 46 43 42 41 40 36 34
80 77 73 65 61 70 70 70 64 71 73 73 76 80 85 83 77 75 62 57 56 55 57 58 58 59 60 72 75 73 71 67 62 57 56 57 60 63 67 72 76 75 74 70 67 62 53 48 45 43 42 41 38 36
73 71 66 64 64 69 72 73 67 67 72 71 80 84 86 87 82 71 63 59 58 60 60 61 63 63 66 75 76 74 71 65 59 57 57 59 62 64 69 74 75 76 78 78 74 67 60 55 50 49 47 44 40 37
66 66 66 69 71 69 70 70 69 67 72 81 85 88 89 88 81 75 75 67 65 64 64 65 65 67 69 74 73 70 66 63 63 62 61 62 64 67 72 75 76 79 81 82 78 72 65 59 55 52 49 44 39 38
66 67 76 78 80 80 77 78 81 84 85 85 88 90 91 92 90 82 80 76 75 71 69 68 67 67 70 71 69 69 66 65 67 67 66 69 72 75 76 79 81 83 84 81 76 67 60 57 55 50 46 41 41 43
67 72 83 88 89 90 94 95 92 91 90 91 92 92 92 92 93 90 87 82 78 76 73 70 68 68 69 70 70 69 69 70 72 74 77 78 78 80 82 83 85 85 78 71 65 61 58 55 52 47 45 43 45 45
71 79 86 89 94 95 94 92 90 86 88 87 89 93 93 90 89 90 89 86 83 82 79 76 73 71 72 71 70 71 71 71 73 78 80 82 83 84 85 86 86 83 80 77 71 62 54 49 45 45 45 46 46 45
73 77 83 87 90 92 90 88 89 92 89 86 85 84 86 87 87 86 86 87 87 85 82 80 79 76 75 73 72 73 73 73 73 75 79 82 84 86 87 89 90 89 85 74 64 57 53 49 45 46 47 48 45 39
70 70 75 76 77 78 79 80 80 85 89 87 84 84 87 88 84 83 83 82 81 84 85 83 80 78 76 74 73 72 73 74 75 76 77 78 79 82 85 87 86 85 75 65 60 57 54 48 47 49 50 45 38 32
93 91 90 87 84 83 83 84 84 83 82 85 85 86 85 85 83 78 78 78 79 81 80 82 84 81 78 77 76 76 77 78 77 78 79 80 82 83 83 83 77 68 62 62 59 56 50 48 51 51 45 39 32 29
98 98 98 98 97 97 96 98 97 97 95 93 91 91 90 88 84 76 74 78 80 79 79 80 81 81 81 80 80 80 80 81 81 82 82 83 84 84 82 74 68 62 60 58 57 51 50 53 52 45 39 33 29 27

GFSWCAN_prec_cthk_102.txt.gz
RH
86 78 78 89 96 98 98 92 85 82 74 72 92 89 89 95 95 96 89 88 84 85 84 79 73 61 54 56 46 42 38 35 38 39 39 44 49 50 55 64 66 63 67 68 64 73 81 78 79 87 94 95 95 96
89 81 88 98 98 94 90 83 80 78 69 78 91 91 90 89 91 91 87 88 83 80 79 70 59 58 45 39 34 32 34 32 37 38 40 46 52 56 57 66 67 74 74 77 78 80 83 84 88 92 95 96 97 97
84 86 98 98 92 86 81 76 76 82 85 90 86 84 86 85 77 80 81 85 76 76 71 69 64 46 34 29 25 28 29 27 28 32 43 50 57 56 60 64 68 73 76 78 81 82 86 87 92 96 97 97 97 97
86 97 98 94 87 82 79 75 66 77 87 91 89 89 77 64 75 78 79 68 66 66 72 55 43 36 27 22 21 20 21 24 25 31 39 52 56 58 61 62 64 72 76 79 86 87 88 90 94 96 97 97 97 97
93 97 93 90 87 86 84 83 86 93 90 80 75 71 69 75 73 69 74 71 68 59 56 48 40 35 28 25 22 24 26 26 25 26 32 41 49 59 62 62 62 67 74 75 84 88 93 94 97 97 97 97 98 97
99 97 92 89 93 89 84 88 84 83 70 71 81 79 63 66 62 67 67 59 52 48 44 50 44 43 35 34 31 32 32 32 33 30 28 27 38 49 57 62 67 66 71 75 81 91 94 96 95 97 97 97 96 95
98 97 93 88 88 88 87 90 85 75 78 87 69 68 74 61 57 53 53 47 54 54 43 46 47 42 38 37 36 39 37 38 37 37 37 33 34 42 49 58 66 71 72 76 82 90 96 96 97 97 94 91 89 87
98 95 92 88 84 83 91 93 81 83 85 65 67 69 56 56 55 50 49 52 52 45 45 48 47 43 39 44 47 43 42 41 42 42 42 42 43 45 44 49 63 74 75 73 82 90 93 95 95 95 91 88 84 79
94 90 87 82 78 80 90 92 86 86 76 64 73 59 57 50 52 52 50 42 42 45 49 46 45 51 44 49 50 48 47 48 45 49 47 46 52 52 52 49 55 72 80 72 73 83 88 90 91 89 88 86 80 73
91 84 79 77 74 81 94 96 84 88 81 62 64 56 58 59 56 57 56 47 47 46 44 46 45 47 48 50 51 51 49 52 58 59 61 62 60 57 59 63 64 72 84 78 72 73 78 84 86 83 82 79 76 72
81 75 73 73 74 85 95 97 91 88 86 69 60 60 58 55 56 55 57 57 52 48 44 41 44 46 51 55 53 49 52 67 73 75 69 72 68 66 68 68 72 82 86 79 76 73 73 74 76 80 80 76 74 70
75 74 71 72 77 92 97 93 90 86 84 72 68 66 68 65 63 65 66 61 55 49 40 45 47 51 52 49 53 50 65 76 84 79 85 82 77 73 64 64 79 84 81 83 81 76 74 77 77 78 76 74 71 65
77 70 69 72 82 96 95 91 86 75 72 73 75 72 74 65 64 58 66 65 54 45 44 47 50 53 54 54 52 62 79 92 93 96 91 82 75 70 70 74 85 79 83 88 85 82 80 80 78 76 74 70 64 51
74 75 73 73 84 87 87 85 82 75 78 78 74 72 68 62 59 55 47 46 49 50 47 49 51 55 55 54 63 71 79 86 90 93 94 94 91 87 85 78 82 89 89 89 90 87 86 84 77 74 68 61 48 43
80 78 79 69 68 70 70 70 68 67 72 73 69 70 68 61 53 52 52 54 53 51 51 53 52 54 58 68 69 71 78 87 85 84 80 80 80 78 80 92 96 95 96 96 94 93 89 77 70 65 56 46 37 34
76 82 88 76 64 56 50 45 51 54 63 70 70 69 63 58 60 60 59 58 56 55 54 50 54 58 62 64 71 82 83 79 80 77 75 80 85 90 95 94 92 90 87 83 82 79 75 73 68 52 41 38 37 35
74 81 89 81 70 57 45 47 44 44 53 58 62 60 61 63 63 60 59 59 58 57 54 50 53 61 64 68 81 81 82 82 78 73 71 74 81 87 89 86 81 79 79 77 73 72 74 61 47 43 44 42 36 33
81 83 88 80 70 61 53 52 49 56 60 64 66 66 65 64 63 60 60 58 59 54 50 56 60 65 73 83 84 85 84 79 75 75 76 77 79 77 74 73 71 72 71 70 73 75 57 46 48 48 42 37 34 35
81 83 85 78 67 57 57 57 61 67 73 74 71 66 63 61 61 59 58 59 61 57 53 56 63 72 84 89 90 85 79 74 72 70 69 73 74 73 73 73 71 69 72 75 76 62 49 50 51 48 42 40 43 44
85 83 82 76 64 55 55 56 60 64 70 71 66 62 61 61 59 57 58 58 60 58 54 57 64 74 87 89 84 78 74 71 70 69 65 64 67 69 72 73 71 68 72 77 71 57 51 51 52 50 45 45 45 44
88 84 79 70 66 62 58 55 59 63 64 66 64 62 61 60 59 57 58 59 59 53 50 52 63 72 80 84 81 77 74 72 72 71 69 63 61 64 69 74 75 73 70 70 66 57 55 54 51 47 41 41 39 38
83 82 76 67 61 62 64 57 63 63 61 65 66 66 63 63 61 59 57 55 55 56 53 51 52 60 68 75 74 73 73 71 67 63 60 59 60 63 68 70 74 78 77 71 64 58 56 54 50 45 40 39 37 34
82 79 74 67 61 63 68 56 66 66 65 68 72 69 70 68 66 63 60 55 52 52 51 51 53 53 58 63 67 69 69 69 68 65 61 62 62 63 66 67 72 79 81 79 75 72 67 60 54 46 43 42 39 38
81 77 72 66 66 70 66 62 66 67 68 65 65 69 71 72 70 68 61 54 53 53 54 55 56 55 56 63 67 70 71 73 73 68 62 60 63 64 66 67 72 77 81 80 80 78 74 71 63 58 54 51 49 51
76 73 68 65 64 67 69 65 59 62 65 66 67 70 74 78 77 71 62 59 59 58 56 56 60 60 61 60 65 74 76 76 72 65 60 61 63 64 66 68 72 77 78 79 82 81 80 76 69 62 59 57 56 53
69 67 63 63 62 65 66 66 63 62 67 68 70 77 82 81 80 75 71 69 64 62 61 61 63 63 63 63 67 75 76 74 68 62 61 62 64 66 67 70 75 78 79 83 83 84 81 76 69 64 62 61 57 50
63 64 65 67 68 67 67 65 65 66 67 73 80 83 84 85 84 82 82 72 73 71 71 71 68 67 68 69 69 74 73 71 70 66 64 66 70 73 76 79 81 81 81 84 86 84 79 71 66 63 60 56 49 47
57 60 71 76 76 77 79 80 81 81 84 85 88 89 89 88 93 95 94 89 80 79 78 76 73 72 72 69 69 71 71 72 73 71 71 74 80 81 81 82 82 84 85 86 83 76 70 68 66 61 56 51 47 46
60 64 73 80 83 87 88 91 91 89 90 90 90 93 94 91 91 90 91 91 89 83 80 78 76 74 72 71 69 70 72 73 72 70 73 78 82 84 86 86 87 87 85 78 74 72 70 66 59 56 54 50 49 49
61 66 77 81 82 84 86 91 92 87 89 89 87 83 82 82 84 85 85 84 85 84 84 81 80 77 74 73 73 75 75 76 75 74 75 75 77 79 81 84 85 84 83 82 77 67 60 57 55 55 50 51 50 46
71 71 76 82 82 81 80 84 86 84 80 78 83 85 85 81 80 82 84 83 83 83 83 83 81 80 80 80 79 77 76 76 76 76 77 78 79 80 81 82 83 84 84 79 64 57 57 54 53 47 51 52 46 41
78 75 74 73 74 78 81 82 82 82 82 78 75 76 79 79 79 74 76 79 81 81 80 78 77 78 80 82 82 80 78 78 78 79 80 79 81 82 83 84 85 85 78 67 61 61 58 54 50 52 52 47 42 38
97 98 98 97 94 94 94 95 92 90 88 87 86 85 83 81 79 75 76 80 79 78 80 81 81 81 80 81 83 84 84 83 83 83 83 83 84 85 86 87 86 77 69 65 63 60 54 52 54 53 48 43 39 34

GFSWCAN_prec_cthk_105.txt.gz
RH
83 77 81 84 91 98 99 98 98 98 97 95 88 78 90 95 93 95 97 94 97 96 86 88 86 83 83 77 76 69 61 57 54 56 56 50 51 46 53 67 54 53 53 52 53 65 78 68 66 74 82 85 89 90
85 84 79 84 93 98 98 95 93 89 84 76 75 76 89 92 96 96 99 94 88 95 91 86 84 81 71 64 69 53 52 39 47 52 50 51 51 52 54 56 58 67 72 86 72 85 73 71 77 81 86 90 97 95
82 84 86 99 99 98 97 91 84 75 66 79 86 96 97 97 98 96 98 92 94 89 88 86 79 62 60 43 39 43 42 38 36 45 53 56 60 49 57 65 62 61 64 70 70 72 74 77 81 90 94 94 93 94
75 85 98 98 97 94 87 80 75 65 75 88 96 95 97 96 95 90 97 94 92 88 88 77 71 57 38 33 30 33 33 27 29 39 47 54 55 62 67 59 73 62 68 73 77 78 76 80 86 91 92 95 96 96
83 97 99 97 91 81 76 74 75 74 89 95 95 91 88 82 85 94 96 89 87 89 78 72 51 40 41 33 30 29 27 27 31 34 47 56 55 57 58 56 58 63 75 74 80 77 81 82 89 91 94 94 96 95
94 98 98 92 84 75 66 62 72 90 94 96 92 79 73 78 86 92 87 80 78 79 65 59 50 48 44 38 33 32 31 33 33 34 32 36 45 51 60 65 62 56 60 68 71 77 84 87 92 93 95 96 96 93
95 98 90 83 79 79 77 83 89 91 93 86 80 80 85 83 78 86 80 75 68 63 52 50 47 42 43 41 38 35 32 34 38 34 35 32 33 42 53 58 58 58 60 67 70 77 86 88 91 93 93 92 90 86
98 93 88 85 83 83 84 84 80 86 85 90 81 80 70 68 77 82 71 61 57 59 51 53 54 44 39 42 42 38 39 38 38 41 36 39 38 42 46 48 52 57 61 68 73 78 87 88 91 91 91 86 84 79
97 91 90 85 83 88 91 82 83 92 79 75 77 81 73 73 75 64 56 58 62 56 53 51 47 52 39 46 46 43 45 45 40 46 45 40 51 50 50 46 47 54 61 69 72 77 85 92 91 92 91 85 82 74
95 91 87 85 86 94 91 86 89 74 75 84 66 68 69 68 57 56 57 62 49 48 55 54 50 47 48 49 50 49 45 47 53 52 50 53 57 58 49 51 52 53 64 70 71 73 81 90 92 88 86 83 80 73
91 84 80 78 84 93 92 91 86 78 79 67 62 63 61 61 59 57 52 52 50 56 53 55 51 46 49 51 52 49 49 52 60 75 60 68 64 66 60 61 67 63 69 77 78 74 77 81 88 91 85 80 75 73
83 78 77 78 84 97 91 89 89 81 70 61 56 58 62 62 60 62 56 52 58 58 54 55 49 49 50 51 51 44 54 62 73 69 71 73 84 70 72 72 74 73 79 81 83 78 75 75 76 78 81 78 72 68
76 76 75 78 89 96 93 91 90 81 69 69 62 61 65 61 69 67 70 66 66 62 54 45 51 52 48 54 51 51 65 81 75 83 86 79 72 73 73 69 80 82 84 81 85 82 76 75 76 77 76 74 70 62
71 68 72 86 94 95 90 86 84 83 83 72 68 75 80 73 69 67 75 74 69 48 47 50 48 52 55 54 52 64 75 76 81 87 89 79 75 72 72 72 79 86 83 88 89 85 83 81 80 77 75 73 64 48
66 69 75 85 93 90 88 79 75 79 85 81 78 81 76 70 70 66 65 60 48 50 49 50 48 55 52 55 61 65 70 78 82 91 81 83 86 86 83 78 81 90 92 90 91 91 88 85 81 76 72 64 49 37
68 68 70 84 85 84 84 81 80 82 81 78 77 80 78 72 63 57 52 51 51 52 54 53 51 58 54 61 63 70 79 81 84 74 77 84 89 88 93 97 97 97 97 97 97 93 92 86 78 71 62 47 38 33
77 71 68 65 72 69 73 77 78 78 77 82 82 78 78 65 59 60 60 56 52 58 56 50 51 56 54 60 69 76 84 84 77 75 76 82 90 95 97 96 95 95 94 91 91 88 84 79 72 62 45 38 36 33
81 80 66 55 49 54 54 60 65 71 76 79 75 69 64 59 59 58 55 55 58 55 50 52 51 56 61 69 81 84 82 78 75 75 75 78 83 86 88 88 86 84 85 84 82 77 77 74 58 47 43 42 39 36
75 79 72 61 49 50 49 53 54 58 64 64 62 61 62 63 60 56 54 54 54 52 50 49 56 62 75 84 89 82 78 73 70 71 73 78 82 81 81 78 76 75 76 76 76 79 76 57 51 52 49 44 42 41
65 73 72 64 56 58 54 62 62 62 66 67 66 63 61 60 57 52 54 53 57 54 48 50 59 70 86 92 87 81 76 73 70 69 68 68 71 72 72 74 76 75 73 75 78 76 68 57 53 52 49 50 48 43
70 72 72 65 60 56 57 63 67 69 68 68 64 61 59 56 55 55 56 52 55 52 49 54 59 70 83 88 85 81 76 73 74 75 71 66 63 65 68 71 73 76 75 71 76 77 70 60 55 53 48 45 42 40
70 72 72 64 61 59 56 57 60 63 64 62 61 59 60 59 57 56 54 53 52 54 53 50 53 63 71 81 81 78 76 75 73 70 66 64 62 61 63 67 71 76 79 78 74 71 69 62 57 54 50 44 42 42
77 74 68 60 56 60 61 62 62 61 64 63 62 59 59 58 57 55 53 51 50 50 52 51 50 52 60 67 76 74 73 72 70 70 69 67 64 63 64 65 70 71 77 83 83 79 77 71 68 65 59 54 51 49
76 70 64 60 61 64 58 62 62 61 61 63 61 63 62 61 61 59 57 55 53 49 48 51 51 52 57 57 61 65 69 71 71 74 74 69 64 64 65 66 69 71 75 79 83 83 81 78 77 74 67 62 60 59
74 69 65 61 62 65 63 60 64 61 63 59 60 61 63 66 67 65 61 58 55 52 51 50 53 54 61 61 62 67 71 74 76 79 76 68 64 64 66 67 69 71 73 77 82 82 82 82 82 77 71 66 63 63
69 67 64 62 62 67 65 64 62 65 66 62 59 61 67 68 71 69 65 67 64 59 57 59 59 60 66 67 66 65 68 75 78 79 76 68 64 66 68 68 70 72 74 80 82 83 84 85 82 76 70 67 65 64
67 67 64 65 64 63 66 64 61 59 63 65 64 65 71 76 78 75 78 73 71 67 66 66 68 70 71 72 69 68 68 75 79 78 77 73 68 70 72 74 76 80 83 84 85 85 86 85 81 74 70 68 65 63
66 63 68 71 69 66 69 67 64 61 63 62 68 82 85 84 87 88 89 92 81 75 75 77 78 78 75 73 71 69 69 70 76 76 76 76 74 75 79 84 85 85 86 87 87 88 86 81 76 74 71 62 56 53
57 57 66 72 74 73 74 75 75 73 74 78 87 89 89 85 89 88 85 90 92 89 84 83 83 81 79 76 73 72 72 72 75 76 78 77 75 76 79 84 88 89 89 90 90 88 80 73 68 65 57 52 50 47
55 56 64 70 74 75 80 84 87 85 87 90 89 86 83 82 82 83 83 82 83 84 83 86 84 83 80 77 75 74 73 73 75 78 81 80 78 76 77 78 80 82 83 82 78 73 72 67 61 58 54 52 49 50
60 60 65 71 75 77 77 77 83 87 87 86 79 81 84 81 77 77 79 81 81 83 84 85 84 84 83 83 81 80 79 78 79 80 80 81 79 78 79 81 83 83 82 82 82 77 68 61 59 57 53 51 51 49
71 72 70 73 77 76 74 77 80 80 79 79 80 76 74 73 73 72 71 71 72 76 78 81 85 84 83 83 84 83 83 83 82 81 81 81 81 82 83 84 85 85 86 87 78 69 64 61 60 54 53 54 51 47
91 91 81 78 77 77 81 84 82 81 80 79 78 78 77 76 74 71 70 73 76 79 78 76 76 79 83 84 83 81 81 83 84 86 86 84 84 85 87 87 88 89 89 81 72 69 65 62 56 56 57 53 49 45

GFSWCAN_prec_cthk_108.txt.gz
RH
80 75 71 68 83 92 93 78 71 71 71 87 97 97 94 85 91 98 98 97 98 99 94 96 93 95 90 86 81 74 73 70 67 77 75 79 86 69 80 78 50 44 45 45 50 59 66 66 61 62 68 72 77 81
80 77 79 91 92 95 98 98 88 84 87 87 89 85 82 90 98 98 98 97 97 99 93 91 89 87 87 91 90 77 70 64 63 68 65 71 62 63 61 61 55 65 64 74 68 77 72 66 64 67 74 80 90 90
80 82 90 94 98 99 98 94 93 95 95 92 95 93 80 94 97 96 98 97 96 95 93 92 89 83 79 76 77 75 66 62 55 64 71 68 63 49 57 66 55 51 56 69 72 67 64 64 69 75 81 88 88 90
82 88 94 98 99 99 98 92 87 86 83 78 74 72 87 97 98 97 98 97 96 98 96 89 83 78 68 56 55 53 47 38 42 51 60 61 67 55 71 70 58 50 54 60 66 70 69 69 74 83 87 87 89 90
89 93 97 99 99 97 91 81 77 70 73 75 83 90 97 98 96 98 98 98 98 97 90 87 78 65 58 43 38 38 36 34 42 43 45 72 70 56 72 64 62 58 64 63 73 65 71 72 77 85 87 91 94 92
92 96 99 99 96 91 80 67 61 71 83 90 95 98 98 93 94 99 98 98 97 91 82 84 70 61 50 47 41 43 42 43 43 42 46 52 58 52 57 60 62 55 60 63 68 70 72 78 82 88 89 93 92 91
93 98 98 97 83 76 73 65 73 85 91 95 93 90 88 88 98 95 91 85 87 82 80 71 54 51 51 45 47 44 38 41 45 34 38 35 33 45 68 66 58 54 50 57 60 68 74 81 85 89 93 95 92 88
96 99 98 87 76 61 63 73 86 93 95 88 80 81 89 97 97 90 85 82 80 76 68 56 61 46 48 52 45 43 41 39 39 42 33 42 41 36 52 52 51 50 52 54 61 65 74 80 85 88 90 89 87 82
98 92 87 82 76 74 78 92 95 94 95 91 91 93 93 94 93 88 82 78 67 78 61 54 50 53 50 52 47 41 44 46 35 45 47 40 52 49 48 41 39 45 50 55 61 69 76 81 85 88 89 86 83 78
93 90 86 82 82 77 83 92 95 93 89 88 89 88 87 84 85 80 74 72 70 57 60 63 62 53 44 46 47 46 44 50 52 45 45 42 54 54 54 47 42 46 50 58 63 72 78 84 88 90 92 87 82 75
91 92 86 88 91 89 86 93 85 80 80 89 89 80 80 81 76 71 69 71 62 57 55 60 52 50 48 48 46 54 51 46 49 67 64 64 57 62 64 58 54 56 57 65 70 74 80 84 93 91 91 88 81 77
92 89 85 92 96 90 91 75 86 91 85 73 71 70 74 74 65 62 66 58 62 63 60 59 55 53 49 55 52 41 47 47 63 75 72 62 86 78 69 63 64 68 70 72 80 81 82 84 93 94 89 82 74 73
81 79 82 92 94 94 93 81 86 68 70 73 75 76 70 58 64 61 61 58 66 64 69 69 62 50 49 52 48 46 50 66 68 74 76 79 67 65 70 72 74 83 81 82 91 87 82 83 87 89 88 86 79 70
78 79 82 95 94 92 94 86 69 74 78 72 67 65 78 70 68 76 74 66 70 65 67 58 52 53 55 57 47 52 61 68 71 79 94 81 77 70 66 68 73 85 85 89 91 90 87 80 79 82 77 75 72 63
71 77 86 96 95 92 92 87 79 84 72 72 72 79 79 74 75 77 80 78 74 76 54 48 49 49 51 47 49 56 61 68 74 97 82 78 84 88 84 77 75 81 86 89 89 93 87 80 80 79 76 71 69 56
72 83 91 93 89 85 85 86 81 76 75 73 78 82 82 79 75 71 67 72 68 52 60 48 56 57 49 52 54 61 69 82 94 74 72 81 85 83 81 81 81 83 86 90 91 93 92 89 85 80 75 70 59 41
65 73 87 88 88 84 83 87 84 84 81 85 88 88 87 83 75 65 64 57 56 68 65 52 51 50 50 54 61 64 79 91 76 73 75 85 92 96 97 97 97 97 97 94 94 95 92 90 84 78 70 58 42 33
59 63 81 82 86 86 85 85 85 81 87 90 88 88 80 68 61 59 56 60 67 59 52 57 52 52 57 59 74 77 80 78 77 76 77 78 87 94 97 97 97 97 97 94 94 93 90 83 79 72 57 43 36 31
62 53 54 68 78 85 84 84 83 81 87 83 79 75 66 60 60 58 56 57 57 54 51 47 51 59 65 73 85 81 78 75 73 74 78 81 85 88 89 89 89 88 89 90 89 87 81 82 78 61 48 43 38 37
72 59 49 47 54 60 66 73 73 73 78 73 67 66 62 61 57 55 53 51 52 47 48 47 57 63 72 82 82 79 80 75 70 69 69 69 73 79 81 82 82 79 79 79 80 81 81 81 68 53 48 49 49 48
65 67 61 53 46 46 56 60 62 65 64 65 64 63 62 58 57 55 54 50 53 52 52 52 53 62 77 87 86 85 80 75 74 74 73 70 67 67 70 73 76 77 79 78 74 77 80 79 69 57 54 57 55 46
63 70 67 59 58 56 61 64 66 65 66 66 65 65 64 62 59 57 53 52 52 51 51 52 50 60 71 85 88 87 81 79 76 76 70 67 65 64 64 65 69 71 76 80 77 74 76 78 71 61 56 53 52 47
63 61 67 64 57 56 63 64 65 66 67 64 62 61 59 59 56 52 52 51 51 48 50 50 49 50 59 69 78 84 81 78 75 69 70 71 70 67 66 65 66 69 73 76 82 84 83 82 77 72 68 65 60 56
61 58 60 62 62 61 59 59 59 60 63 62 60 59 60 57 56 55 55 54 56 51 47 48 49 50 52 56 62 68 74 74 71 68 71 74 73 68 65 66 68 68 71 73 77 82 86 86 82 79 78 74 69 64
69 64 62 58 61 60 58 60 62 58 61 62 61 61 62 60 62 60 58 61 55 53 51 48 47 52 53 53 59 61 59 63 69 71 73 78 76 69 65 65 67 68 70 73 75 78 82 85 85 84 82 79 73 68
69 63 64 59 59 64 60 59 60 60 59 60 60 60 60 64 64 66 67 65 62 60 57 54 54 53 55 56 56 64 66 67 69 72 72 76 78 73 68 67 68 70 72 74 76 79 83 86 87 86 84 79 71 68
66 65 60 58 62 59 63 66 61 62 65 63 60 57 59 65 70 73 72 67 66 63 62 60 61 61 63 64 64 69 70 69 67 69 76 78 79 80 77 73 73 76 79 81 84 87 88 89 89 89 85 78 72 70
67 62 64 63 62 60 67 68 62 58 60 63 63 62 65 73 85 81 79 75 77 73 73 73 72 74 76 76 77 76 77 74 70 68 71 78 79 79 81 78 78 83 88 90 91 92 93 93 93 89 80 71 68 64
65 62 60 66 71 67 68 71 70 67 67 64 67 72 79 81 84 84 82 83 92 89 85 83 84 85 87 86 85 83 82 79 76 75 75 75 78 80 82 82 80 81 84 87 89 90 90 89 85 75 69 66 60 56
61 58 59 66 71 70 72 79 83 79 71 72 75 81 85 83 81 81 83 83 83 85 86 87 85 88 88 88 88 87 84 82 79 77 77 74 74 77 82 84 83 82 83 85 85 86 86 82 75 72 66 60 58 53
60 56 55 61 66 72 74 76 78 77 76 80 81 85 89 87 83 78 78 82 85 85 84 84 83 88 89 90 88 87 86 85 83 81 79 78 77 80 82 84 86 84 85 86 86 84 80 78 74 67 63 61 55 53
65 62 60 61 67 70 67 69 71 71 75 78 82 81 81 79 77 73 74 72 75 77 76 75 77 79 82 86 88 87 87 86 84 82 82 82 83 84 84 85 86 87 88 85 85 87 83 74 69 65 63 58 55 54
84 77 76 74 71 71 72 73 75 77 77 77 79 80 79 80 79 77 78 75 74 75 74 73 75 77 78 79 82 84 86 87 86 85 85 85 87 87 87 88 88 89 89 89 90 82 74 72 69 65 61 57 56 54

GFSWCAN_prec_cthk_111.txt.gz
RH
81 83 84 80 74 75 89 93 93 87 83 77 79 87 95 98 91 88 86 78 76 84 93 98 87 91 95 97 96 85 79 78 79 84 86 91 96 85 84 82 70 71 73 67 53 62 71 63 64 64 61 59 63 71
78 78 82 80 79 79 83 91 90 77 69 78 89 97 99 95 90 83 85 87 96 98 99 97 97 96 98 93 84 78 72 68 71 73 76 84 90 87 87 95 79 70 61 62 59 67 70 68 67 61 59 69 78 81
68 79 79 85 90 85 84 78 72 73 77 80 90 94 93 91 86 93 96 98 98 98 98 97 96 92 92 91 80 70 70 67 66 69 80 83 80 78 80 80 74 64 59 66 68 67 69 64 62 62 69 80 85 85
68 86 94 94 96 98 99 96 89 79 80 89 96 93 89 88 89 96 97 98 98 98 98 91 88 85 78 82 77 74 72 68 63 72 81 87 85 74 74 71 65 56 54 59 67 71 65 62 64 70 79 84 87 88
86 95 95 96 99 98 98 98 97 94 91 90 91 90 86 92 98 98 98 98 99 97 89 86 81 80 74 67 64 64 57 48 49 65 74 85 83 77 71 70 73 60 55 54 61 56 61 65 68 73 83 88 89 90
91 93 98 98 99 96 89 87 86 86 86 86 81 76 83 98 96 94 99 98 95 88 82 90 85 79 66 67 56 44 45 46 50 54 58 72 78 66 75 82 70 60 56 55 61 65 64 69 72 76 83 90 91 90
94 97 99 99 97 89 77 76 80 83 84 81 80 87 98 98 96 96 96 93 89 88 84 84 78 76 62 52 45 49 54 50 50 48 48 52 59 56 60 62 57 57 52 51 55 58 68 72 77 80 88 92 91 91
97 99 99 97 87 73 70 73 80 81 83 87 92 93 96 98 96 93 91 89 91 87 81 78 74 56 50 50 47 47 50 47 43 37 34 39 34 39 55 60 62 56 50 48 51 55 61 72 78 83 89 94 92 89
99 99 96 76 68 69 72 78 84 85 84 87 90 94 98 98 95 89 86 85 84 79 77 68 54 59 54 56 50 51 49 52 44 46 44 42 48 45 41 41 42 41 46 50 52 56 63 71 79 82 86 89 88 85
98 96 81 70 69 72 80 87 93 90 87 90 95 96 98 96 87 87 83 76 74 70 74 60 54 50 54 54 54 48 51 54 47 44 44 47 53 48 47 46 44 39 41 48 54 58 64 72 80 83 86 88 86 81
97 89 79 76 80 85 92 93 93 93 93 97 96 95 90 87 87 84 81 75 72 67 75 73 56 50 49 52 54 49 45 45 55 58 52 58 58 55 54 55 53 48 53 53 57 62 70 75 83 88 91 90 87 80
88 85 83 77 83 95 93 91 93 94 92 90 86 85 91 87 79 77 78 72 70 63 66 66 55 52 55 54 48 47 49 45 59 62 66 65 67 69 64 61 59 59 62 63 63 71 77 86 89 94 96 94 88 83
92 91 93 90 89 90 89 84 86 87 81 86 87 87 79 73 70 69 74 67 73 63 60 60 59 56 59 51 51 46 51 57 57 67 71 82 76 68 60 60 64 68 73 74 75 82 87 94 95 97 96 93 90 85
90 90 96 92 92 84 91 88 82 92 88 81 72 75 76 70 72 76 74 66 65 73 76 70 64 58 52 49 46 45 52 61 68 76 88 84 77 75 65 64 68 78 83 86 90 95 92 92 94 98 97 94 91 84
81 92 96 96 93 86 75 81 83 87 75 72 71 80 78 75 74 75 72 67 73 81 74 71 53 47 51 45 45 51 57 64 72 93 90 74 79 82 82 68 66 83 88 90 96 97 96 93 92 94 96 92 89 82
84 94 95 96 94 86 71 77 76 69 70 72 75 79 76 72 76 78 84 77 80 77 64 49 56 50 47 47 50 55 68 79 90 80 70 76 84 84 81 85 79 80 85 88 93 97 98 95 92 89 90 86 78 69
84 88 88 90 95 93 78 78 71 69 72 80 89 88 90 82 75 72 75 80 77 70 66 57 51 53 51 56 59 62 73 80 79 69 69 79 88 92 93 94 87 86 89 94 96 97 98 95 92 90 87 81 71 54
84 88 86 87 91 91 85 82 79 81 85 90 91 92 86 84 72 62 72 80 75 65 62 55 48 49 56 60 75 70 72 75 73 71 70 74 87 92 95 95 96 97 97 96 94 93 95 96 95 89 84 74 59 46
76 86 88 90 85 83 84 84 81 86 93 93 92 86 78 71 67 64 66 65 63 59 51 45 47 57 64 70 78 74 72 71 71 72 74 78 83 89 91 94 96 97 97 97 97 96 95 92 88 82 77 66 49 38
57 69 82 88 83 82 86 84 84 85 90 85 81 76 66 63 58 56 55 53 48 46 47 48 57 62 64 68 72 74 72 68 66 68 68 69 73 80 85 88 89 87 88 90 91 90 86 84 86 83 72 54 43 39
58 53 52 59 68 75 84 84 80 77 76 75 72 68 65 57 54 54 51 48 48 49 56 53 51 58 66 74 77 77 74 73 71 70 72 70 68 67 70 75 78 79 82 85 86 80 84 90 90 80 63 55 51 53
68 59 45 40 44 52 65 70 70 71 71 69 70 66 61 59 58 58 52 50 50 53 51 49 51 58 67 79 82 83 82 80 76 74 70 68 67 66 66 66 68 73 75 79 84 83 83 89 89 84 77 65 61 55
58 62 59 54 50 53 64 66 63 66 66 66 65 65 65 63 60 53 53 50 52 51 50 50 49 50 58 68 79 86 86 83 80 76 69 70 73 72 68 67 68 69 69 74 76 83 88 88 85 81 79 76 72 69
47 49 62 62 55 57 60 64 65 65 66 66 64 63 60 56 53 52 56 57 55 52 50 49 51 50 49 51 60 68 75 82 79 76 71 70 75 76 71 66 66 68 69 70 73 76 83 88 90 89 89 87 82 75
50 51 58 63 64 61 59 58 62 61 62 61 60 61 57 55 59 58 56 62 55 53 52 48 46 49 50 51 52 54 60 64 68 68 71 75 75 79 79 71 66 67 69 70 71 74 78 81 84 86 89 88 84 78
59 53 60 58 62 64 59 59 57 59 58 60 61 62 58 61 59 62 70 66 63 60 59 57 53 52 52 52 55 52 53 60 64 66 69 72 73 75 79 79 78 74 72 73 74 76 79 81 84 88 90 89 87 80
65 63 59 57 60 59 62 61 58 59 58 58 59 57 57 65 67 72 71 68 63 62 60 61 58 56 57 58 58 58 59 62 68 73 73 73 72 76 79 80 81 82 80 79 84 87 89 91 92 92 92 93 90 82
65 62 65 60 58 55 63 65 58 56 59 62 61 59 60 67 77 79 77 68 66 71 70 69 69 69 70 71 71 73 75 75 75 79 79 75 72 72 79 83 82 83 84 83 84 89 92 94 95 95 94 91 83 75
66 64 61 57 63 63 61 69 71 68 66 63 63 67 69 72 79 81 81 79 79 83 81 82 82 83 84 84 84 84 85 85 85 85 85 82 78 78 78 78 80 82 86 88 86 84 85 87 89 90 90 83 77 72
61 56 57 55 58 67 68 74 81 82 75 71 71 73 76 78 82 82 81 81 82 85 85 85 84 82 84 88 92 91 90 89 88 88 88 86 83 80 79 78 78 79 84 89 90 90 89 89 90 90 84 80 75 67
60 62 57 55 59 69 75 75 77 78 76 74 73 74 79 83 85 86 84 84 85 87 86 84 83 82 82 83 86 88 89 89 89 89 89 89 86 82 82 82 82 83 87 88 90 91 92 92 88 84 81 74 66 64
60 59 56 55 57 63 66 66 66 67 72 71 73 74 76 77 81 82 80 78 76 74 74 74 75 75 76 77 78 80 82 86 88 89 89 89 88 86 85 86 87 89 89 90 91 91 91 90 87 81 72 68 66 63
78 75 73 71 65 63 64 65 67 67 68 69 71 72 77 79 82 82 82 81 79 76 73 72 73 75 75 76 79 81 81 81 84 87 87 88 89 88 89 89 90 91 92 93 93 92 92 90 80 74 71 68 64 60

GFSWCAN_prec_cthk_114.txt.gz
RH
78 83 88 97 99 79 67 67 70 70 64 48 36 43 67 80 84 92 96 98 96 93 85 79 74 74 74 80 76 78 95 92 87 81 85 85 86 85 84 81 76 81 81 83 82 85 81 68 60 59 58 56 55 55
76 79 85 90 87 81 88 93 99 96 83 80 68 67 94 89 89 92 98 98 89 83 81 79 73 77 83 89 79 81 86 84 80 78 77 78 92 94 85 92 79 81 76 81 82 74 63 57 60 62 55 53 60 66
67 74 79 79 79 76 77 91 90 91 89 82 76 97 98 97 99 97 97 91 83 77 86 97 97 89 89 84 84 85 80 78 73 74 78 81 86 92 93 94 87 84 74 76 67 58 54 65 68 62 56 61 72 75
64 66 74 77 81 82 79 77 79 80 78 78 90 97 98 98 97 91 84 83 80 89 91 97 97 97 97 94 87 81 75 71 68 71 80 82 92 87 90 83 84 77 72 65 65 68 64 67 60 58 63 70 78 80
69 88 92 92 94 92 88 74 69 76 82 87 94 98 98 98 96 85 89 89 96 86 85 92 90 86 87 85 80 78 73 70 71 73 81 84 87 91 85 79 81 75 66 57 56 61 62 58 60 62 68 75 81 83
91 94 96 98 98 99 93 86 83 83 85 91 97 97 94 88 84 95 99 98 92 82 84 91 85 85 79 77 76 71 67 65 65 71 79 85 87 88 91 84 78 74 61 53 54 53 55 59 63 66 69 76 84 85
96 98 99 98 98 98 98 97 95 97 97 95 89 88 89 92 95 94 90 91 86 86 81 85 85 80 72 70 71 63 58 54 55 61 64 69 77 80 80 77 80 70 58 56 55 58 64 64 68 70 75 82 88 89
98 98 98 92 86 87 90 91 92 92 93 94 91 86 95 97 97 97 94 92 89 86 80 79 80 80 72 62 61 58 54 50 52 54 51 56 69 66 64 63 63 60 56 51 51 53 55 62 68 76 80 88 90 92
98 98 90 86 86 86 88 87 88 87 85 85 90 94 95 98 98 95 94 92 89 85 81 74 78 71 60 55 51 58 56 58 53 53 43 42 45 42 39 42 52 55 50 52 52 51 54 60 68 77 84 89 91 93
98 92 84 83 81 81 77 80 84 85 88 95 96 96 98 96 92 93 87 83 80 83 84 72 54 61 56 53 58 56 53 51 55 52 47 49 49 46 49 48 47 45 39 40 49 53 55 60 68 76 85 87 89 90
82 77 76 76 77 81 80 80 85 92 98 98 93 91 89 92 87 83 81 76 74 78 72 62 45 49 57 56 54 51 59 59 63 57 52 51 52 51 52 53 52 48 44 44 47 52 60 63 71 76 85 88 89 90
80 78 78 80 83 85 90 94 93 92 97 96 91 89 91 88 83 80 82 76 73 73 76 66 51 53 57 55 55 56 51 50 57 57 58 64 61 59 60 57 54 52 53 56 56 57 63 69 75 82 87 92 91 90
78 76 83 86 90 94 96 96 94 93 95 96 93 85 78 80 76 75 74 74 76 71 71 58 63 58 57 53 50 49 50 53 52 59 61 59 66 63 58 54 53 54 54 58 64 69 72 81 85 91 95 97 94 92
81 79 85 88 93 97 95 89 90 94 91 85 79 82 73 75 75 79 77 75 71 70 63 61 59 62 58 51 49 46 51 51 59 63 67 78 67 68 66 59 55 62 68 75 81 81 85 91 96 98 98 97 97 95
90 90 89 90 89 88 87 87 89 84 79 77 78 83 80 81 81 80 74 72 75 75 67 67 63 59 51 47 46 48 52 55 59 70 83 74 70 74 74 67 61 71 81 84 88 91 94 98 98 98 97 97 97 95
91 93 87 89 88 89 94 94 85 73 74 78 81 78 80 77 80 82 75 76 78 81 76 71 61 49 50 44 45 49 55 61 68 76 67 66 81 82 78 79 70 77 82 87 93 98 98 98 98 98 97 97 97 96
94 93 89 82 79 83 85 82 74 75 78 86 89 85 79 76 86 84 80 77 78 77 76 60 50 50 51 52 51 56 61 67 78 69 66 70 84 87 89 90 83 81 84 84 89 95 98 98 98 98 97 97 96 91
91 93 92 87 75 77 79 76 75 80 87 91 92 88 85 82 79 78 79 80 77 70 53 54 50 48 55 56 57 59 63 66 72 67 66 69 82 89 92 94 96 94 94 92 97 98 98 97 98 98 98 97 92 80
89 94 95 92 82 78 79 76 74 84 89 91 92 87 84 80 75 76 78 78 75 62 57 48 48 55 55 60 67 64 66 68 71 70 68 70 79 87 92 95 95 97 98 96 95 95 96 97 98 97 97 95 84 72
91 91 89 85 84 83 84 84 85 87 92 92 90 85 75 72 69 68 67 62 57 55 52 53 51 55 56 61 67 70 68 66 65 66 66 68 74 82 89 93 95 95 97 98 98 97 97 96 96 94 91 86 78 67
78 84 83 81 80 83 86 84 83 86 84 83 80 72 65 64 58 55 55 50 48 52 53 52 50 56 60 63 68 72 68 67 67 68 67 67 67 67 71 79 83 86 87 89 92 94 94 93 91 90 89 84 76 56
53 56 62 66 70 77 83 82 80 81 79 79 76 68 64 60 56 54 52 50 51 52 50 49 50 57 65 70 74 76 73 72 73 71 67 66 67 67 67 67 69 72 77 81 85 93 91 88 91 91 90 85 70 59
59 47 44 45 51 68 78 78 78 78 76 73 69 67 65 61 59 54 54 51 53 50 50 49 49 53 61 68 76 80 83 79 79 78 73 67 72 74 71 67 67 69 70 72 77 81 89 93 93 93 94 92 88 84
45 57 57 51 50 59 63 67 66 67 68 70 69 66 64 61 56 56 57 56 53 51 48 46 47 48 49 55 62 72 81 84 84 81 77 71 70 75 78 73 66 66 67 68 70 72 80 84 89 93 96 95 94 93
41 51 61 65 59 60 63 68 70 66 68 67 66 66 59 55 58 56 56 58 54 52 51 47 47 47 48 49 49 49 53 61 66 74 75 74 73 74 77 80 79 76 73 70 69 71 74 77 81 85 88 91 94 95
48 49 57 63 66 60 58 58 59 60 61 63 63 58 54 56 56 58 63 62 59 57 56 56 53 50 49 49 50 52 51 51 54 59 63 68 70 72 73 76 78 81 83 84 81 78 81 83 85 86 88 93 95 94
54 54 53 61 60 61 62 59 58 57 56 58 56 55 57 63 63 65 65 64 60 60 59 60 59 55 53 54 56 57 56 55 56 59 63 71 75 75 74 74 76 81 84 85 88 88 86 90 93 94 95 97 97 97
59 57 57 56 54 55 62 62 57 57 59 58 54 55 56 61 68 70 69 67 67 67 67 66 68 67 65 64 65 66 67 68 69 71 72 72 78 82 80 76 78 82 85 85 87 90 91 89 88 90 92 93 93 92
61 63 61 58 59 58 58 66 67 62 62 62 61 62 64 65 70 73 78 78 76 76 76 77 76 74 75 76 78 80 82 83 84 84 84 84 86 89 88 85 82 82 81 81 83 86 90 93 93 93 92 93 93 90
63 60 59 57 57 61 63 65 72 74 71 70 68 66 69 70 75 79 80 80 79 80 80 80 80 80 80 80 83 84 87 90 92 91 90 90 90 91 92 90 88 85 84 83 84 88 91 92 94 96 97 96 93 89
60 59 58 58 55 58 68 69 70 75 76 77 76 73 74 77 78 81 83 82 81 82 84 85 84 82 78 78 79 80 83 86 87 90 91 91 91 90 91 92 92 91 88 88 88 89 90 92 93 94 94 91 88 83
56 56 56 59 58 59 64 69 72 73 77 76 75 74 74 74 76 76 81 82 82 80 79 77 76 76 76 76 76 76 77 78 79 82 86 90 91 90 90 91 92 92 92 93 94 94 94 94 94 94 93 89 82 75
77 72 66 66 64 59 58 63 64 65 66 67 68 69 71 72 73 76 78 81 81 80 78 76 75 74 74 75 76 77 77 79 81 82 83 85 87 88 89 90 91 92 92 93 93 94 94 94 95 95 89 82 76 72

GFSWCAN_prec_cthk_117.txt.gz
RH
84 73 69 69 81 91 93 73 54 47 46 56 60 69 67 53 52 57 60 73 81 93 96 93 87 82 83 87 84 85 88 84 94 96 96 93 84 73 75 81 84 83 91 93 88 91 81 74 77 77 71 69 57 54
72 66 68 77 93 98 97 76 59 53 39 34 34 43 54 51 60 72 82 75 89 96 98 90 85 78 77 78 76 86 75 72 86 93 92 91 97 90 80 89 77 83 79 82 82 79 78 78 76 69 61 57 54 50
66 67 71 80 91 94 93 97 97 91 84 71 58 40 42 60 79 85 85 89 95 93 87 87 77 75 71 68 78 88 75 79 87 84 86 82 86 85 85 86 83 80 79 87 85 82 83 81 65 61 60 54 52 60
61 64 67 71 76 75 81 91 98 99 97 87 69 42 62 84 89 94 98 96 99 97 92 78 81 90 78 77 97 94 82 84 88 82 83 82 85 82 86 85 86 84 84 84 82 82 76 65 52 63 63 55 59 69
59 62 66 74 72 66 64 80 86 87 87 88 89 92 95 92 93 96 96 98 98 91 87 97 95 97 93 90 90 88 82 82 79 78 79 79 79 87 88 89 89 82 84 79 70 60 63 59 64 60 56 60 67 73
84 89 93 98 97 89 73 52 65 70 87 92 94 97 98 99 96 97 99 96 94 91 91 96 95 97 94 93 93 82 78 74 72 74 80 82 85 88 95 93 87 83 83 73 62 54 58 65 60 58 60 65 72 78
95 98 99 98 96 88 78 60 61 74 84 91 96 98 99 99 98 85 79 79 90 93 88 92 91 88 84 83 82 79 72 71 70 76 78 85 85 90 93 92 87 83 80 67 56 51 56 58 61 64 65 68 74 79
99 99 98 99 97 87 74 70 75 80 87 95 98 99 99 95 92 98 93 92 89 84 82 82 85 80 78 78 77 74 67 68 69 71 73 81 81 87 90 89 84 82 73 59 55 57 60 61 65 68 69 73 79 85
97 95 97 98 98 98 96 91 89 96 98 98 98 97 92 96 98 99 98 92 88 86 76 67 75 79 77 78 72 68 67 65 64 66 62 62 68 73 70 57 62 62 56 55 51 51 54 56 63 67 74 79 83 90
92 96 96 96 97 97 97 98 97 97 98 96 91 94 98 98 98 98 97 91 88 87 81 73 74 78 71 68 72 72 70 62 63 65 54 56 57 48 42 42 42 42 44 44 48 54 54 55 60 67 74 81 85 91
90 89 90 88 90 91 93 94 95 95 92 83 89 94 96 95 90 87 84 78 78 87 84 76 65 63 63 56 57 58 59 56 57 55 53 55 55 53 52 49 46 44 42 41 40 43 50 56 62 67 76 82 87 90
85 82 81 77 77 87 92 92 92 92 84 84 93 97 93 88 85 83 83 77 75 80 77 58 55 52 55 55 56 57 57 58 65 61 56 58 56 54 53 55 51 47 43 42 47 51 53 58 65 71 77 80 85 89
78 79 80 83 83 88 91 92 94 94 93 96 92 89 87 84 79 77 77 77 79 80 65 54 58 60 58 53 54 56 58 57 56 60 56 54 54 57 55 50 49 47 46 47 48 54 60 68 74 76 82 85 88 91
83 83 87 88 91 92 94 95 97 96 90 83 81 83 81 78 74 76 76 78 77 75 70 61 60 64 58 57 57 50 53 51 56 57 53 56 62 57 57 57 53 51 54 55 58 63 71 78 86 90 89 90 94 97
84 86 89 95 95 93 97 98 95 87 80 80 81 85 81 79 81 81 80 77 72 73 62 64 60 54 55 52 47 46 51 52 53 54 67 71 66 61 64 65 61 56 62 68 71 80 87 92 94 93 97 98 98 98
87 87 94 93 94 92 94 93 85 81 82 83 81 82 82 83 82 81 80 75 70 66 65 59 61 64 59 45 45 46 46 51 56 62 68 61 65 75 74 74 70 72 72 78 84 90 95 97 97 98 98 98 97 98
89 90 90 90 88 89 87 81 76 80 85 87 87 84 83 87 88 83 80 83 82 78 78 71 63 52 48 50 47 48 54 61 66 70 63 63 69 79 82 85 83 79 90 87 87 98 98 98 98 98 98 97 97 97
90 89 89 87 91 86 82 75 79 86 91 91 87 80 84 87 86 83 79 78 80 82 77 65 51 49 52 52 50 52 55 59 65 66 63 66 72 83 88 92 93 86 85 81 84 94 98 98 98 97 98 98 98 98
93 88 82 80 82 83 78 76 78 90 95 94 89 86 87 87 83 83 84 81 79 72 56 51 52 52 50 52 55 55 59 60 67 68 65 66 71 82 88 93 95 96 95 92 95 97 98 98 98 98 98 97 97 97
95 93 84 75 76 78 78 77 77 80 86 90 87 84 83 86 82 74 77 80 79 63 61 56 51 50 53 57 61 61 61 63 66 65 64 65 70 78 88 91 95 97 98 98 98 97 97 97 98 98 98 97 97 96
87 88 87 83 79 82 85 85 84 86 86 87 85 83 76 73 67 67 71 66 54 53 51 53 49 52 57 60 61 64 64 62 62 62 61 61 64 68 71 80 86 90 93 96 97 98 98 98 98 98 98 98 97 86
78 76 75 77 79 83 85 84 84 83 82 81 80 73 68 66 64 62 59 54 53 52 47 47 48 56 59 62 61 65 67 66 65 65 64 63 64 68 69 70 72 75 77 82 89 93 97 98 98 98 98 95 88 85
52 58 63 64 71 80 85 84 83 82 82 78 74 68 65 61 57 51 51 50 53 50 48 47 48 53 60 63 67 71 75 75 73 72 71 68 66 71 75 72 69 69 72 75 78 81 87 94 97 97 97 93 89 86
54 49 47 51 59 74 76 79 77 76 76 76 72 67 65 62 55 54 57 54 51 49 45 45 44 46 52 59 67 72 77 80 82 80 79 76 71 70 75 78 75 69 68 70 73 75 77 80 88 94 97 96 95 95
41 57 61 60 59 64 70 76 77 74 73 71 71 70 65 59 61 58 57 56 52 50 49 47 45 45 46 46 47 50 55 62 69 75 79 79 75 74 74 76 80 81 80 81 82 79 76 77 80 82 85 88 92 95
41 49 55 66 62 59 61 64 66 67 69 69 68 62 57 57 57 56 58 57 55 53 52 51 50 48 47 46 46 47 49 51 51 53 57 62 67 72 74 75 77 78 81 82 82 84 85 87 88 88 90 91 91 93
45 48 52 62 65 61 59 58 59 59 58 59 59 55 56 59 58 57 58 61 57 55 55 57 57 55 52 52 50 52 54 55 53 52 54 57 61 67 74 76 78 79 79 82 85 87 89 91 91 93 94 93 93 94
49 50 51 55 59 61 65 62 59 57 57 57 54 56 57 57 61 61 61 60 60 60 60 62 63 62 61 61 62 62 62 62 63 64 66 67 67 69 71 79 83 84 82 83 86 89 90 90 90 92 95 95 94 93
58 58 56 57 59 58 62 63 61 60 61 63 59 56 57 58 62 64 64 66 65 67 69 70 70 69 69 69 69 69 71 73 77 80 83 83 82 83 84 84 87 89 91 90 89 89 87 88 89 93 96 97 98 98
68 65 64 63 61 61 63 62 66 69 66 63 64 62 61 61 63 66 69 71 74 76 76 75 75 75 74 74 76 77 78 80 82 86 89 90 91 90 91 92 93 94 95 95 95 94 93 93 93 94 95 96 97 97
67 65 61 61 58 57 63 67 67 71 72 73 73 70 66 65 66 70 74 74 74 76 77 77 77 78 78 77 75 74 74 75 77 82 85 87 90 92 94 95 96 96 96 96 97 97 97 97 96 96 96 96 97 96
60 58 59 61 61 57 58 62 66 66 69 70 74 74 72 71 71 70 74 76 76 76 76 75 76 78 79 76 73 73 73 73 73 75 76 78 80 83 87 92 94 95 94 94 94 94 95 95 95 95 95 96 96 95
73 68 65 63 61 58 55 58 62 64 65 68 71 74 74 70 67 67 69 71 74 77 78 79 78 77 75 73 72 72 73 74 75 75 76 79 82 85 85 87 88 90 92 93 94 95 95 96 96 97 98 99 96 89